     2              OBSERVATION DATA    GPS                 RINEX VERSION / TYPE
TRRINEXO V2.8.4 LH                                          PGM / RUN BY / DATE
                                                            COMMENT
BIT 2 OF LLI (+4) FLAGS DATA COLLECTED UNDER "AS" CONDITION COMMENT
Original Marker Name: 0008                                  COMMENT
Campaign Name: coachelle valley 1990                        COMMENT
4-Character Station Name: 0008                              COMMENT
6-Character Antenna Code: TRMSST                            COMMENT
Vertical Measurement Point: TGP                             COMMENT
Vertical Offset to Rinex Ref. Point: 0.0629                 COMMENT
Radial Measurement Point: NGP                               COMMENT
Radial Offset to Rinex Ref. Point: 0.2334                   COMMENT
Antenna Height from Field Measurement: 1.6300 m             COMMENT
Original XYZ: -2370806.8399 -4748259.2276 3525871.1733      COMMENT
New XYZ position is based on association with SCEC monument COMMENT
E1D0T5D2+0011. Position of that monument is believed to be  COMMENT
valid to within 1 m horizontally; vertical accuracy         COMMENT
should be no worse than 3-times this value.                 COMMENT
                                                            COMMENT
Revised Rinex header created by UCSD GPS archive for        COMMENT
GSAC on 19-Apr-1999 (1999:109) 19:13:56 GMT                 COMMENT
For assistance contact dagnew@ucsd.edu or hjohnson@ucsd.edu COMMENT
                                                            COMMENT
BOGERT TRAIL (3D)                                           MARKER NAME
UNKNOWN OBSERVER RIVERSIDE COUNTY FCWCD                     OBSERVER / AGENCY
438 TRIMBLE 4000 SST 4.11 / 4.10                            REC # / TYPE / VERS
29 TR 4000SST L1/L2 GEO                                     ANT # / TYPE
 -2370814.0000 -4748262.0000  3525877.0000                  APPROX POSITION XYZ
        1.5503        0.0000        0.0000                  ANTENNA: DELTA H/E/N
     1     2     0                                          WAVELENGTH FACT L1/2
     3    C1    L1    L2                                    # / TYPES OF OBSERV
     0                                                      INTERVAL
  1990    10    11    11    56   45.000000                  TIME OF FIRST OBS
  1990    10    11    14    55   60.000000                  TIME OF LAST OBS
     0                                                      # OF SATELLITES
                                                            END OF HEADER
 90 10 11 11 56 45.0000000  0  6 02 18 06 11 13 09
  20774526.070          -0.50117
  22323345.508          -0.01216
  21432802.906          -0.34317
  24431600.211          -0.04715
  23528606.836          -0.93415
  24413362.164          -0.03314
 90 10 11 11 57  0.0000000  0  6 02 18 06 11 13 09
  20774870.234        1818.002 7        -0.47113
  22331266.367       41636.373 6
  21426468.531      -33295.747 7        -0.24712
  24439638.523       42219.041 5
  23516515.039      -63535.062 5        -0.14911
  24403916.703      -49619.735 4
 90 10 11 11 57 15.0000000  0  6 02 18 06 11 13 09
  20775225.586        3679.898 7      1450.355 3
  22339202.141       83329.833 6        -0.22511
  21420137.148      -66563.269 7    -25922.982 2
  24447677.922       84494.028 5        -0.29011
  23504433.391     -127033.120 5    -49479.097 1
  24394472.875      -99260.648 4
 90 10 11 11 57 30.0000000  0  6 02 18 06 11 13 09
  20775590.242        5590.318 7      2938.988 3
  22347144.453      125085.191 6     32536.408 1
  21413814.883      -99797.469 7    -51819.757 2
  24455738.406      126829.985 5     32988.800 1
  23492360.594     -190489.482 5    -98925.569 1
  24385021.906     -148917.399 4        -0.35611
 90 10 11 11 57 45.0000000  0  6 02 18 06 11 13 09
  20775962.672        7549.569 7      4465.677 3
  22355103.945      166902.659 6     65121.435 1
  21407496.000     -132997.925 7    -77690.231 2
  24463802.930      169226.497 5     66025.022 1
  23480293.563     -253903.414 5   -148338.983 1
  24375566.555     -198589.422 4    -38705.884 1
 90 10 11 11 58  0.0000000  0  6 02 18 06 11 13 09
  20776343.656        9556.091 7      6029.202 3
  22363074.156      208780.201 6     97753.285 1
  21401183.352     -166165.900 7   -103535.401 2
  24471882.078      211681.893 5     99107.143 1
  23468225.758     -317276.141 5   -197720.290 1
  24366113.992     -248278.217 4    -77424.360 1
 90 10 11 11 58 15.0000000  0  6 02 18 06 11 13 09
  20776733.492       11607.419 7      7627.640 3
  22371053.313      250715.089 6    130429.811 1
  21394876.938     -199303.541 7   -129356.936 2
  24479975.063      254193.272 5    132232.859 1
  23456179.602     -380609.531 5   -247070.967 1
  24356657.266     -297986.170 4   -116157.790 1
 90 10 11 11 58 30.0000000  0  6 02 18 06 11 13 09
  20777133.258       13704.307 7      9261.584 3
  22379045.430      292707.830 6    163151.433 1
  21388576.930     -232409.870 7   -155154.067 2
  24488068.602      296761.217 5    165402.666 1
  23444136.766     -443902.617 5   -296390.224 1
  24347191.406     -347712.293 4   -154905.487 1
 90 10 11 11 58 45.0000000  0  6 02 18 06 11 13 09
  20777541.164       15850.570 7     10933.997 3
  22387047.813      334762.107 6    195920.993 1
  21382284.789     -265480.488 7   -180923.373 2
  24496192.227      339389.245 5    198619.274 1
  23432098.633     -507150.727 5   -345674.405 1
  24337725.500     -397452.286 4   -193663.865 1
 90 10 11 11 59  0.0000000  0  6 02 18 06 11 13 09
  20777958.859       18046.236 7     12644.912 3
  22395062.508      376877.538 6    228738.208 1
  21375998.313     -298515.234 7   -206664.728 2
  24504309.930      382077.096 5    231882.490 1
  23420071.977     -570353.624 5   -394923.405 1
  24328259.148     -447206.297 4   -232433.204 1
 90 10 11 11 59 15.0000000  0  6 02 18 06 11 13 09
  20778384.727       20289.349 7     14392.795 3
  22403086.828      419051.888 6    261601.314 1
  21369719.484     -331515.742 7   -232379.411 2
  24512443.086      424822.658 5    265190.662 1
  23408052.539     -633513.044 5   -444138.492 1
  24318787.406     -496975.796 4   -271214.625 1
 90 10 11 11 59 30.0000000  0  6 02 18 06 11 13 09
  20778821.352       22580.906 7     16178.419 3
  22411124.938      461286.045 6    294511.049 1
  21363445.391     -364480.548 7   -258066.271 2
  24520589.859      467626.696 5    298544.453 1
  23396040.742     -696627.326 5   -493318.399 1
  24309315.531     -546759.765 4
 90 10 11 11 59 45.0000000  0  6 02 18 06 11 13 09
  20779267.797       24920.094 7     18001.160 3
  22419172.352      503578.670 6    327466.339 1
  21357179.133     -397410.273 7   -283725.787 2
  24528743.633      510488.083 5    331942.931 1
  23384041.508     -759696.621 6   -542463.270 1
  24299838.602     -596558.572 4
 90 10 11 12  0  0.0000000  0  6 02 18 06 11 13 09
  20779720.258       27304.637 7     19859.243 3
  22427230.766      545927.244 6    360465.222 1
  21350919.258     -430306.860 7   -309359.480 2
  24536911.852      553404.103 5    365383.945 1
  23372049.328     -822722.919 5   -591574.644 1
  24290355.406     -646374.533 4
 90 10 11 12  0 15.0000000  0  6 02 18 06 11 13 09
  20780183.445       29737.227 7     21754.770 3
  22435300.094      588334.225 6    393509.604 1
  21344666.094     -463167.402 7   -334965.092 2
  24545093.359      596377.218 5    398869.446 1
  23360063.297     -885703.031 5   -640650.061 1
  24280873.461     -696204.699 5
 90 10 11 12  0 30.0000000  0  6 02 18 06 11 13 09
  20780655.898       32217.182 7     23687.200 3
  22443382.742      630798.855 6    426598.917 1
  21338420.359     -495992.030 7   -360542.730 2
  24553280.055      639406.836 5    432399.045 1
  23348087.938     -948637.043 6   -689689.514 1
  24271389.773     -746049.442 4
 90 10 11 12  0 45.0000000  0  6 02 18 06 11 13 09
  20781136.625       34744.813 7     25656.779 3
  22451473.430      673320.944 6    459733.005 1
  21332180.320     -528780.280 7   -386092.008 2
  24561474.289      682492.625 5    465972.455 1
  23336117.547    -1011524.364 6   -738692.577 1
  24261903.219     -795908.360 4
 90 10 11 12  1  0.0000000  0  6 02 18 06 11 13 09
  20781627.109       37321.142 7     27664.311 3
  22459575.273      715901.248 6    492912.442 1
  21325947.938     -561530.929 7   -411611.989 2
  24569687.328      725635.173 5    499590.056 1
  23324165.102    -1074363.505 6   -787658.126 1
  24252411.320     -845780.374 4        -0.40911
 90 10 11 12  1 15.0000000  0  6 02 18 06 11 13 09
  20782125.883       39947.630 7     29710.927 3
  22467688.602      758540.804 6    526138.066 1
  21319722.797     -594242.093 7   -437101.197 2
  24577908.469      768835.641 5    533252.765 1
  23312213.391    -1137152.764 6   -836584.755 1
  24242917.742     -895663.690 4    -38870.524 1
 90 10 11 12  1 30.0000000  0  6 02 18 06 11 13 09
  20782635.586       42619.937 7     31793.245 3
  22475813.930      801235.196 6    559406.415 1
  21313505.617     -626917.862 7   -462562.840 2
  24586139.500      812089.607 5    566957.181 1
  23300273.164    -1199895.837 5   -885475.451 1
  24233424.898     -945562.543 5    -77752.737 1
 90 10 11 12  1 45.0000000  0  6 02 18 06 11 13 09
  20783151.898       45340.766 7     33913.374 3
  22483950.563      843986.698 6    592719.268 1
  21307295.031     -659555.225 7   -487994.545 2
  24594381.031      855399.465 5    600705.102 1
  23288344.414    -1262589.639 6   -934327.713 1
  24223927.391     -995473.930 4   -116644.740 1
 90 10 11 12  2  0.0000000  0  6 02 18 06 11 13 09
  20783682.984       48113.663 7     36074.075 3
  22492099.430      886799.172 6    626079.634 1
  21301090.961     -692149.923 7   -513392.998 2
  24602631.867      898768.738 5    634499.375 1
  23276420.758    -1325229.881 6   -983138.253 1
  24214418.203    -1045393.801 3
 90 10 11 12  2 15.0000000  0  6 02 18 06 11 13 09
  20784216.703       50931.899 7     38270.099 3
  22500254.180      929665.329 6    659481.829 1
  21294896.281     -724708.599 7   -538763.394 2
  24610896.250      942190.209 5    668334.277 1
  23264513.875    -1387823.027 6  -1031912.112 1
  24204923.797    -1095328.825 4
 90 10 11 12  2 30.0000000  0  6 02 18 06 11 13 09
  20784763.016       53801.133 7     40505.862 3
  22508423.570      972590.288 6    692929.837 1
  21288709.344     -757225.505 7   -564101.237 2
  24619167.383      985669.186 5    702214.010 1
  23252610.836    -1450363.020 6  -1080644.523 1
  24195421.930    -1145273.332 4
 90 10 11 12  2 45.0000000  0  6 02 18 06 11 13 09
  20785317.406       56719.614 7     42779.998 3
  22516600.836     1015571.704 6    726421.854 1
  21282528.258     -789701.938 7   -589407.536 2
  24627452.703     1029203.606 5    736136.974 1
  23240722.828    -1512851.250 6  -1129336.616 1
  24185913.047    -1195229.015 3        -0.01911
 90 10 11 12  3  0.0000000  0  6 02 18 06 11 13 09
  20785883.430       59686.965 7     45092.225 3
  22524790.898     1058609.426 6    759957.733 1
  21276355.930     -822137.927 7   -614682.329 2
  24635748.211     1072792.928 5    770102.658 1
  23228838.789    -1575287.507 6  -1177988.207 1
  24176405.875    -1245195.697 4    -38935.079 1
 90 10 11 12  3 15.0000000  0  6 02 18 06 11 13 09
  20786457.328       62701.826 7     47441.471 3
  22532991.953     1101701.915 6    793536.286 1
  21270191.234     -854534.520 7   -639926.420 2
  24644053.180     1116435.506 5    804109.898 1
  23216968.547    -1637672.511 6  -1226599.863 1
  24166892.063    -1295174.630 4    -77879.736 1
 90 10 11 12  3 30.0000000  0  6 02 18 06 11 13 09
  20787040.516       65765.859 7     49829.030 3
  22541202.117     1144850.258 6    827158.357 1
  21264032.023     -886889.881 7   -665138.382 2
  24652365.375     1160132.565 5    838159.580 1
  23205106.125    -1700004.542 6  -1275170.216 1
  24157377.969    -1345164.075 3   -116832.499 1
 90 10 11 12  3 45.0000000  0  6 02 18 06 11 13 09
  20787631.797       68878.052 7     52254.118 3
  22549424.586     1188053.240 6    860823.000 1
  21257885.047     -919204.615 7   -690318.693 2
  24660695.328     1203882.825 5    872250.732 1
  23193253.125    -1762284.120 6  -1323699.727 1
  24147868.031    -1395164.816 4   -155794.142 1
 90 10 11 12  4  0.0000000  0  6 02 18 06 11 13 09
  20788234.781       72037.028 7     54715.663 3
  22557657.422     1231309.413 6    894529.102 1
  21251741.891     -951479.691 7   -715468.099 2
  24669027.727     1247684.760 5    906382.102 1
  23181409.883    -1824511.917 5  -1372188.869 1
  24138349.586    -1445177.939 3   -194765.369 1
 90 10 11 12  4 15.0000000  0  6 02 18 06 11 13 09
  20788842.508       75242.260 7     57213.247 3
  22565896.375     1274617.935 6    928276.002 1
  21245609.492     -983715.188 7   -740586.656 2
  24677372.242     1291537.616 5    940553.205 1
  23169582.500    -1886687.877 6  -1420637.657 1
  24128828.688    -1495203.661 3   -233746.500 1
 90 10 11 12  4 30.0000000  0  6 02 18 06 11 13 09
  20789460.805       78493.138 7     59746.398 3
  22574147.750     1317977.996 6    962063.051 1
  21239482.906    -1015911.527 7   -765674.717 2
  24685727.023     1335440.357 5    974763.119 1
  23157759.281    -1948812.305 5  -1469046.251 1
  24119306.555    -1545242.404 3   -272737.738 1
 90 10 11 12  4 45.0000000  0  6 02 18 06 11 13 09
  20790088.867       81789.178 7     62314.740 3
  22582409.984     1361388.427 6    995889.372 1
  21233363.805    -1048068.885 7   -790732.387 2
  24694087.555     1379392.304 5   1009011.381 1
  23145946.344    -2010885.402 5  -1517414.861 1
  24109783.242    -1595294.574 3   -311739.414 1
 90 10 11 12  5  0.0000000  0  6 02 18 06 11 13 09
  20790726.352       85134.112 7     64921.192 3
  22590680.617     1404852.947 6   1029757.825 1
  21227252.398    -1080183.349 7   -815756.642 2
  24702463.148     1423396.730 5   1043300.555 1
  23134142.563    -2072903.004 5  -1565740.218 1
  24100256.023    -1645356.288 3   -350748.539 1
 90 10 11 12  5 15.0000000  0  6 02 18 06 11 13 09
  20791371.695       88525.584 7     67563.896 3
  22598960.664     1448368.425 6   1063665.982 1
  21221148.641    -1112257.025 7   -840749.120 2
  24710842.172     1467451.027 5   1077628.553 1
  23122355.750    -2134867.238 5  -1614024.014 1
  24090726.047    -1695429.755 3   -389766.842 1
 90 10 11 12  5 30.0000000  0  6 02 18 06 11 13 09
  20792024.563       91963.507 7     70242.793 3
  22607250.711     1491934.927 6   1097613.902 1
  21215053.500    -1144289.537 7   -865709.505 2
  24719242.750     1511554.856 5   1111995.205 1
  23110572.969    -2196777.348 6  -1662265.595 1
  24081197.437    -1745514.776 4   -428794.112 1
 90 10 11 12  5 45.0000000  0  6 02 18 06 11 13 09
  20792687.625       95447.661 7     72957.712 3
  22615550.813     1535551.975 6   1131601.218 1
  21208964.461    -1176280.849 7   -890637.795 2
  24727645.891     1555707.668 5   1146400.004 1
  23098802.680    -2258633.322 6  -1710465.031 1
  24071665.500    -1795611.364 4   -467830.411 1
 90 10 11 12  6  0.0000000  0  6 02 18 06 11 13 09
  20793361.109       98975.564 7     75706.734 3
  22623861.320     1579216.497 6   1165625.518 1
  21202884.719    -1208233.103 7   -915535.650 2
  24736052.547     1599906.565 5   1180840.713 1
  23087042.172    -2320437.135 6  -1758623.814 1
  24062133.938    -1845721.950 4   -506877.627 1
 90 10 11 12  6 15.0000000  0  6 02 18 06 11 13 09
  20794039.305      102551.768 7     78493.380 3
  22632177.445     1622932.790 6   1199690.145 1
  21196812.773    -1240141.600 7   -940399.398 2
  24744475.625     1644155.918 5   1215320.716 1
  23075291.125    -2382183.763 6  -1806738.065 1
  24052594.578    -1895841.500 4   -545931.823 1
 90 10 11 12  6 30.0000000  0  6 02 18 06 11 13 09
  20794729.859      106176.753 7     81318.039 3
  22640505.773     1666701.520 6   1233795.645 1
  21190749.141    -1272005.195 7   -965228.172 2
  24752901.727     1688456.154 5   1249840.394 1
  23063553.219    -2443872.067 6  -1854806.806 1
  24043053.000    -1945969.382 4   -584992.476 1
 90 10 11 12  6 45.0000000  0  6 02 18 06 11 13 09
  20795428.578      109848.880 7     84179.442 3
  22648846.563     1710520.469 6   1267940.268 1
  21184695.141    -1303825.122 7   -990022.908 2
  24761342.461     1732805.308 5   1284398.151 1
  23051824.180    -2505503.308 6  -1902831.143 1
  24033513.258    -1996106.841 4   -624060.642 1
 90 10 11 12  6 59.9990000  0  6 02 18 06 11 13 09
  20796136.073      113564.894 7     87075.041 3
  22657192.456     1754383.323 6   1302119.110 1
  21178647.354    -1335602.327 7  -1014784.364 2
  24769789.394     1777197.161 5   1318989.206 1
  23040106.808    -2567076.100 6  -1950809.897 1
  24023970.175    -2046253.510 4   -663135.954 1
 90 10 11 12  7 14.9990000  0  6 02 18 06 11 13 09
  20796852.230      117329.293 7     90008.345 3
  22665548.628     1798299.878 6   1336339.796 1
  21172609.058    -1367336.451 7  -1039512.243 2
  24778249.636     1821641.236 5   1353620.926 1
  23028401.073    -2628593.909 6  -1998745.795 1
  24014421.597    -2096411.852 4   -702220.355 1
 90 10 11 12  7 29.9990000  0  6 02 18 06 11 13 09
  20797575.792      121137.922 7     92976.109 3
  22673914.722     1842262.929 6   1370596.716 1
  21166577.354    -1399029.090 7  -1064207.812 2
  24786712.675     1866130.467 5   1388287.832 1
  23016703.823    -2690056.235 6  -2046638.483 1
  24004879.190    -2146582.195 4   -741314.133 1
 90 10 11 12  7 44.9990000  0  6 02 18 06 11 13 09
  20798307.987      124992.338 7     95979.547 3
  22682289.065     1886273.742 6   1404890.858 1
  21160555.394    -1430678.195 7  -1088869.436 2
  24795188.956     1910666.185 5   1422990.968 1
  23005021.644    -2751461.230 6  -2094486.503 1
  23995328.589    -2196762.735 4   -780415.869 1
 90 10 11 12  7 59.9990000  0  6 02 18 06 11 13 09
  20799052.550      128890.873 7     99017.364 3
  22690675.519     1930330.433 6   1439220.750 1
  21154540.081    -1462285.317 7  -1113498.360 2
  24803673.456     1955246.127 5   1457728.570 1
  22993345.394    -2812810.043 6  -2142290.748 1
  23985774.409    -2246954.980 4   -819526.696 1
 90 10 11 12  8 14.9990000  0  6 02 18 06 11 13 09
  20799801.479      132834.248 7    102090.119 3
  22699065.394     1974433.477 6   1473586.740 1
  21148533.730    -1493849.476 7  -1138093.800 2
  24812167.706     1999870.830 5   1492501.077 1
  22981681.347    -2874101.659 6  -2190050.405 1
  23976224.003    -2297158.080 4   -858645.996 1
 90 10 11 12  8 29.9990000  0  6 02 18 06 11 13 09
  20800560.206      136822.680 7    105197.987 3
  22707468.386     2018582.763 6   1507988.791 1
  21142534.417    -1525370.000 7  -1162655.246 2
  24820669.925     2044540.235 5   1527308.397 1
  22970031.839    -2935335.290 6  -2237764.889 1
  23966667.597    -2347371.584 4   -897773.422 1
 90 10 11 12  8 44.9990000  0  6 02 18 06 11 13 09
  20801329.261      140856.232 7    108341.021 3
  22715877.628     2062777.696 6   1542426.398 1
  21136545.276    -1556846.553 7  -1187182.423 2
  24829173.987     2089254.042 4   1562150.317 1
  22958387.206    -2996510.609 6  -2285433.936 1
  23957116.745    -2397595.263 5   -936908.732 1
 90 10 11 12  8 59.9990000  0  6 02 18 06 11 13 09
  20802104.167      144934.060 7    111518.545 3
  22724296.011     2107017.533 6   1576898.997 1
  21130563.229    -1588279.685 7  -1211675.765 2
  24837693.151     2134011.170 4   1597025.948 1
  22946755.448    -3057627.902 6  -2333057.761 1
  23947554.526    -2447829.523 5   -976052.331 1
 90 10 11 12  9 14.9990000  0  6 02 18 06 11 13 09
  20802889.347      149057.320 7    114731.480 3
  22732723.753     2151303.013 6   1611407.174 1
  21124591.362    -1619668.007 7  -1236134.188 2
  24846217.058     2178812.541 4   1631936.133 1
  22935137.565    -3118685.694 6  -2380635.247 1
  23937993.261    -2498073.292 5  -1015203.325 1
 90 10 11 12  9 29.9990000  0  6 02 18 06 11 13 09
  20803682.573      153225.577 7    117979.478 3
  22741160.175     2195633.125 6   1645950.170 1
  21118627.878    -1651011.294 7  -1260557.523 2
  24854752.011     2223657.404 4   1666880.168 1
  22923532.651    -3179683.732 6  -2428166.133 1
  23928429.878    -2548326.657 5  -1054361.778 1
 90 10 11 12  9 44.9990000  0  6 02 18 06 11 13 09
  20804484.448      157439.121 7    121262.761 3
  22749604.526     2240008.129 6   1680528.083 1
  21112670.456    -1682309.230 7  -1284945.511 2
  24863294.753     2268545.837 4   1701858.169 1
  22911935.386    -3240621.387 6  -2475649.996 1
  23918863.761    -2598589.016 5  -1093527.240 1
 90 10 11 12  9 59.9990000  0  6 02 18 06 11 13 09
  20805296.003      161698.074 7    124581.428 3
  22758057.862     2284428.050 6   1715141.009 1
  21106723.284    -1713561.370 7  -1309297.825 2
  24871844.003     2313477.627 4   1736869.892 1
  22900352.034    -3301498.216 6  -2523086.438 1
  23909297.604    -2648860.063 5  -1132699.498 1
 90 10 11 12 10 14.9990000  0  6 02 18 06 11 13 09
  20806114.315      166002.169 7    127935.268 3
  22766518.737     2328892.033 6   1749788.266 1
  21100785.487    -1744767.423 7  -1333614.226 2
  24880397.831     2358452.386 3   1771915.120 1
  22888776.815    -3362313.888 6  -2570475.235 1
  23899729.839    -2699139.788 5  -1171878.512 1
 90 10 11 12 10 29.9990000  0  6 02 18 06 11 13 09
  20806941.917      170350.009 7    131323.204 3
  22774985.933     2373398.681 6   1784468.758 1
  21094855.331    -1775928.439 7  -1357895.528 2
  24888965.308     2403468.423 3   1806992.535 1
  22877218.612    -3423069.262 6  -2617817.040 1
  23890158.214    -2749429.414 4  -1211065.243 1
 90 10 11 12 10 44.9990000  0  6 02 18 06 11 13 09
  20807777.237      174743.090 7    134746.385 3
  22783466.683     2417949.316 6   1819183.533 1
  21088935.276    -1807042.763 7  -1382140.451 2
  24897546.237     2448526.835 3   1842102.952 1
  22865669.144    -3483762.450 6  -2665110.405 1
  23880585.933    -2799727.181 4  -1250258.303 1
 90 10 11 12 10 59.9990000  0  6 02 18 06 11 13 09
  20808622.198      179180.806 7    138204.337 3
  22791950.472     2462542.606 6   1853931.548 1
  21083022.854    -1838110.665 7  -1406349.199 2
  24906130.917     2493626.515 4   1877245.517 1
  22854129.987    -3544393.740 6  -2712355.560 1
  23871017.917    -2850033.635 5  -1289458.124 1
 90 10 11 12 11 14.9990000  0  6 02 18 06 11 13 09
  20809473.815      183662.771 7    141696.781 3
  22800444.183     2507178.219 6   1888712.533 1
  21077118.933    -1869132.397 7  -1430521.975 2
  24914719.792     2538766.875 3   1912419.818 1
  22842605.815    -3604963.098 6  -2759552.439 1
  23861437.925    -2900348.920 4  -1328664.832 1
 90 10 11 12 11 29.9990000  0  6 02 18 06 11 13 09
  20810335.401      188187.044 7    145222.195 3
  22808948.269     2551853.566 6   1923524.495 1
  21071223.995    -1900109.335 7  -1454659.834 2
  24923309.839     2583945.806 3   1947624.106 1
  22831088.823    -3665472.060 6  -2806702.262 1
  23851866.339    -2950674.704 5  -1367879.737 1
 90 10 11 12 11 44.9990000  0  6 02 18 06 11 13 09
  20811205.573      192758.293 7    148784.205 3
  22817455.620     2596573.214 6   1958370.982 1
  21065339.683    -1931036.508 7  -1478758.918 2
  24931912.815     2629167.767 3   1982862.017 1
  22819589.081    -3725915.516 6  -2853801.014 1
  23842285.729    -3001006.158 5  -1407099.036 1
 90 10 11 12 11 59.9990000  0  6 02 18 06 11 13 09
  20812083.878      197372.706 7    152379.856 3
  22825974.948     2641333.106 6   1993248.813 1
  21059464.058    -1961917.528 7  -1502822.050 2
  24940526.073     2674428.541 3   2018130.127 1
  22808095.769    -3786296.899 6  -2900851.418 1
  23832710.183    -3051346.675 5  -1446325.403 1
 90 10 11 12 12 14.9990000  0  6 02 18 06 11 13 09
  20812970.104      202032.067 7    156010.517 3
  22834498.792     2686134.532 6   2028159.007 1
  21053596.198    -1992750.119 7  -1526847.439 2
  24949148.323     2719729.659 4   2053429.715 1
  22796619.542    -3846614.073 6  -2947851.777 1
  23823126.620    -3101694.366 5  -1485557.387 1
 90 10 11 12 12 29.9990000  0  5 02 18 06 13 09
  20813865.604      206735.661 7    159675.654 3
  22843032.120     2730976.461 6   2063100.737 1
  21047738.229    -2023534.757 7  -1550835.456 2
  22785154.112    -3906867.125 6  -2994802.176 1
  23813546.909    -3152049.845 4  -1524795.406 1
 90 10 11 12 12 44.9990000  0  5 02 18 06 13 09
  20814769.058      211483.682 7    163375.409 3
  22851575.128     2775858.962 6   2098074.118 1
  21041890.276    -2054270.967 7  -1574785.738 2
  22773698.565    -3967055.336 6  -3041702.043 1
  23803961.839    -3202412.445 4  -1564038.973 1
 90 10 11 12 12 59.9990000  0  5 02 18 06 13 09
  20815680.620      216272.543 7    167106.987 3
  22860121.065     2820778.339 6   2133076.228 1
  21036048.401    -2084961.898 7  -1598700.752 2
  22762261.706    -4027181.900 6  -3088553.868 1
  23794373.948    -3252785.715 4  -1603290.873 1
 90 10 11 12 13 14.9990000  0  5 02 18 06 13 09
  20816601.050      221106.747 7    170873.900 3
  22868677.370     2865738.346 6   2168109.998 1
  21030217.362    -2115602.804 7  -1622576.777 2
  22750830.440    -4087242.016 6  -3135353.935 1
  23784785.487    -3303164.952 4  -1642547.436 1
 90 10 11 12 13 29.9990000  0  5 02 18 06 13 09
  20817528.753      225985.296 7    174675.371 3
  22877238.925     2910738.058 6   2203174.689 1
  21024396.167    -2146194.380 7  -1646414.358 2
  22739414.534    -4147236.224 6  -3182102.628 1
  23775202.581    -3353550.747 5  -1681809.065 1
 90 10 11 12 13 44.9990000  0  5 02 18 06 13 09
  20818464.495      230907.742 7    178511.040 3
  22885811.081     2955776.575 6   2238269.626 1
  21018584.464    -2176736.774 7  -1670213.622 2
  22728008.519    -4207164.718 6  -3228800.138 1
  23765614.784    -3403943.577 5  -1721076.216 1
 90 10 11 12 13 59.9990000  0  5 02 18 06 13 09
  20819410.479      235876.470 7    182382.772 3
  22894388.862     3000856.120 6   2273396.540 1
  21012782.683    -2207227.159 7  -1693972.353 2
  22716619.472    -4267024.469 6  -3275444.049 1
  23756018.706    -3454340.819 4  -1760346.790 1
 90 10 11 12 14 14.9990000  0  5 02 18 06 13 09
  20820363.901      240886.115 7    186286.397 3
  22902971.995     3045971.182 6   2308551.129 1
  21006989.401    -2237670.473 7  -1717694.411 2
  22705236.714    -4326820.001 6  -3322037.948 1
  23746428.190    -3504747.132 4  -1799624.421 1
 90 10 11 12 14 29.9990000  0  5 02 18 06 13 09
  20821325.261      245939.764 7    190224.303 3
  22911565.651     3091124.348 6   2343735.416 1
  21001204.378    -2268063.470 7  -1741377.260 2
  22693872.081    -4386548.309 6  -3368579.432 1
  23736832.980    -3555159.552 4  -1838906.808 1
 90 10 11 12 14 44.9990000  0  5 02 18 06 13 09
  20822294.722      251034.730 7    194194.408 3
  22920166.425     3136312.649 6   2378947.070 1
  20995431.597    -2298408.654 7  -1765022.858 2
  22682520.269    -4446211.929 6  -3415070.539 1
  23727239.683    -3605580.622 5  -1878195.953 1
 90 10 11 12 14 59.9990000  0  5 02 18 06 13 09
  20823272.464      256172.518 7    198197.878 3
  22928771.565     3181537.570 6   2414187.278 1
  20989665.433    -2328703.651 7  -1788629.338 2
  22671178.839    -4505808.245 6  -3461509.176 1
  23717646.284    -3656008.298 5  -1917490.216 1
 90 10 11 12 15 14.9990000  0  5 02 18 06 13 09
  20824258.253      261352.788 7    202234.455 3
  22937380.878     3226797.908 6   2449455.073 1
  20983910.651    -2358948.999 7  -1812197.145 2
  22659853.448    -4565337.483 6  -3507895.571 1
  23708044.690    -3706443.076 4  -1956790.050 1
 90 10 11 12 15 29.9990000  0  5 02 18 06 13 09
  20825252.206      266577.546 7    206305.697 3
  22946003.886     3272095.513 6   2484751.918 1
  20978164.667    -2389142.239 7  -1835724.338 2
  22648536.909    -4624797.567 6  -3554228.094 1
  23698447.081    -3756882.558 4  -1996093.545 1
 90 10 11 12 15 44.9990000  0  5 02 18 06 13 09
  20826256.620      271846.304 7    210411.222 3
  22954633.269     3317429.824 6   2520077.368 1
  20972429.456    -2419283.557 7  -1859211.069 2
  22637234.823    -4684188.481 6  -3600506.726 1
  23688850.026    -3807327.094 4  -2035400.950 1
 90 10 11 12 15 59.9990000  0  5 02 18 06 13 09
  20827266.737      277157.320 7    214549.672 3
  22963263.440     3362798.707 6   2555429.744 1
  20966704.808    -2449374.476 7  -1882658.536 2
  22625944.636    -4743511.270 6  -3646732.272 1
  23679248.159    -3857778.175 5  -2074713.496 1
 90 10 11 12 16 14.9990000  0  5 02 18 06 13 09
  20828286.737      282511.613 7    218721.846 3
  22971906.339     3408202.465 6   2590809.306 1
  20960987.058    -2479413.741 7  -1906065.748 2
  22614669.972    -4802764.672 6  -3692903.745 1
  23669648.933    -3908234.731 5  -2114030.280 1
 90 10 11 12 16 29.9990000  0  5 02 18 06 13 09
  20829310.737      287909.690 7    222928.145 3
  22980549.269     3453641.680 6   2626216.473 1
  20955279.784    -2509400.241 7  -1929431.839 2
  22603408.706    -4861947.524 6  -3739020.240 1
  23660044.917    -3958695.870 5  -2153350.627 1
 90 10 11 12 16 44.9990000  0  5 02 18 06 13 09
  20830347.011      293348.299 7    227166.025 3
  22989206.104     3499112.901 6   2661648.594 1
  20949583.745    -2539337.123 7  -1952759.271 2
  22592158.925    -4921062.686 6  -3785083.996 1
  23650437.933    -4009164.573 5  -2192676.891 1
 90 10 11 12 16 59.9990000  0  5 02 18 06 13 09
  20831389.386      298827.610 7    231435.623 3
  22997864.972     3544616.147 6   2697105.661 1
  20943895.940    -2569223.367 7  -1976047.257 2
  22580924.534    -4980109.461 6  -3831094.452 1
  23640831.862    -4059640.033 5  -2232008.403 1
 90 10 11 12 17 14.9990000  0  5 02 18 06 13 09
  20832440.331      304351.032 7    235739.579 3
  23006529.315     3590154.220 6   2732589.863 1
  20938220.511    -2599055.655 7  -1999293.185 2
  22569698.339    -5039084.347 6  -3877048.917 1
  23631232.331    -4110119.152 5  -2271342.787 1
 90 10 11 12 17 29.9990000  0  5 02 18 06 13 09
  20833502.206      309921.165 7    240079.942 3
  23015203.409     3635729.481 6   2768103.044 1
  20932553.292    -2628830.996 7  -2022494.743 2
  22558492.175    -5097984.288 6  -3922944.944 1
  23621620.214    -4160598.935 5  -2310677.684 1
 90 10 11 12 17 44.9990000  0  5 02 18 06 13 09
  20834570.175      315535.248 7    244454.561 3
  23023881.401     3681338.996 6   2803642.926 1
  20926899.003    -2658551.793 7  -2045653.801 2
  22547297.972    -5156811.670 6  -3968784.440 1
  23612015.456    -4211081.905 5  -2350015.079 1
 90 10 11 12 17 59.9990000  0  5 02 18 06 13 09
  20835644.870      321191.780 7    248862.245 3
  23032564.722     3726980.848 6   2839207.985 1
  20921252.792    -2688219.358 7  -2068771.381 2
  22536116.925    -5215567.612 6  -4014568.255 1
  23602408.073    -4261569.349 5  -2389355.906 1
 90 10 11 12 18 14.9990000  0  5 02 18 06 13 09
  20836730.675      326891.759 7    253303.782 3
  23041257.550     3772655.621 6   2874798.717 1
  20915617.315    -2717832.430 7  -2091846.498 2
  22524950.487    -5274250.439 6  -4060295.126 1
  23592802.331    -4312060.216 5  -2428699.429 1
 90 10 11 12 18 29.9990000  0  5 02 18 06 13 09
  20837822.409      332632.844 7    257777.361 3
  23049954.847     3818360.928 6   2910413.220 1
  20909993.394    -2747392.804 7  -2114880.547 2
  22513795.339    -5332862.098 6  -4105966.526 1
  23583192.065    -4362556.319 5  -2468047.044 1
 90 10 11 12 18 44.9990000  0  5 02 18 06 13 09
  20838924.855      338415.997 7    262283.711 3
  23058655.620     3864097.329 6   2946051.963 1
  20904377.472    -2776899.143 7  -2137872.492 2
  22502654.792    -5391401.392 6  -4151581.528 1
  23573581.894    -4413056.404 5  -2507397.756 1
 90 10 11 12 18 59.9990000  0  5 02 18 06 13 09
  20840031.425      344241.498 7    266823.061 3
  23067367.980     3909864.716 6   2981714.845 1
  20898773.065    -2806351.050 7  -2160822.025 2
  22491530.206    -5449867.590 6  -4197139.579 1
  23563969.534    -4463560.236 5  -2546751.390 1
 90 10 11 12 19 14.9990000  0  5 02 18 06 13 09
  20841149.870      350112.884 7    271398.156 3
  23076082.206     3955666.342 6   3017404.419 1
  20893179.495    -2835744.606 7  -2183726.091 2
  22480420.792    -5508256.718 6  -4242637.587 1
  23554361.534    -4514064.012 5  -2586104.971 1
 90 10 11 12 19 29.9990000  0  5 02 18 06 13 09
  20842275.862      356028.725 7    276007.901 3
  23084806.526     4001500.469 5   3053119.313 1
  20887596.987    -2865080.727 7  -2206585.399 2
  22469321.792    -5566569.738 6  -4288076.283 1
  23544746.409    -4564568.731 5  -2625459.280 1
 90 10 11 12 19 44.9990000  0  5 02 18 06 13 09
  20843409.683      361988.735 7    280652.077 3
  23093532.230     4047366.469 6   3088859.031 1
  20882025.995    -2894359.708 7  -2229400.182 2
  22458240.222    -5624806.681 6  -4333455.690 1
  23535137.737    -4615074.760 5  -2664814.607 1
 90 10 11 12 19 59.9990000  0  5 02 18 06 13 09
  20844550.792      367989.981 7    285328.370 3
  23102267.479     4093261.018 6   3124621.023 1
  20876464.128    -2923584.112 7  -2252172.443 2
  22447172.370    -5682970.113 6  -4378777.825 1
  23525529.042    -4665584.576 5  -2704172.911 1
 90 10 11 12 20 14.9990000  0  5 02 18 06 13 09
  20845702.019      374032.912 7    290037.146 3
  23111006.526     4139184.520 6   3160405.554 1
  20870913.011    -2952752.889 7  -2274901.347 2
  22436118.284    -5741058.856 6  -4424041.762 1
  23515913.378    -4716097.511 5  -2743533.646 1
 90 10 11 12 20 29.9990000  0  5 02 18 06 13 09
  20846859.604      380120.740 7    294780.910 3
  23119750.378     4185139.822 6   3196214.871 1
  20865372.979    -2981862.633 7  -2297584.261 2
  22425078.136    -5799069.435 6  -4469244.781 1
  23506304.026    -4766610.058 5  -2782894.046 1
 90 10 11 12 20 44.9990000  0  5 02 18 06 13 09
  20848024.370      386249.659 7    299556.688 3
  23128500.722     4231122.973 6   3232045.875 1
  20859844.886    -3010916.732 7  -2320223.812 2
  22414054.519    -5857005.188 6  -4514389.503 1
  23496691.550    -4817125.623 5  -2822256.834 1
 90 10 11 12 20 59.9990000  0  5 02 18 06 13 09
  20849200.917      392425.242 7    304368.838 3
  23137259.792     4277139.384 6   3267902.808 1
  20854330.011    -3039909.315 7  -2342815.426 2
  22403044.948    -5914860.021 6  -4559471.160 1
  23487078.315    -4867638.593 5  -2861617.586 1
 90 10 11 12 21 14.9990000  0  5 02 18 06 13 09
  20850383.706      398642.523 7    309213.465 3
  23146021.948     4323183.330 6   3303781.211 1
  20848820.065    -3068845.075 7  -2365362.755 2
  22392051.808    -5972638.690 6  -4604493.484 1
  23477465.229    -4918153.961 5  -2900980.181 1
 90 10 11 12 21 29.9990000  0  5 02 18 06 13 09
  20851577.206      404903.451 7    314092.102 3
  23154787.597     4369256.503 6   3339682.372 1
  20843327.440    -3097721.778 7  -2387864.084 2
  22381069.604    -6030339.020 6  -4649454.756 1
  23467852.558    -4968669.258 5  -2940342.749 1
 90 10 11 12 21 44.9990000  0  5 02 18 06 13 09
  20852774.823      411205.948 7    319003.143 3
  23163559.558     4415356.486 6   3375604.443 1
  20837842.339    -3126541.260 7  -2410320.822 2
  22370104.331    -6087962.501 6  -4694356.138 1
  23458239.511    -5019186.311 5  -2979706.665 1
 90 10 11 12 21 59.9990000  0  5 02 18 06 13 09
  20853981.526      417549.641 7    323946.286 3
  23172339.815     4461482.869 6   3411547.057 1
  20832368.784    -3155303.232 7  -2432732.745 2
  22359153.347    -6145509.137 6  -4739197.649 1
  23448624.433    -5069705.209 5  -3019072.034 1
 90 10 11 12 22 14.9990000  0  5 02 18 06 13 09
  20855198.104      423932.795 7    328920.174 3
  23181119.722     4507633.691 6   3447508.728 1
  20826907.245    -3184009.323 7  -2455101.115 2
  22348219.612    -6202980.251 6  -4783980.313 1
  23439012.472    -5120227.590 5  -3058440.125 1
 90 10 11 12 22 29.9990000  0  5 02 18 06 13 09
  20856418.909      430358.435 7    333927.162 3
  23189908.597     4553811.222 6   3483491.228 1
  20821455.667    -3212656.319 7  -2477423.446 3
  22337296.425    -6260372.372 6  -4828701.417 1
  23429397.386    -5170750.269 5  -3097808.438 1
 90 10 11 12 22 44.9990000  0  5 02 18 06 13 09
  20857651.167      436829.518 7    338969.564 3
  23198699.714     4600018.474 6   3519496.864 1
  20816016.347    -3241240.637 7  -2499696.933 2
  22326391.948    -6317682.005 6  -4873358.247 1
  23419784.401    -5221269.751 5  -3137174.272 1
 90 10 11 12 22 59.9990000  0  5 02 18 06 13 09
  20858888.854      443344.168 7    344045.914 3
  23207498.378     4646253.295 6   3555523.989 1
  20810589.136    -3269763.957 7  -2521922.890 2
  22315499.714    -6374911.199 6  -4917952.407 1
  23410173.683    -5271787.852 5  -3176539.030 1
 90 10 11 12 23 14.9990000  0  5 02 18 06 13 09
  20860138.729      449898.489 7    349153.183 3
  23216300.237     4692511.270 5   3591569.156 1
  20805171.753    -3298230.067 7  -2544104.269 2
  22304624.409    -6432063.339 6  -4962486.542 1
  23400557.347    -5322308.325 5  -3215905.609 1
 90 10 11 12 23 29.9990000  0  5 02 18 06 13 09
  20861393.753      456496.741 7    354294.677 3
  23225109.792     4738796.295 6   3627635.405 1
  20799766.917    -3326634.283 7  -2566237.422 2
  22293762.120    -6489133.476 6  -5006956.778 1
  23390939.144    -5372826.676 5  -3255270.535 1
 90 10 11 12 23 44.9990000  0  5 02 18 06 13 09
  20862656.870      463135.751 7    359467.944 3
  23233916.839     4785104.856 5   3663719.983 1
  20794374.151    -3354979.356 7  -2588324.486 2
  22282920.933    -6546124.181 6  -5051365.110 1
  23381330.089    -5423345.705 5  -3294636.016 1
 90 10 11 12 23 59.9990000  0  5 02 18 06 13 09
  20863928.956      469818.046 7    364674.918 3
  23242739.558     4831439.166 6   3699824.618 1
  20788990.792    -3383262.348 7  -2610363.172 2
  22272090.776    -6603032.680 6  -5095709.383 1
  23371718.581    -5473862.660 5  -3333999.859 1
 90 10 11 12 24 14.9990000  0  5 02 18 06 13 09
  20865207.620      476542.755 7    369914.940 3
  23251560.675     4877798.457 6   3735948.738 1
  20783618.862    -3411483.892 7  -2632353.975 2
  22261276.198    -6659859.495 6  -5139989.994 1
  23362107.628    -5524378.049 5  -3373362.483 1
 90 10 11 12 24 29.9990000  0  5 02 18 06 13 09
  20866495.214      483309.339 7    375187.599 3
  23260384.886     4924181.720 5   3772091.530 1
  20778262.323    -3439644.324 7  -2654297.165 2
  22250477.050    -6716604.824 6  -5184207.120 1
  23352490.972    -5574892.377 5  -3412724.296 1
 90 10 11 12 24 44.9990000  0  5 02 18 06 13 09
  20867791.089      490118.991 7    380493.820 3
  23269218.167     4970589.525 5   3808253.448 1
  20772914.659    -3467741.980 7  -2676191.435 2
  22239695.823    -6773267.195 6  -5228359.601 1
  23342882.011    -5625404.122 5  -3452084.078 1
 90 10 11 12 24 59.9990000  0  5 02 18 06 13 09
  20869095.620      496966.329 7    385829.409 3
  23278050.870     5017016.381 5   3844430.219 1
  20767578.425    -3495781.812 7  -2698040.650 2
  22228928.034    -6829851.395 6  -5272451.165 1
  23333269.550    -5675918.380 5  -3491445.834 1
 90 10 11 12 25 14.9990000  0  5 02 18 06 13 09
  20870406.058      503858.542 7    391199.960 3
  23286896.706     5063469.422 5   3880627.383 1
  20762255.612    -3523756.495 7  -2719839.099 3
  22218175.183    -6886349.933 6  -5316475.996 1
  23323658.854    -5726427.680 5  -3530803.710 1
 90 10 11 12 25 29.9990000  0  5 02 18 06 13 09
  20871725.003      510791.658 7    396602.393 3
  23295735.394     5109944.140 5   3916841.434 1
  20756942.659    -3551669.651 7  -2741589.597 2
  22207440.370    -6942766.404 6  -5360436.863 1
  23314046.089    -5776935.949 5  -3570160.796 1
 90 10 11 12 25 44.9990000  0  5 02 18 06 13 09
  20873052.495      517764.856 7    402036.055 3
  23304580.675     5156439.521 5   3953071.583 1
  20751641.425    -3579521.812 7  -2763292.582 2
  22196720.097    -6999101.467 6  -5404334.288 1
  23304431.675    -5827443.763 5  -3609517.520 1
 90 10 11 12 25 59.9990000  0  5 02 18 06 13 09
  20874387.104      524778.515 7    407501.241 3
  23313432.854     5202955.582 5   3989317.844 1
  20746355.120    -3607312.260 7  -2784947.469 2
  22186017.917    -7055354.025 6  -5448167.440 1
  23294821.979    -5877950.258 5  -3648873.219 1
 90 10 11 12 26 14.9990000  0  5 02 18 06 13 09
  20875729.526      531833.193 7    412998.391 3
  23322288.597     5249492.620 5   4025580.419 1
  20741078.003    -3635039.777 7  -2806553.324 2
  22175329.011    -7111523.086 6  -5491935.514 1
  23285212.550    -5928454.651 5  -3688227.305 1
 90 10 11 12 26 29.9990000  0  5 02 18 06 13 09
  20877082.347      538931.137 7    418529.253 3
  23331149.964     5296052.418 5   4061860.744 1
  20735815.636    -3662702.116 7  -2828108.395 2
  22164655.542    -7167606.080 6  -5535636.534 1
  23275601.784    -5978954.478 5  -3727577.796 1
 90 10 11 12 26 44.9990000  0  5 02 18 06 13 09
  20878438.722      546070.264 7    424092.210 3
  23340014.230     5342632.663 5   4098157.021 1
  20730562.706    -3690301.111 7  -2849614.094 2
  22153999.448    -7223604.909 6  -5579271.962 1
  23265991.644    -6029451.756 5  -3766926.309 1
 90 10 11 12 26 59.9990000  0  5 02 18 06 13 09
  20879806.519      553251.543 7    429688.012 3
  23348879.534     5389233.936 5   4134469.687 1
  20725322.683    -3717835.317 7  -2871069.311 2
  22143360.464    -7279517.987 7  -5622840.576 1
  23256383.878    -6079945.056 5  -3806271.725 1
 90 10 11 12 27 14.9990000  0  5 02 18 06 13 09
  20881180.800      560476.513 7    435317.856 3
  23357753.136     5435857.868 5   4170800.007 1
  20720096.651    -3745302.811 7  -2892472.550 2
  22132734.901    -7335343.399 6  -5666340.885 1
  23246776.706    -6130432.706 5  -3845612.749 1
 90 10 11 12 27 29.9990000  0  5 02 18 06 13 09
  20882562.815      567739.826 7    440977.577 3
  23366630.136     5482498.395 5   4207143.281 1
  20714881.362    -3772708.623 7  -2913827.726 2
  22122128.737    -7391086.170 6  -5709776.798 1
  23237166.519    -6180919.621 5  -3884953.177 1
 90 10 11 12 27 44.9990000  0  5 02 18 06 13 09
  20883953.362      575043.694 7    446668.900 3
  23375509.519     5529157.747 5   4243501.210 1
  20709677.089    -3800050.406 7  -2935133.012 2
  22111537.745    -7446743.861 6  -5753146.404 1
  23227559.526    -6231403.455 5  -3924291.216 1
 90 10 11 12 27 59.9990000  0  5 02 18 06 13 09
  20885349.034      582389.880 7    452393.206 3
  23384394.003     5575836.730 5   4279874.426 1
  20704486.511    -3827326.099 7  -2956386.790 2
  22100964.284    -7502314.265 6  -5796448.004 1
  23217954.870    -6281882.393 5  -3963625.450 1
 90 10 11 12 28 14.9990000  0  5 02 18 06 13 09
  20886756.159      589777.563 7    458149.835 3
  23393277.339     5622534.626 5   4316262.379 1
  20699309.456    -3854536.163 7  -2977589.437 3
  22090404.511    -7557797.941 6  -5839682.020 1
  23208351.284    -6332357.147 5  -4002956.415 1
 90 10 11 12 28 29.9990000  0  5 02 18 06 13 09
  20888167.987      597203.708 7    463936.445 3
  23402167.706     5669248.172 5   4352662.534 1
  20694142.776    -3881683.114 7  -2998742.899 2
  22079862.753    -7613197.342 6  -5882850.363 1
  23198746.683    -6382829.956 5  -4042285.879 1
 90 10 11 12 28 44.9990000  0  5 02 18 06 13 09
  20889589.761      604669.376 7    469753.852 3
  23411061.042     5715977.993 5   4389075.375 1
  20688990.995    -3908765.505 7  -3019846.055 2
  22069337.073    -7668511.124 7  -5925951.996 1
  23189144.034    -6433299.657 5  -4081612.899 1
 90 10 11 12 28 59.9990000  0  5 02 18 06 13 09
  20891017.683      612176.795 7    475603.789 3
  23419953.847     5762726.199 5   4425502.557 1
  20683849.542    -3935781.055 7  -3040897.120 2
  22058827.987    -7723736.624 7  -5968984.830 1
  23179539.839    -6483763.967 5  -4120935.736 1
 90 10 11 12 29 14.9990000  0  5 02 18 06 13 09
  20892452.628      619725.847 7    481486.174 3
  23428854.940     5809492.257 5   4461943.642 1
  20678721.276    -3962729.352 7  -3061895.786 2
  22048334.706    -7778873.478 7  -6011948.608 1
  23169941.128    -6534222.607 5  -4160254.134 1
 90 10 11 12 29 29.9990000  0  5 02 18 06 13 09
  20893898.401      627315.706 7    487400.347 3
  23437760.823     5856274.826 5   4498397.569 1
  20673605.011    -3989611.080 7  -3082842.593 2
  22037859.870    -7833922.399 7  -6054843.842 1
  23160338.081    -6584676.196 5  -4199568.605 1
 90 10 11 12 29 44.9990000  0  5 02 18 06 13 09
  20895352.472      634947.543 7    493347.233 3
  23446664.354     5903074.867 5   4534865.114 1
  20668503.651    -4016424.643 7  -3103736.271 2
  22027401.050    -7888881.829 7  -6097669.369 1
  23150737.050    -6635123.407 5  -4238878.126 1
 90 10 11 12 29 59.9990000  0  5 02 18 06 13 09
  20896811.909      642625.596 7    499330.135 3
  23455570.565     5949896.406 5   4571349.436 1
  20663414.151    -4043165.541 7  -3124573.327 2
  22016960.589    -7943747.062 7  -6140421.484 1
  23141141.206    -6685559.630 5  -4278179.067 1
 90 10 11 12 30 14.9990000  0  5 02 18 06 13 09
  20898280.940      650340.613 7    505341.836 3
  23464484.050     5996730.022 5   4607843.162 1
  20658337.464    -4069842.471 7  -3145360.537 2
  22006535.620    -7998526.716 6  -6183106.918 1
  23131542.229    -6735993.661 5  -4317478.293 1
 90 10 11 12 30 29.9990000  0  5 02 18 06 13 09
  20899756.245      658096.121 7    511385.082 3
  23473399.917     6043578.924 5   4644348.791 1
  20653274.237    -4096451.834 7  -3166095.100 2
  21996128.628    -8053217.029 6  -6225722.728 1
  23121943.378    -6786421.930 5  -4356773.037 1
 90 10 11 12 30 44.9990000  0  5 02 18 06 13 09
  20901240.394      665892.908 7    517460.504 3
  23482318.995     6090443.404 5   4680866.569 1
  20648224.479    -4122992.580 7  -3186776.199 2
  21985738.651    -8107817.137 7  -6268268.249 1
  23112351.339    -6836843.519 5  -4396062.572 1
 90 10 11 12 30 59.9990000  0  5 02 18 06 13 09
  20902730.378      673731.325 7    523568.362 3
  23491239.472     6137323.712 5   4717396.679 1
  20643188.104    -4149463.748 7  -3207403.077 2
  21975365.495    -8162326.259 6  -6310742.883 1
  23102755.737    -6887257.628 5  -4435346.277 1
 90 10 11 12 31 14.9990000  0  5 02 18 06 13 09
  20904232.378      681608.880 7    529706.720 3
  23500162.948     6184216.670 5   4753936.644 1
  20638162.636    -4175867.796 7  -3227977.661 2
  21965008.948    -8216746.547 6  -6353148.280 1
  23093162.636    -6937666.733 5  -4474626.097 1
 90 10 11 12 31 29.9990000  0  5 02 18 06 13 09
  20905737.097      689525.872 7    535875.803 3
  23509087.808     6231122.485 5   4790486.620 1
  20633150.464    -4202203.904 7  -3248499.304 2
  21954672.003    -8271077.100 6  -6395483.757 1
  23083574.104    -6988070.071 5  -4513901.413 1
 90 10 11 12 31 44.9990000  0  5 02 18 06 13 09
  20907251.440      697485.180 7    542077.859 3
  23518016.651     6278043.819 5   4827048.666 1
  20628152.183    -4228468.837 7  -3268965.478 2
  21944351.964    -8325314.673 6  -6437746.783 1
  23073983.370    -7038464.445 5  -4553169.740 1
 90 10 11 12 31 59.9990000  0  5 02 18 06 13 09
  20908774.628      705487.613 7    548313.519 3
  23526952.894     6324981.112 5   4863623.169 1
  20623169.714    -4254661.612 7  -3289375.433 2
  21934046.823    -8379458.053 6  -6479936.412 1
  23064396.854    -7088849.046 5  -4592430.455 1
 90 10 11 12 32 14.9990000  0  5 02 18 06 13 09
  20910306.308      713530.315 7    554580.554 3
  23535881.714     6371931.041 5   4900207.526 1
  20618198.112    -4280784.854 7  -3309731.198 2
  21923762.769    -8433510.073 6  -6522054.856 1
  23054809.573    -7139226.279 5  -4631685.435 1
 90 10 11 12 32 29.9990000  0  5 02 18 06 13 09
  20911843.792      721613.068 7    560878.799 3
  23544822.183     6418893.091 5   4936801.323 1
  20613238.487    -4306838.248 7  -3330032.538 2
  21913494.034    -8487470.269 6  -6564101.747 1
  23045224.894    -7189596.096 5  -4670934.623 1
 90 10 11 12 32 44.9990000  0  5 02 18 06 13 09
  20913389.940      729738.368 7    567210.204 3
  23553759.948     6465869.522 5   4973406.314 1
  20608296.542    -4332819.082 7  -3350277.332 2
  21903241.776    -8541335.900 6  -6606074.945 1
  23035644.425    -7239955.926 5  -4710176.041 1
 90 10 11 12 32 59.9990000  0  5 02 18 06 13 09
  20914944.253      737907.876 7    573576.052 3
  23562703.050     6512861.936 5   5010023.770 1
  20603365.229    -4358725.103 7  -3370463.833 2
  21893010.300    -8595104.734 6  -6647972.722 1
  23026058.831    -7290303.490 5  -4749407.883 1
 90 10 11 12 33 14.9990000  0  5 02 18 06 13 09
  20916506.472      746117.003 7    579972.771 3
  23571653.058     6559865.045 5   5046649.558 1
  20598449.487    -4384561.029 7  -3390595.724 2
  21882796.253    -8648781.289 6  -6689798.593 1
  23016481.644    -7340643.463 5  -4788633.841 1
 90 10 11 12 33 29.9990000  0  5 02 18 06 13 09
  20918079.284      754369.584 7    586403.347 3
  23580594.511     6606882.466 5   5083286.477 1
  20593546.979    -4410322.618 7  -3410669.688 2
  21872600.979    -8702361.425 6  -6731549.330 1
  23006904.120    -7390971.735 5  -4827850.664 1
 90 10 11 12 33 44.9990000  0  5 02 18 06 13 09
  20919654.886      762662.724 7    592865.530 3
  23589546.839     6653910.927 5   5119931.999 1
  20588658.253    -4436012.291 7  -3430687.618 2
  21862424.464    -8755847.513 7  -6773226.791 1
  22997327.120    -7441290.892 5  -4867060.382 1
 90 10 11 12 33 59.9990000  0  5 02 18 06 13 09
  20921240.120      770997.707 7    599360.321 3
  23598497.269     6700951.327 5   5156586.884 1
  20583783.503    -4461628.500 7  -3450648.297 3
  21852262.722    -8809237.963 7  -6814829.728 1
  22987757.425    -7491599.348 5  -4906261.766 1
 90 10 11 12 34 14.9990000  0  5 02 18 06 13 09
  20922834.315      779372.661 7    605886.261 3
  23607448.253     6748001.732 5   5193249.518 1
  20578922.886    -4487172.990 7  -3470553.092 2
  21842122.565    -8862534.439 7  -6856359.429 1
  22978183.003    -7541898.822 5  -4945456.144 1
 90 10 11 12 34 29.9990000  0  5 02 18 06 13 09
  20924436.245      787788.290 7    612443.889 3
  23616404.706     6795062.625 5   5229920.326 1
  20574074.886    -4512644.504 7  -3490401.018 2
  21831997.542    -8915735.792 7  -6897815.017 1
  22968614.105    -7592188.189 5  -4984642.656 1
 90 10 11 12 34 44.9990000  0  5 02 18 06 13 09
  20926043.495      796240.416 7    619029.963 3
  23625362.433     6842129.307 5   5266595.651 1
  20569241.667    -4538046.754 7  -3510194.969 2
  21821889.800    -8968845.703 7  -6939199.350 1
  22959046.073    -7642471.402 5  -5023824.360 1
 90 10 11 12 34 59.9990000  0  5 02 18 06 13 09
  20927663.011      804732.289 7    625646.995 3
  23634320.440     6889205.043 5   5303278.019 1
  20564421.722    -4563376.317 7  -3529932.281 2
  21811801.886    -9021860.468 7  -6980509.550 1
  22949478.323    -7692744.816 5  -5062998.433 1
 90 10 11 12 35 14.9990000  0  5 02 18 06 13 09
  20929281.995      813264.830 7    632295.723 3
  23643279.050     6936290.145 5   5339967.717 1
  20559616.550    -4588631.984 7  -3549612.024 2
  21801731.894    -9074778.984 7  -7021744.733 1
  22939913.042    -7743007.503 5  -5102164.173 1
 90 10 11 12 35 29.9990000  0  5 02 18 06 13 09
  20930915.612      821841.363 7    638978.736 3
  23652236.964     6983387.700 5   5376667.111 1
  20554824.503    -4613810.120 7  -3569231.347 2
  21791680.339    -9127597.628 7  -7062902.110 1
  22930351.784    -7793255.513 5  -5141318.454 1
 90 10 11 12 35 44.9990000  0  5 02 18 06 13 09
  20932554.589      830454.279 7    645690.099 3
  23661203.776     7030489.457 5   5413369.750 1
  20550047.370    -4638917.964 7  -3588795.896 2
  21781648.292    -9180323.796 7  -7103987.420 1
  22920792.409    -7843496.749 5  -5180467.456 1
 90 10 11 12 35 59.9990000  0  5 02 18 06 13 09
  20934203.034      839105.607 7    652431.387 3
  23670169.581     7077597.651 5   5450077.433 1
  20545282.089    -4663953.264 7  -3608303.912 2
  21771630.933    -9232954.881 7  -7144998.639 1
  22911229.628    -7893728.475 5  -5219609.054 1
 90 10 11 12 36 14.9990000  0  5 02 18 06 13 09
  20935855.737      847799.258 7    659205.659 3
  23679138.448     7124715.768 5   5486792.854 1
  20540532.956    -4688911.838 7  -3627752.151 2
  21761635.894    -9285486.715 7  -7185932.523 1
  22901677.854    -7943946.763 5  -5258740.180 1
 90 10 11 12 36 29.9990000  0  5 02 18 06 13 09
  20937517.144      856535.865 7    666013.399 3
  23688104.753     7171843.857 5   5523516.029 1
  20535800.433    -4713792.724 7  -3647139.850 2
  21751661.394    -9337918.266 7  -7226788.259 1
  22892118.839    -7994150.649 5  -5297860.069 1
 90 10 11 12 36 44.9990000  0  5 02 18 06 13 09
  20939190.144      865313.256 7    672852.924 3
  23697071.167     7218979.537 5   5560245.108 1
  20531079.886    -4738597.467 7  -3666468.215 2
  21741700.448    -9390251.473 7  -7267567.375 1
  22882571.269    -8044341.894 5  -5336970.121 1
 90 10 11 12 36 59.9990000  0  5 02 18 06 13 09
  20940866.105      874130.641 7    679723.617 3
  23706041.847     7266121.664 5   5596979.215 1
  20526372.651    -4763326.707 7  -3685737.754 2
  21731760.456    -9442486.661 7  -7308270.102 1
  22873025.065    -8094521.147 5  -5376070.841 1
 90 10 11 12 37 14.9990000  0  5 02 18 06 13 09
  20942551.104      882986.813 7    686624.521 3
  23715018.097     7313269.164 5   5633717.528 1
  20521680.511    -4787981.249 7  -3704949.083 2
  21721838.425    -9494624.692 7  -7348897.129 1
  22863474.144    -8144689.168 5  -5415162.781 1
 90 10 11 12 37 29.9990000  0  5 02 18 06 13 09
  20944243.995      891883.995 7    693557.386 3
  23723990.979     7360423.583 5   5670461.219 1
  20517004.612    -4812558.741 7  -3724100.375 2
  21711936.065    -9546662.978 7  -7389446.421 1
  22853931.019    -8194843.482 5  -5454244.043 1
 90 10 11 12 37 44.9990000  0  5 02 18 06 13 09
  20945944.081      900823.399 7    700523.146 3
  23732965.620     7407585.892 5   5707211.032 1
  20512342.425    -4837057.530 7  -3743190.339 2
  21702050.464    -9598600.112 7  -7429916.903 1
  22844389.878    -8244982.794 5  -5493313.637 1
 90 10 11 12 37 59.9990000  0  5 02 18 06 13 09
  20947654.753      909800.912 7    707518.605 3
  23741941.214     7454751.623 5   5743963.549 1
  20507694.378    -4861481.536 7  -3762222.026 2
  21692187.081    -9650439.839 7  -7470311.484 1
  22834853.362    -8295110.886 5  -5532374.475 1
 90 10 11 12 38 14.9990000  0  5 02 18 06 13 09
  20949371.362      918822.381 7    714548.322 3
  23750917.183     7501926.272 5   5780723.000 1
  20503061.261    -4885824.575 7  -3781190.622 2
  21682342.323    -9702176.064 7  -7510625.412 1
  22825317.784    -8345221.693 5  -5571421.843 1
 90 10 11 12 38 29.9990000  0  5 02 18 06 13 09
  20951095.011      927881.359 7    721607.258 3
  23759893.058     7549103.153 5   5817484.177 1
  20498444.925    -4910092.595 7  -3800100.760 2
  21672515.784    -9753814.736 7  -7550863.323 1
  22815782.167    -8395321.269 5  -5610460.478 1
 90 10 11 12 38 44.9990000  0  5 02 18 06 13 09
  20952828.573      936979.976 7    728697.087 3
  23768871.925     7596284.001 5   5854248.453 1
  20493840.058    -4934283.424 7  -3818950.756 2
  21662708.831    -9805353.380 7  -7591023.298 1
  22806255.097    -8445407.333 5  -5649488.566 1
 90 10 11 12 38 59.9990000  0  5 02 18 06 13 09
  20954566.347      946119.854 7    735819.070 3
  23777851.901     7643470.492 5   5891017.139 1
  20489253.339    -4958394.877 7  -3837738.899 2
  21652920.440    -9856790.289 7  -7631103.991 1
  22796725.542    -8495477.876 5  -5688504.558 1
 90 10 11 12 39 14.9990000  0  5 02 18 06 13 09
  20956307.065      955298.188 7    742971.018 3
  23786833.339     7690659.197 5   5927787.520 1
  20484677.644    -4982429.719 7  -3856467.340 2
  21643150.948    -9908128.017 7  -7671107.404 1
  22787192.706    -8545535.810 5  -5727510.731 1
 90 10 11 12 39 29.9990000  0  5 02 18 06 13 09
  20958066.847      964515.141 7    750153.059 3
  23795809.425     7737849.664 5   5964559.307 1
  20480119.620    -5006387.508 7  -3875135.749 2
  21633400.206    -9959365.972 7  -7711033.077 1
  22777672.644    -8595580.479 5  -5766506.554 1
 90 10 11 12 39 44.9990000  0  5 02 18 06 13 09
  20959827.214      973771.860 7    757366.085 3
  23804791.667     7785042.952 5   6001333.272 1
  20475575.456    -5030266.658 7  -3893742.876 2
  21623669.300   -10010502.325 7  -7750879.569 1
  22768152.644    -8645610.487 5  -5805490.978 1
 90 10 11 12 39 59.9990000  0  5 02 18 06 13 09
  20961597.620      983069.117 7    764610.697 3
  23813775.823     7832239.614 5   6038109.896 1
  20471046.589    -5054065.752 7  -3912287.623 2
  21613959.472   -10061535.985 7  -7790646.045 1
  22758636.972    -8695624.515 5  -5844462.936 1
 90 10 11 12 40 14.9990000  0  5 02 18 06 13 09
  20963374.112      992406.679 7    771886.705 3
  23822751.604     7879439.210 5   6074888.759 1
  20466533.214    -5077785.039 7  -3930770.182 2
  21604266.862   -10112467.066 7  -7830332.595 1
  22749120.862    -8745622.738 5  -5883422.572 1
 90 10 11 12 40 29.9990000  0  5 02 18 06 13 09
  20965156.104     1001780.741 7    779191.157 3
  23831736.144     7926637.491 5   6111666.629 1
  20462034.605    -5101428.136 7  -3949193.369 2
  21594593.948   -10163299.220 7  -7869942.052 1
  22739609.651    -8795608.781 5  -5922372.723 1
 90 10 11 12 40 44.9990000  0  5 02 18 06 13 09
  20966948.065     1011192.654 7    786525.109 3
  23840717.894     7973835.326 5   6148444.156 1
  20457549.370    -5124993.175 7  -3967555.730 2
  21584939.097   -10214030.781 7  -7909473.119 1
  22730098.909    -8845580.960 5  -5961312.066 1
 90 10 11 12 40 59.9990000  0  5 02 18 06 13 09
  20968749.104     1020645.488 7    793890.951 3
  23849698.620     8021035.831 5   6185223.776 1
  20453081.347    -5148476.789 7  -3985854.652 2
  21575305.073   -10264657.959 7  -7948922.860 1
  22720595.722    -8895535.806 5  -6000237.922 1
 90 10 11 12 41 14.9990000  0  5 02 18 06 13 09
  20970555.901     1030141.181 7    801290.189 3
  23858681.964     8068240.732 5   6222006.813 1
  20448626.401    -5171876.580 7  -4004088.251 3
  21565692.198   -10315178.651 7  -7988289.624 1
  22711091.589    -8945471.063 5  -6039148.488 1
 90 10 11 12 41 29.9990000  0  5 02 18 06 13 09
  20972370.565     1039675.576 7    808719.572 3
  23867666.300     8115445.154 5   6258789.451 1
  20444189.925    -5195196.594 7  -4022259.685 3
  21556098.495   -10365596.843 7  -8027576.512 1
  22701591.167    -8995390.776 5  -6078046.958 1
 90 10 11 12 41 44.9990000  0  5 02 18 06 13 09
  20974192.667     1049250.267 7    816180.361 3
  23876647.987     8162650.624 5   6295572.889 1
  20439768.308    -5218434.783 7  -4040367.366 2
  21546522.909   -10415910.387 7  -8066781.859 1
  22692098.292    -9045292.955 5  -6116931.775 1
 90 10 11 12 41 59.9990000  0  5 02 18 06 13 09
  20976022.581     1058865.784 7    823672.969 3
  23885633.448     8209857.078 5   6332357.110 1
  20435362.331    -5241590.519 7  -4058410.792 3
  21536969.362   -10466118.811 7  -8105905.294 1
  22682605.878    -9095176.993 5  -6155802.437 1
 90 10 11 12 42 14.9990000  0  5 02 18 06 13 09
  20977858.878     1068522.590 7    831197.747 3
  23894617.019     8257064.612 5   6369142.171 1
  20430971.136    -5264663.210 7  -4076389.519 2
  21527436.456   -10516221.347 7  -8144946.214 1
  22673115.604    -9145042.116 5  -6194658.376 1
 90 10 11 12 42 29.9990000  0  5 02 18 06 13 09
  20979701.722     1078212.117 7    838748.018 3
  23903596.839     8304264.413 5   6405921.255 1
  20426594.636    -5287660.800 7  -4094309.709 2
  21517919.565   -10566225.836 7  -8183910.739 1
  22663624.448    -9194896.583 5  -6233506.001 1
 90 10 11 12 42 44.9990000  0  5 02 18 06 13 09
  20981550.706     1087939.391 7    846327.710 3
  23912581.034     8351461.357 5   6442698.061 1
  20422234.417    -5310577.844 7  -4112167.149 3
  21508423.269   -10616127.069 7
  22654143.386    -9244735.017 5
 90 10 11 12 42 59.9990000  0  5 02 18 06 13 09
  20983410.479     1097704.109 7    853936.580 3
  23921558.581     8398654.857 5   6479472.177 1
  20417888.995    -5333414.636 7  -4129962.049 2
  21498947.565   -10665925.256 7
  22644661.886    -9294557.571 5
 90 10 11 12 43 14.9990000  0  5 02 18 06 13 09
  20985277.214     1107508.811 7    861576.605 3
  23930534.995     8445847.191 5   6516245.449 1
  20413558.636    -5356168.108 7  -4147692.023 2
  21489491.308   -10715617.309 7  -8300319.648 1
  22635183.737    -9344361.408 5  -6349972.075 1
 90 10 11 12 43 29.9990000  0  5 02 18 06 13 09
  20987151.487     1117355.020 7    869248.969 3
  23939519.269     8493039.654 5   6553018.760 1
  20409244.190    -5378836.462 7  -4165355.676 2
  21480054.104   -10765201.516 7  -8338956.679 1
  22625715.214    -9394144.340 5  -6388763.951 1
 90 10 11 12 43 44.9990000  0  5 02 18 06 13 09
  20989030.589     1127244.820 7    876955.300 3
  23948500.159     8540233.681 5   6589793.310 1
  20404948.003    -5401417.269 7  -4182951.107 2
  21470640.331   -10814675.420 7  -8377507.760 1
  22616247.409    -9443904.696 6  -6427538.246 1
 90 10 11 12 43 59.9990000  0  5 02 18 06 13 09
  20990922.979     1137173.248 7    884691.728 3
  23957478.370     8587424.197 5   6626565.122 1
  20400666.261    -5423915.366 7  -4200482.088 2
  21461247.261   -10864043.643 7  -8415976.495 1
  22606776.792    -9493646.704 6  -6466298.232 1
 90 10 11 12 44 14.9990000  0  5 02 18 06 13 09
  20992820.097     1147140.384 7    892458.319 3
  23966462.503     8634611.098 5   6663334.138 1
  20396400.495    -5446330.191 7  -4217948.185 3
  21451872.972   -10913305.843 7  -8454362.609 1
  22597314.667    -9543369.904 5  -6505043.582 1
 90 10 11 12 44 29.9990000  0  5 02 18 06 13 09
  20994723.347     1157144.197 7    900253.505 3
  23975436.925     8681791.878 5   6700098.365 1
  20392151.698    -5468663.506 7  -4235350.765 3
  21442515.315   -10962463.665 7  -8492667.394 1
  22587859.823    -9593076.301 5  -6543775.829 1
 90 10 11 12 44 44.9990000  0  5 02 18 06 13 09
  20996633.081     1167191.685 7    908082.711 3
  23984413.792     8728973.266 5   6736863.082 1
  20387917.151    -5490907.844 7  -4252684.013 2
  21433184.089   -11011509.809 7  -8530885.161 1
  22578400.394    -9642758.369 6  -6582489.123 1
 90 10 11 12 44 59.9990000  0  5 02 18 06 13 09
  20998553.011     1177276.754 7    915941.199 3
  23993391.245     8776148.828 5   6773623.243 1
  20383701.433    -5513069.274 7  -4269952.657 2
  21423872.987   -11060450.281 7  -8569020.584 1
  22568951.292    -9692422.182 5  -6621188.183 1
 90 10 11 12 45 14.9990000  0  5 02 18 06 13 09
  21000482.237     1187402.247 7    923831.188 3
  24002371.573     8823320.835 5   6810380.598 1
  20379501.847    -5535144.621 7  -4287154.223 2
  21414579.847   -11109281.922 7  -8607071.197 1
  22559506.745    -9742064.605 5  -6659870.583 1
 90 10 11 12 45 29.9990000  0  5 02 18 06 13 09
  21002414.433     1197568.151 7    931752.665 3
  24011346.737     8870489.364 5   6847135.274 1
  20375316.620    -5557133.622 7  -4304288.509 2
  21405307.729   -11158004.436 7  -8645036.773 1
  22550065.378    -9791685.430 5  -6698536.144 1
 90 10 11 12 45 44.9990000  0  5 02 18 06 13 09
  21004353.229     1207772.651 7    939704.216 3
  24020322.073     8917651.944 5   6883885.323 1
  20371148.940    -5579037.784 7  -4321356.686 2
  21396057.487   -11206619.144 7  -8682918.364 1
  22540620.503    -9841286.034 5  -6737185.962 1
 90 10 11 12 45 59.9990000  0  5 02 18 06 13 09
  21006307.198     1218016.578 7    947686.493 3
  24029293.589     8964809.160 5   6920631.196 1
  20366995.456    -5600855.810 7  -4338357.742 3
  21386826.862   -11255125.102 7  -8720715.197 1
  22531188.612    -9890865.420 5  -6775819.249 1
 90 10 11 12 46 14.9990000  0  5 02 18 06 13 09
  21008263.526     1228302.504 7    955701.493 3
  24038265.511     9011963.289 5   6957374.661 1
  20362862.112    -5622585.086 7  -4355289.646 2
  21377617.862   -11303519.484 7  -8758425.100 1
  22521761.644    -9940420.818 5  -6814433.837 1
 90 10 11 12 46 29.9990000  0  5 02 18 06 13 09
  21010228.995     1238628.174 7    963747.470 3
  24047238.612     9059111.960 5   6994113.864 1
  20358742.269    -5644227.467 7  -4372153.843 2
  21368427.792   -11351804.106 7  -8796049.470 1
  22512334.698    -9989954.073 5  -6853031.166 1
 90 10 11 12 46 44.9990000  0  5 02 18 06 13 09
  21012199.183     1248991.674 7    971822.923 3
  24056208.339     9106252.725 5   7030846.915 1
  20354640.526    -5665784.518 7  -4388951.540 2
  21359259.987   -11399980.744 7  -8833589.695 1
  22502910.042   -10039466.838 6  -6891612.529 1
 90 10 11 12 46 59.9990000  0  5 02 18 06 13 09
  21014179.644     1259392.693 7    979927.611 3
  24065178.081     9153385.260 5   7067573.562 1
  20350554.269    -5687256.148 7  -4405682.679 2
  21350115.550   -11448049.456 7  -8871045.819 1
  22493493.745   -10088959.028 6  -6930177.860 1
 90 10 11 12 47 14.9990000  0  5 02 18 06 13 09
  21016166.440     1269830.061 7    988060.614 3
  24074148.394     9200507.662 5   7104292.257 1
  20346484.769    -5708643.370 7  -4422348.053 2
  21340986.878   -11496011.110 7  -8908418.532 1
  22484075.644   -10138431.599 5  -6968727.917 1
 90 10 11 12 47 29.9990000  0  5 02 18 06 13 09
  21018158.917     1280307.737 7    996225.025 3
  24083113.940     9247623.688 5   7141006.035 1
  20342432.136    -5729941.894 7  -4438944.307 2
  21331881.417   -11543861.162 7  -8945704.276 1
  22474670.222   -10187880.394 5  -7007259.432 1
 90 10 11 12 47 44.9990000  0  5 02 18 06 13 09
  21020157.245     1290822.573 7   1004418.396 3
  24092079.167     9294730.040 5   7177712.300 1
  20338394.972    -5751154.498 7  -4455473.602 2
  21322795.214   -11591602.560 7  -8982905.356 1
  22465262.034   -10237308.110 5  -7045774.510 1
 90 10 11 12 47 59.9990000  0  5 02 18 06 13 09
  21022167.784     1301378.711 7   1012643.955 3
  24101038.909     9341830.711 5   7214414.087 1
  20334376.253    -5772276.638 7  -4471932.409 2
  21313733.839   -11639230.796 7  -9020018.260 1
  22455864.511   -10286710.361 5  -7084269.787 1
 90 10 11 12 48 14.9990000  0  5 02 18 06 13 09
  21024185.386     1311974.078 7   1020900.084 3
  24110005.862     9388923.032 5   7251109.390 1
  20330373.159    -5793310.324 7  -4488322.292 2
  21304689.581   -11686747.821 7  -9057044.497 1
  22446464.714   -10336089.060 5  -7122746.677 1
 90 10 11 12 48 29.9990000  0  5 02 18 06 13 09
  21026210.964     1322607.682 7   1029186.002 3
  24118958.425     9436005.904 5   7287797.314 1
  20326386.972    -5814256.163 7  -4504643.727 2
  21295668.542   -11734154.372 7  -9093984.658 1
  22437072.433   -10385444.874 5  -7161205.746 1
 90 10 11 12 48 44.9990000  0  5 02 18 06 13 09
  21028242.433     1333284.593 7   1037505.671 3
  24127918.425     9483084.267 5   7324481.753 1
  20322419.284    -5835108.649 7  -4520892.415 2
  21286670.808   -11781445.024 7  -9130834.503 1
  22427685.956   -10434772.388 6  -7199642.761 1
 90 10 11 12 48 59.9990000  0  5 02 18 06 13 09
  21030277.409     1344002.850 7   1045857.550 3
  24136877.269     9530155.569 5   7361160.655 1
  20318468.698    -5855869.525 7  -4537069.724 2
  21277692.542   -11828621.534 7  -9167595.410 1
  22418311.956   -10484073.286 6  -7238059.036 1
 90 10 11 12 49 14.9990000  0  5 02 18 06 13 09
  21032329.065     1354758.901 7   1054238.877 3
  24145832.050     9577215.724 5   7397830.926 1
  20314535.870    -5876542.226 7  -4553178.325 2
  21268737.651   -11875687.265 7  -9204269.999 1
  22408925.808   -10533350.759 5  -7276457.056 1
 90 10 11 12 49 29.9990000  0  5 02 18 06 13 09
  21034378.581     1365550.325 7   1062647.768 3
  24154783.237     9624262.107 5   7434490.428 1
  20310617.425    -5897128.694 7  -4569219.723 2
  21259801.237   -11922644.221 7  -9240859.817 1
  22399557.425   -10582607.245 6  -7314838.724 1
 90 10 11 12 49 44.9990000  0  5 02 18 06 13 09
  21036442.831     1376382.500 7   1071088.410 3
  24163731.940     9671299.856 4   7471143.197 1
  20306716.800    -5917623.349 7  -4585189.579 2
  21250886.581   -11969486.844 7  -9277360.555 1
  22390184.542   -10631836.674 5  -7353199.309 1
 90 10 11 12 49 59.9990000  0  5 02 18 06 13 09
  21038511.604     1387252.839 7   1079558.791 3
  24172688.222     9718326.150 5   7507787.034 1
  20302834.831    -5938028.336 7  -4601089.569 2
  21241994.097   -12016217.292 7  -9313773.879 1
  22380822.995   -10681041.567 6  -7391540.770 1
 90 10 11 12 50 14.9990000  0  5 02 18 06 13 09
  21040586.847     1398161.703 7   1088059.197 3
  24181633.151     9765341.058 5   7544422.013 1
  20298969.222    -5958343.142 7  -4616919.288 2
  21233123.378   -12062835.060 7  -9350099.408 1
  22371465.964   -10730221.285 6  -7429862.617 1
 90 10 11 12 50 29.9990000  0  5 02 18 06 13 09
  21042668.855     1409109.328 7   1096589.801 3
  24190580.104     9812344.374 5   7581047.947 1
  20295121.753    -5978567.417 7  -4632678.461 2
  21224273.495   -12109339.720 7  -9386336.791 1
  22362112.003   -10779375.355 6  -7468164.492 1
 90 10 11 12 50 44.9990000  0  5 02 18 06 13 09
  21044757.909     1420095.994 7   1105150.844 3
  24199521.120     9859336.041 5   7617664.825 1
  20291288.144    -5998700.268 7  -4648366.402 2
  21215446.120   -12155730.449 7  -9422485.405 1
  22352761.409   -10828503.144 6  -7506445.876 1
 90 10 11 12 50 59.9990000  0  5 02 18 06 13 09
  21046857.472     1431120.660 7   1113741.492 3
  24208454.683     9906314.901 4   7654271.721 1
  20287476.167    -6018742.462 7  -4663983.697 3
  21206638.987   -12202008.043 7  -9458545.856 1
  22343419.370   -10877605.295 6  -7544707.280 1
 90 10 11 12 51 14.9990000  0  5 02 18 06 13 09
  21048963.198     1442183.410 7   1122361.812 3
  24217397.659     9953280.749 4   7690868.461 1
  20283677.823    -6038693.698 7  -4679530.117 2
  21197855.089   -12248172.296 7  -9494517.993 1
  22334082.659   -10926681.517 6  -7582948.491 1
 90 10 11 12 51 29.9990000  0  5 02 18 06 13 09
  21051077.784     1453287.491 7   1131014.331 3
  24226326.589    10000236.385 4   7727457.277 1
  20279900.698    -6058550.305 7  -4695002.808 2
  21189091.675   -12294219.677 7  -9530399.061 1
  22324748.089   -10975728.188 6  -7621166.667 1
 90 10 11 12 51 44.9990000  0  5 02 18 06 13 09
  21053197.956     1464433.116 7   1139699.224 3
  24235266.284    10047181.530 4   7764037.894 1
  20276139.112    -6078312.345 7  -4710401.801 2
  21180351.987   -12340150.007 7  -9566188.916 1
  22315418.956   -11024745.118 6  -7659361.664 1
 90 10 11 12 51 59.9990000  0  5 02 18 06 13 09
  21055326.479     1475616.326 7   1148413.399 3
  24244197.628    10094112.204 5   7800607.249 1
  20272396.511    -6097982.805 7  -4725729.424 2
  21171633.339   -12385966.642 7  -9601890.184 1
  22306096.847   -11073735.795 6  -7697536.205 1
 90 10 11 12 52 14.9990000  0  5 02 18 06 13 09
  21057462.440     1486841.121 7   1157159.989 3
  24253123.237    10141032.040 5   7837168.164 1
  20268671.714    -6117557.532 7  -4740982.451 2
  21162937.276   -12431665.143 7  -9637499.395 1
  22296779.409   -11122695.664 6  -7735686.736 1
 90 10 11 12 52 29.9990000  0  5 02 18 06 13 09
  21059601.667     1498105.866 7   1165937.706 3
  24262047.878    10187938.737 4   7873718.814 1
  20264962.729    -6137038.255 7  -4756162.234 2
  21154263.073   -12477247.197 7  -9673017.865 1
  22287468.323   -11171626.360 6  -7773814.541 1
 90 10 11 12 52 44.9990000  0  5 02 18 06 13 09
  21061755.769     1509410.177 7   1174746.255 3
  24270971.847    10234831.951 4   7910258.914 1
  20261274.589    -6156424.847 7  -4771268.676 2
  21145611.745   -12522712.790 7  -9708445.588 1
  22278161.136   -11220527.984 6  -7811919.697 1
 90 10 11 12 52 59.9990000  0  5 02 18 06 13 09
  21063913.159     1520756.253 7   1183587.341 3
  24279893.581    10281713.500 5   7946789.994 1
  20257604.058    -6175714.709 7  -4786299.737 2
  21136982.440   -12568059.592 7  -9743780.749 1
  22268865.237   -11269398.007 6  -7850000.222 1
 90 10 11 12 53 14.9990000  0  5 02 18 06 13 09
  21066084.847     1532141.929 7   1192459.293 3
  24288808.964    10328580.852 5   7983310.006 1
  20253951.065    -6194909.708 7  -4801256.880 2
  21128374.667   -12613289.259 7  -9779024.639 1
  22259570.503   -11318238.293 6  -7888057.584 1
 90 10 11 12 53 29.9990000  0  5 02 18 06 13 09
  21068254.550     1543568.270 7   1201362.930 3
  24297727.667    10375434.842 5   8019819.635 1
  20250317.269    -6214008.592 7  -4816139.130 2
  21119791.050   -12658400.720 7  -9814176.415 1
  22250280.190   -11367047.377 6  -7926090.622 1
 90 10 11 12 53 44.9990000  0  5 02 18 06 13 09
  21070435.917     1555033.938 7   1210297.204 3
  24306644.269    10422273.754 5   8056317.484 1
  20246699.933    -6233012.583 7  -4830947.434 2
  21111228.386   -12703395.197 7  -9849237.040 1
  22241000.769   -11415826.477 6  -7964100.301 1
 90 10 11 12 53 59.9990000  0  5 02 18 06 13 09
  21072629.378     1566541.032 7   1219263.751 3
  24315553.620    10469099.732 5   8092805.245 1
  20243104.878    -6251919.031 7  -4845679.732 3
  21102690.519   -12748269.961 7  -9884204.383 1
  22231720.026   -11464573.124 6  -8002084.697 1
 90 10 11 12 54 14.9990000  0  5 02 18 06 13 09
  21074826.347     1578084.270 7   1228258.478 3
  24324458.019    10515907.074 4   8129278.485 1
  20239523.308    -6270732.771 7  -4860339.790 2
  21094171.284   -12793030.079 7  -9919082.385 1
  22222453.605   -11513292.058 6  -8040047.506 1
 90 10 11 12 54 29.9990000  0  5 02 18 06 13 09
  21077027.019     1589668.683 7   1237285.287 3
  24333357.214    10562700.254 4   8165740.691 1
  20235962.511    -6289448.861 7  -4874923.760 2
  21085677.003   -12837670.586 7  -9953867.181 1
  22213186.229   -11561978.255 6  -8077984.786 1
 90 10 11 12 54 44.9990000  0  5 02 18 06 13 09
  21079242.292     1601287.542 7   1246338.928 3
  24342262.987    10609472.182 4   8202186.308 1
  20232418.440    -6308073.696 7  -4889436.618 2
  21077204.300   -12882197.765 7  -9988563.674 1
  22203924.917   -11610638.202 6  -8115901.608 1
 90 10 11 12 54 59.9990000  0  5 02 18 06 13 09
  21081458.542     1612950.171 7   1255426.692 3
  24351163.355    10656231.781 5   8238622.311 1
  20228891.386    -6326597.884 7  -4903871.053 2
  21068753.831   -12926602.345 7 -10023164.645 1
  22194673.245   -11659262.442 6  -8153790.611 1
 90 10 11 12 55 14.9990000  0  5 02 18 06 13 09
  21083683.394     1624653.859 7   1264546.438 3
  24360057.612    10702976.079 5   8275046.448 1
  20225385.175    -6345023.569 7  -4918228.729 2
  21060327.722   -12970886.511 7 -10057671.779 1
  22185429.636   -11707853.130 6  -8191653.478 1
 90 10 11 12 55 29.9990000  0  5 02 18 06 13 09
  21085919.769     1636397.131 7   1273697.028 3
  24368949.855    10749703.576 4   8311457.479 1
  20221898.284    -6363351.802 7  -4932510.468 2
  21051922.729   -13015051.367 7 -10092085.948 1
  22176187.292   -11756411.374 6  -8229491.065 1
 90 10 11 12 55 44.9990000  0  5 02 18 06 13 09
  21088161.573     1648177.427 7   1282876.471 3
  24377846.659    10796411.451 3   8347853.291 1
  20218429.073    -6381585.005 7  -4946718.158 2
  21043540.542   -13059099.177 7 -10126408.909 1
  22166952.237   -11804939.400 6  -8267305.104 1
 90 10 11 12 55 59.9990000  0  5 02 18 06 13 09
  21090411.565     1659994.937 7   1292084.914 2
  24386719.339    10843099.311 2   8384233.352 1
  20214976.862    -6399722.568 7  -4960851.317 2
  21035181.394   -13103029.602 7 -10160640.403 1
  22157723.644   -11853436.748 6  -8305095.232 1
 90 10 11 12 56 14.9990000  0  5 02 18 06 13 09
  21092666.901     1671854.215 7   1301325.896 2
  24395598.222    10889771.498 3   8420601.296 1
  20211543.581    -6417759.960 7  -4974906.422 2
  21026845.183   -13146838.009 7 -10194776.808 1
  22148503.097   -11901898.723 6  -8342857.792 1
 90 10 11 12 56 29.9990000  0  5 02 18 06 13 09
  21094929.511     1683752.423 7   1310597.218 2
  24404477.784    10936424.986 4   8456954.643 1
  20208130.675    -6435699.621 7  -4988885.371 2
  21018530.190   -13190527.161 7 -10228820.298 1
  22139287.979   -11950327.909 6  -8380594.813 1
 90 10 11 12 56 44.9990000  0  5 02 18 06 13 09
  21097204.940     1695691.374 7   1319900.289 2
  24413350.675    10983061.020 4   8493294.375 1
  20204735.604    -6453539.344 7  -5002786.457 2
  21010239.315   -13234094.524 7 -10262768.884 1
  22130078.815   -11998721.941 6  -8418304.441 1
 90 10 11 12 56 59.9990000  0  5 02 18 06 13 09
  21099484.776     1707668.378 7   1329233.011 2
  24422224.972    11029676.578 4   8529618.244 1
  20201359.675    -6471281.755 7  -5016611.716 2
  21001972.269   -13277542.858 7 -10296624.713 1
  22120876.003   -12047083.380 6  -8455988.668 1
 90 10 11 12 57 14.9990000  0  5 02 18 06 13 09
  21101767.409     1719688.569 7   1338599.381 2
  24431089.183    11076276.613 3   8565929.913 1
  20198002.370    -6488921.244 7  -5030356.772 2
  20993728.581   -13320866.888 7 -10330383.688 1
  22111676.292   -12095406.942 6  -8493643.380 1
 90 10 11 12 57 29.9990000  0  5 02 18 06 13 09
  21104066.870     1731744.344 7   1347993.482 2
  24439955.269    11122853.137 3   8602223.291 1
  20194664.026    -6506465.287 7  -5044027.454 2
  20985506.120   -13364074.139 7 -10364051.669 1
  22102489.972   -12143699.775 6  -8531274.151 1
 90 10 11 12 57 44.9990000  0  5 02 18 06 13 09
  21106367.909     1743838.859 7   1357417.771 2
  24448812.190    11169409.268 2
  20191344.456    -6523910.437 7  -5057621.082 2
  20977306.722   -13407160.812 7 -10397625.689 1
  22093308.651   -12191958.417 6  -8568878.280 1
 90 10 11 12 57 59.9990000  0  5 02 18 06 13 09
  21108676.519     1755974.193 7   1366873.865 2
  24457672.214    11215946.561 2
  20188045.378    -6541254.265 7  -5071135.751 2
  20969131.909   -13450124.676 7 -10431104.021 1
  22084127.386   -12240180.483 6  -8606453.899 1
 90 10 11 12 58 14.9990000  0  5 02 18 06 13 09
  21110992.433     1768149.579 7   1376361.169 2
  24466527.206    11262464.048 4
  20184764.151    -6558497.098 7  -5084571.730 2
  20960977.308   -13492966.218 7 -10464487.030 1
  22074960.987   -12288366.307 6  -8644001.286 1
 90 10 11 12 58 29.9990000  0  5 02 18 06 13 09
  21113317.362     1780369.291 7   1385883.009 2
  24475375.378    11308965.608 4        -0.06111
  20181502.190    -6575634.745 7  -5097925.744 2
  20952850.878   -13535681.085 7 -10497771.339 2
  22065796.597   -12336511.662 6  -8681517.137 1
 90 10 11 12 58 44.9990000  0  5 02 18 06 13 09
  21115650.347     1792627.061 7   1395434.509 2
  24484215.237    11355444.350 3     36217.185 1
  20178260.667    -6592673.228 7  -5111202.479 2
  20944744.737   -13578275.496 7 -10530961.776 2
  22056642.808   -12384622.362 6  -8719005.991 1
 90 10 11 12 58 59.9990000  0  5 02 18 06 13 09
  21117991.276     1804925.359 7   1405017.584 2
  24493049.808    11401902.823 2
  20175037.753    -6609609.596 7  -5124399.647 2
  20936664.230   -13620746.633 7 -10564056.157 2
  22047494.003   -12432695.665 6  -8756465.690 1
 90 10 11 12 59 14.9990000  0  5 02 18 06 13 09
  21120339.581     1817262.401 7   1414630.851 2
  24501896.683    11448338.860 2
  20171833.839    -6626445.213 7  -5137518.314 2
  20928603.433   -13663095.998 7 -10597055.653 2
  22038353.073   -12480732.820 6  -8793897.233 1
 90 10 11 12 59 29.9990000  0  5 02 18 06 13 09
  21122691.855     1829640.267 7   1424275.929 2
  24510725.870    11494754.455 2
  20168649.292    -6643178.119 7  -5150556.947 2
  20920568.534   -13705321.326 7 -10629958.496 1
  22029221.206   -12528731.810 6  -8831299.048 1
 90 10 11 12 59 44.9990000  0  5 02 18 06 13 09
  21125057.245     1842061.644 7   1433954.909 2
  24519550.550    11541151.704 2        -0.39111
  20165483.456    -6659804.934 7  -5163512.903 2
  20912557.339   -13747419.530 7 -10662762.286 2
  22020096.425   -12576689.310 6  -8868668.513 1
 90 10 11 12 59 59.9990000  0  5 02 18 06 13 09
  21127430.636     1854525.440 7   1443666.943 2
  24528382.745    11587529.035 3     36137.842 1
  20162340.386    -6676326.706 7  -5176387.011 2
  20904569.933   -13789391.633 7 -10695467.811 2
  22010977.878   -12624606.116 6  -8906006.267 1
 90 10 11 13  0 14.9990000  0  5 02 18 06 13 09
  21129809.675     1867023.902 7   1453405.993 2
  24537197.308    11633878.805 2     72254.525 1
  20159214.917    -6692750.805 7  -5189185.007 2
  20896607.167   -13831245.276 7 -10728081.029 1
  22001864.784   -12672489.814 6  -8943318.237 1
 90 10 11 13  0 29.9990000  0  5 02 18 06 13 09
  21132193.644     1879564.710 7   1463178.047 2
  24546012.394    11680208.541 2    108355.607 1
  20156110.183    -6709069.415 7  -5201900.808 2
  20888665.776   -13872972.594 7 -10760595.814 1
  21992757.511   -12720332.374 6  -8980598.152 1
 90 10 11 13  0 44.9990000  0  4 02 06 13 09
  21134589.620     1892144.185 7   1472980.227 2
  20153023.175    -6725285.865 7  -5214537.010 2
  20880748.792   -13914576.824 7 -10793014.684 2
  21983662.370   -12768137.254 6  -9017848.697 1
 90 10 11 13  0 59.9990000  0  4 02 06 13 09
  21136988.855     1904762.908 7   1482812.991 2
  20149957.089    -6741399.214 7  -5227092.871 2
  20872855.112   -13956057.091 7 -10825336.962 1
  21974574.995   -12815903.448 6  -9055069.113 1
 90 10 11 13  1 14.9990000  0  4 02 06 13 09
  21139398.206     1917420.488 7   1492676.026 2
  20146911.440    -6757409.767 7  -5239568.633 2
  20864984.550   -13997413.698 7 -10857562.883 2
  21965492.003   -12863630.984 6  -9092259.385 1
 90 10 11 13  1 29.9990000  0  4 02 06 13 09
  21141817.511     1930118.083 7   1502570.243 2
  20143883.245    -6773316.226 7  -5251963.276 2
  20857137.917   -14038645.538 7 -10889691.584 1
  21956417.190   -12911318.727 6  -9129418.664 1
 90 10 11 13  1 44.9990000  0  4 02 06 13 09
  21144238.933     1942858.079 7   1512497.504 2
  20140878.269    -6789115.721 7  -5264274.575 2
  20849317.089   -14079749.910 7 -10921720.959 2
  21947347.214   -12958963.825 6  -9166544.698 1
 90 10 11 13  1 59.9990000  0  4 02 06 13 09
  21146674.995     1955636.900 7   1522455.018 2
  20137891.440    -6804811.566 7  -5276505.105 2
  20841518.597   -14120730.089 7 -10953653.559 2
  21938290.026   -13006569.566 6  -9203640.073 1
 90 10 11 13  2 14.9990000  0  4 02 06 13 09
  21149112.206     1968453.818 7   1532442.212 2
  20134924.300    -6820404.467 7  -5288655.416 2
  20833744.284   -14161586.708 7 -10985489.876 2
  21929240.136   -13054136.422 6  -9240705.142 1
 90 10 11 13  2 29.9990000  0  4 02 06 13 09
  21151557.878     1981310.688 7   1542460.536 2
  20131974.050    -6835892.074 6  -5300723.691 2
  20825993.151   -14202317.608 7 -11017228.228 2
  21920194.526   -13101662.141 6  -9277738.168 1
 90 10 11 13  2 44.9990000  0  4 02 06 13 09
  21154011.144     1994207.084 7   1552509.660 2
  20129048.097    -6851274.708 6  -5312710.167 2
  20818265.847   -14242923.178 7 -11048868.923 1
  21911159.979   -13149146.884 6  -9314739.260 1
 90 10 11 13  2 59.9990000  0  4 02 06 13 09
  21156474.347     2007144.150 7   1562590.476 2
  20126142.034    -6866550.787 7  -5324613.604 2
  20810565.370   -14283401.765 7 -11080410.674 2
  21902130.128   -13196589.150 6  -9351707.244 1
 90 10 11 13  3 14.9990000  0  4 02 06 13 09
  21158942.503     2020120.378 7   1572701.810 2
  20123255.253    -6881721.748 7  -5336435.130 2
  20802882.839   -14323754.748 7 -11111854.554 1
  21893111.745   -13243990.131 6  -9388643.069 1
 90 10 11 13  3 29.9990000  0  4 02 06 13 09
  21161417.612     2033137.800 7   1582845.248 2
  20120388.308    -6896785.130 7  -5348172.830 2
  20795229.839   -14363980.049 7 -11143198.939 1
  21884098.894   -13291347.508 6  -9425544.918 1
 90 10 11 13  3 44.9990000  0  4 02 06 13 09
  21163901.081     2046192.501 7   1593017.729 2
  20117543.198    -6911744.827 7  -5359829.739 2
  20787598.706   -14404081.454 7 -11174446.774 2
  21875093.526   -13338665.182 6  -9462415.828 1
 90 10 11 13  3 59.9990000  0  4 02 06 13 09
  21166394.026     2059284.609 7   1603219.351 2
  20114716.378    -6926600.233 7  -5371405.385 2
  20779991.097   -14444058.466 7 -11205597.684 2
  21866097.933   -13385942.440 6  -9499255.243 1
 90 10 11 13  4 14.9990000  0  4 02 06 13 09
  21168892.651     2072419.856 7   1613454.594 2
  20111910.831    -6941345.229 7  -5382895.000 2
  20772407.776   -14483905.083 7 -11236646.988 1
  21857112.792   -13433172.960 6  -9536058.242 1
 90 10 11 13  4 29.9990000  0  4 02 06 13 09
  21171402.253     2085595.559 7   1623721.362 2
  20109123.987    -6955982.462 7  -5394300.643 2
  20764851.144   -14523624.093 7 -11267596.863 2
  21848129.573   -13480359.380 6  -9572826.875 1
 90 10 11 13  4 44.9990000  0  4 02 06 13 09
  21173912.339     2098810.129 7   1634018.418 2
  20106359.269    -6970513.200 7  -5405623.301 2
  20757317.659   -14563216.852 7 -11298448.360 2
  21839159.089   -13527503.121 6  -9609562.246 1
 90 10 11 13  4 59.9990000  0  4 02 06 13 09
  21176436.573     2112062.881 7   1644345.231 2
  20103615.183    -6984937.885 7  -5416863.319 2
  20749806.683   -14602683.482 7 -11329201.569 2
  21830196.308   -13574604.324 6  -9646264.469 1
 90 10 11 13  5 14.9990000  0  4 02 06 13 09
  21178965.862     2125353.922 7   1654701.867 2
  20100889.800    -6999256.347 7  -5428020.560 2
  20742320.628   -14642024.298 7 -11359856.739 2
  21821240.198   -13621662.903 6  -9682933.489 1
 90 10 11 13  5 29.9990000  0  4 02 06 13 09
  21181503.511     2138679.933 7   1665085.761 2
  20098185.487    -7013471.333 7  -5439097.176 2
  20734856.792   -14681242.195 7 -11390416.135 2
  21812294.425   -13668681.580 6  -9719571.410 1
 90 10 11 13  5 44.9990000  0  4 02 06 13 09
  21184046.542     2152047.388 7   1675501.945 2
  20095500.159    -7027576.526 7  -5450088.235 2
  20727417.784   -14720330.304 7 -11420874.397 2
  21803355.815   -13715653.527 6  -9756172.920 1
 90 10 11 13  5 59.9990000  0  4 02 06 13 09
  21186596.089     2165453.739 7   1685948.434 2
  20092834.604    -7041573.962 7  -5460995.338 2
  20720003.769   -14759291.211 7 -11451233.539 2
  21794427.456   -13762581.322 6  -9792740.027 1
 90 10 11 13  6 14.9990000  0  4 02 06 13 09
  21189159.667     2178900.252 7   1696426.224 2
  20090193.222    -7055462.053 7  -5471817.231 2
  20712614.300   -14798123.340 7 -11481492.333 2
  21785504.097   -13809463.255 6  -9829271.396 1
 90 10 11 13  6 29.9990000  0  4 02 06 13 09
  21191727.026     2192387.138 7   1706935.473 2
  20087572.362    -7069240.622 7  -5482553.782 2
  20705249.401   -14836826.504 7 -11511650.634 2
  21776591.409   -13856298.657 6  -9865766.513 1
 90 10 11 13  6 44.9990000  0  4 02 06 13 09
  21194299.495     2205917.421 7   1717478.540 2
  20084972.073    -7082906.377 7  -5493202.422 2
  20697910.401   -14875397.362 7 -11541705.842 2
  21767688.831   -13903084.394 6  -9902222.917 1
 90 10 11 13  6 59.9990000  0  4 02 06 13 09
  21196878.792     2219491.880 7   1728056.027 2
  20082391.784    -7096457.845 7  -5503762.008 2
  20690595.245   -14913834.851 7 -11571657.118 2
  21758796.292   -13949819.129 6  -9938639.579 1
 90 10 11 13  7 14.9990000  0  4 02 06 13 09
  21199471.534     2233101.380 7   1738660.810 2
  20079835.628    -7109904.411 7  -5514239.857 2
  20683305.604   -14952148.215 7 -11601511.683 2
  21749909.995   -13996511.974 6  -9975023.616 1
 90 10 11 13  7 29.9990000  0  4 02 06 13 09
  21202070.667     2246752.696 7   1749298.187 2
  20077296.190    -7123238.797 7  -5524630.295 2
  20676038.331   -14990330.285 7 -11631263.937 2
  21741034.854   -14043155.589 6 -10011369.280 1
 90 10 11 13  7 44.9990000  0  4 02 06 13 09
  21204676.019     2260443.682 7   1759966.469 2
  20074780.261    -7136462.983 7  -5534934.862 2
  20668799.073   -15028383.298 7 -11660915.630 2
  21732166.315   -14089751.895 6 -10047678.085 1
 90 10 11 13  7 59.9990000  0  4 02 06 13 09
  21207285.651     2274170.135 7   1770662.386 2
  20072283.448    -7149581.084 7  -5545156.762 2
  20661580.323   -15066311.148 7 -11690469.797 2
  21723308.167   -14136304.952 6 -10083953.183 1
 90 10 11 13  8 14.9990000  0  4 02 06 13 09
  21209907.573     2287937.264 7   1781390.003 2
  20069809.503    -7162587.278 7  -5555291.455 2
  20654387.792   -15104108.373 7 -11719922.175 2
  21714458.120   -14182809.002 6 -10120190.098 1
 90 10 11 13  8 29.9990000  0  4 02 06 13 09
  21212536.058     2301745.166 7   1792149.391 2
  20067354.472    -7175481.478 7  -5565338.883 2
  20647220.745   -15141775.009 7 -11749272.791 2
  21705618.519   -14229263.752 6 -10156388.597 1
 90 10 11 13  8 44.9990000  0  4 02 06 13 09
  21215169.315     2315596.219 7   1802942.412 2
  20064924.808    -7188261.231 7  -5575297.137 2
  20640077.792   -15179308.275 7 -11778519.482 2
  21696788.120   -14275666.640 6 -10192546.689 1
 90 10 11 13  8 59.9990000  0  4 02 06 13 09
  21217808.034     2329485.139 7   1813764.935 2
  20062514.604    -7200931.450 7  -5585170.036 2
  20632960.050   -15216713.184 7 -11807666.160 2
  21687969.370   -14322022.581 6 -10228668.195 1
 90 10 11 13  9 14.9990000  0  4 02 06 13 09
  21220465.901     2343415.397 7   1824619.666 2
  20060124.753    -7213488.168 7  -5594954.499 2
  20625865.597   -15253985.967 7 -11836709.876 2
  21679155.823   -14368327.587 6 -10264750.017 1
 90 10 11 13  9 29.9990000  0  4 02 06 13 09
  21223125.472     2357386.598 7   1835506.300 2
  20057753.308    -7225932.005 7  -5604650.995 2
  20618797.800   -15291127.177 7 -11865651.077 2
  21670354.690   -14414581.949 6 -10300792.366 1
 90 10 11 13  9 44.9990000  0  4 02 06 13 09
  21225790.456     2371397.417 7   1846423.802 2
  20055409.065    -7238263.682 7  -5614260.102 2
  20611756.964   -15328137.948 7 -11894490.632 2
  21661560.948   -14460786.610 6 -10336795.990 1
 90 10 11 13  9 59.9990000  0  4 02 06 13 09
  21228465.495     2385452.064 7   1857375.458 2
  20053084.495    -7250478.831 7  -5623778.411 2
  20604739.698   -15365013.984 7 -11923225.202 2
  21652779.870   -14506936.843 6 -10372757.201 1
 90 10 11 13 10 14.9990000  0  4 02 06 13 09
  21231145.370     2399547.747 7   1868359.092 2
  20050782.847    -7262580.061 7  -5633207.947 2
  20597746.175   -15401757.881 7 -11951856.806 2
  21644007.628   -14553035.337 6 -10408678.105 1
 90 10 11 13 10 29.9990000  0  4 02 06 13 09
  21233837.870     2413683.644 7   1879374.056 2
  20048500.159    -7274567.783 7  -5642549.035 2
  20590780.456   -15438370.173 7 -11980385.857 2
  21635246.034   -14599082.513 6 -10444559.008 1
 90 10 11 13 10 44.9990000  0  4 02 06 13 09
  21236531.331     2427857.883 7   1890418.901 2
  20046239.472    -7286443.807 7  -5651803.080 2
  20583837.933   -15474852.742 7 -12008813.836 2
  21626492.081   -14645079.988 6 -10480401.192 1
 90 10 11 13 10 59.9990000  0  4 02 06 13 09
  21239233.964     2442071.761 7   1901494.629 2
  20044001.550    -7298206.814 7  -5660969.064 2
  20576920.769   -15511204.272 7 -12037139.696 2
  21617748.284   -14691026.329 6 -10516203.524 1
 90 10 11 13 11 14.9990000  0  4 02 06 13 09
  21241952.159     2456329.704 7   1912604.700 2
  20041786.394    -7309852.189 7  -5670043.389 2
  20570028.065   -15547420.219 7 -12065359.909 2
  21609017.339   -14736916.757 6 -10551962.292 1
 90 10 11 13 11 29.9990000  0  4 02 06 13 09
  21244667.050     2470628.203 7   1923746.371 2
  20039592.683    -7321382.808 7  -5679028.294 2
  20563161.573   -15583503.778 7 -12093476.969 2
  21600294.229   -14782754.205 6 -10587679.788 1
 90 10 11 13 11 44.9990000  0  4 02 06 13 09
  21247397.823     2484971.520 7   1934922.965 2
  20037417.776    -7332794.219 7  -5687920.310 2
  20556321.401   -15619450.354 7 -12121487.277 2
  21591579.597   -14828534.191 6 -10623352.498 1
 90 10 11 13 11 59.9990000  0  4 02 06 13 09
  21250138.464     2499353.283 7   1946129.510 2
  20035266.886    -7344092.841 7  -5696724.440 2
  20549505.690   -15655266.310 7 -12149395.811 2
  21582878.800   -14874262.966 6 -10658985.302 1
 90 10 11 13 12 14.9990000  0  4 02 06 13 09
  21252879.058     2513775.033 7   1957367.216 2
  20033141.394    -7355276.918 7  -5705439.316 2
  20542715.706   -15690950.011 7 -12177201.281 2
  21574186.909   -14919938.613 6 -10694576.711 1
 90 10 11 13 12 29.9990000  0  4 02 06 13 09
  21255635.339     2528234.084 7   1968633.990 2
  20031035.276    -7366348.724 7  -5714066.705 2
  20535949.558   -15726504.002 7 -12204905.687 2
  21565508.159   -14965563.303 6 -10730128.416 1
 90 10 11 13 12 44.9990000  0  4 02 06 13 09
  21258394.206     2542738.798 7   1979936.353 2
  20028951.276    -7377299.506 7  -5722599.793 2
  20529210.284   -15761919.870 7 -12232502.462 2
  21556835.073   -15011128.463 6 -10765633.722 1
 90 10 11 13 12 59.9990000  0  4 02 06 13 09
  21261161.347     2557285.288 7   1991271.260 2
  20026889.206    -7388133.075 7  -5731041.542 2
  20522495.237   -15797201.333 7 -12259994.508 2
  21548173.292   -15056637.554 6 -10801095.355 1
 90 10 11 13 13 14.9990000  0  4 02 06 13 09
  21263936.792     2571877.387 7   2002641.712 2
  20024850.550    -7398845.415 7  -5739388.831 2
  20515809.940   -15832344.336 7 -12287378.659 2
  21539526.628   -15102086.461 6 -10836510.077 1
 90 10 11 13 13 29.9990000  0  4 02 06 13 09
  21266720.706     2586506.295 7   2014040.850 2
  20022831.878    -7409445.140 7  -5747648.366 2
  20509146.730   -15867357.771 7 -12314661.849 2
  21530888.878   -15147483.656 6 -10871884.514 1
 90 10 11 13 13 44.9990000  0  4 02 06 13 09
  21269512.315     2601174.277 7   2025470.424 2
  20020838.206    -7419929.897 7  -5755818.310 2
  20502508.737   -15902239.257 7 -12341842.225 2
  21522257.659   -15192826.756 6 -10907216.792 1
 90 10 11 13 13 59.9990000  0  4 02 06 13 09
  21272312.300     2615882.037 7   2036930.995 2
  20018864.222    -7430298.523 7  -5763897.764 2
  20495897.386   -15936987.496 7 -12368918.771 2
  21513642.815   -15238114.781 6 -10942506.161 1
 90 10 11 13 14 14.9990000  0  4 02 06 13 09
  21275121.128     2630629.967 7   2048422.867 2
  20016914.815    -7440550.582 7  -5771886.385 2
  20489309.229   -15971602.242 7 -12395891.299 2
  21505033.667   -15283346.817 6 -10977751.892 1
 90 10 11 13 14 29.9990000  0  4 02 06 13 09
  21277926.831     2645420.573 7   2059947.997 2
  20014987.589    -7450683.352 7  -5779782.053 2
  20482748.042   -16006080.676 7 -12422757.604 2
  21496437.151   -15328520.027 6 -11012951.792 1
 90 10 11 13 14 44.9990000  0  4 02 06 13 09
  21280753.620     2660251.442 7   2071504.500 2
  20013080.792    -7460699.014 7  -5787586.476 2
  20476213.401   -16040425.528 7 -12449519.826 2
  21487852.683   -15373636.835 6 -11048107.743 1
 90 10 11 13 14 59.9990000  0  4 02 06 13 09
  21283585.464     2675125.053 7   2083094.305 2
  20011195.878    -7470594.857 7  -5795297.535 2
  20469702.144   -16074634.139 7 -12476175.882 2
  21479277.565   -15418694.119 6 -11083217.309 1
 90 10 11 13 15 14.9990000  0  4 02 06 13 09
  21286422.058     2690039.714 7   2094716.093 2
  20009336.511    -7480372.321 7  -5802916.354 2
  20463218.362   -16108707.754 7 -12502726.747 2
  21470714.644   -15463693.394 6 -11118281.672 1
 90 10 11 13 15 29.9990000  0  4 02 06 13 09
  21289266.800     2704998.997 7   2106372.654 2
  20007500.261    -7490027.672 7  -5810440.008 2
  20456760.292   -16142642.985 7 -12529169.784 2
  21462164.034   -15508630.626 6 -11153297.692 1
 90 10 11 13 15 44.9990000  0  4 02 06 13 09
  21292126.425     2720000.916 7   2118062.442 2
  20005684.597    -7499562.565 7  -5817869.799 2
  20450329.151   -16176441.632 7 -12555506.387 2
  21453624.651   -15553507.578 6 -11188266.743 1
 90 10 11 13 15 59.9990000  0  4 02 06 13 09
  21294986.104     2735044.309 7   2129784.552 2
  20003893.503    -7508978.122 7  -5825206.605 2
  20443923.261   -16210104.583 7 -12581737.255 2
  21445095.589   -15598325.139 6 -11223189.517 1
 90 10 11 13 16 14.9990000  0  4 02 06 13 09
  21297855.495     2750129.712 7   2141539.391 2
  20002123.190    -7518273.568 7  -5832449.823 2
  20437545.354   -16243631.221 7 -12607861.908 2
  21436578.761   -15643082.314 6 -11258065.226 1
 90 10 11 13 16 29.9990000  0  4 02 06 13 09
  21300738.495     2765257.627 7   2153327.354 2
  20000376.761    -7527448.043 7  -5839598.769 2
  20431190.089   -16277021.282 7 -12633880.135 2
  21428073.120   -15687778.586 6 -11292893.488 1
 90 10 11 13 16 44.9990000  0  4 02 06 13 09
  21303627.948     2780420.916 7   2165142.880 2
  19998654.284    -7536508.776 7  -5846659.096 2
  20424860.964   -16310281.545 7 -12659797.218 2
  21419577.315   -15732420.596 6 -11327679.467 1
 90 10 11 13 16 59.9990000  0  4 02 06 13 09
  21306514.870     2795625.518 7   2176990.596 2
  19996952.503    -7545449.464 7  -5853625.872 2
  20418556.839   -16343405.871 7 -12685608.371 2
  21411093.761   -15777001.928 6 -11362418.164 1
 90 10 11 13 17 14.9990000  0  4 02 06 13 09
  21309416.980     2810872.046 7   2188870.984 2
  19995273.854    -7554269.268 7  -5860498.448 2
  20412280.472   -16376393.728 7 -12711313.195 2
  21402622.933   -15821521.783 6 -11397108.956 1
 90 10 11 13 17 29.9990000  0  4 02 06 13 09
  21312327.151     2826165.334 7   2200787.821 2
  19993619.917    -7562962.886 7  -5867272.704 2
  20406028.386   -16409239.942 7 -12736907.643 2
  21394163.081   -15865974.960 6 -11431747.793 1
 90 10 11 13 17 44.9980000  0  4 02 06 13 09
  21315245.951     2841500.503 7   2212737.283 2
  19991988.693    -7571533.727 7  -5873951.289 2
  20399804.787   -16441946.278 7 -12762393.101 2
  21385717.248   -15910362.013 6 -11466335.103 1
 90 10 11 13 17 59.9980000  0  4 02 06 13 09
  21318177.584     2856878.402 7   2224720.039 2
  19990379.186    -7579984.136 7  -5880536.034 2
  20393607.607   -16474518.289 7 -12787773.888 2
  21377279.889   -15954690.119 6 -11500876.478 1
 90 10 11 13 18 14.9980000  0  4 02 06 13 09
  21321104.615     2872296.986 7   2236734.490 2
  19988794.896    -7588314.210 7  -5887027.011 2
  20387434.943   -16506954.734 7 -12813049.031 2
  21368858.623   -15998956.667 6 -11535369.892 1
 90 10 11 13 18 29.9980000  0  4 02 06 13 09
  21324050.053     2887756.836 7   2248781.103 2
  19987233.936    -7596522.993 7  -5893423.472 2
  20381289.397   -16539254.882 7 -12838217.974 2
  21360446.678   -16043160.801 6 -11569814.666 1
 90 10 11 13 18 44.9980000  0  4 02 06 13 09
  21326996.092     2903260.914 7   2260862.177 2
  19985694.271    -7604607.296 7  -5899722.942 2
  20375167.701   -16571415.380 7 -12863278.101 2
  21352046.053   -16087299.267 6 -11604208.268 1
 90 10 11 13 18 59.9980000  0  4 02 06 13 09
  21329958.022     2918807.922 7   2272976.704 2
  19984179.686    -7612568.136 7  -5905926.207 2
  20369074.287   -16603437.530 7 -12888230.421 2
  21343660.545   -16131372.672 6 -11638551.176 1
 90 10 11 13 19 14.9980000  0  4 02 06 13 09
  21332922.459     2934395.815 7   2285123.086 2
  19982688.412    -7620407.668 7  -5912034.941 2
  20363007.482   -16635323.562 7 -12913076.676 2
  21335284.865   -16175383.077 6 -11672844.996 1
 90 10 11 13 19 29.9980000  0  4 02 06 13 09
  21335899.951     2950025.232 7   2297301.826 2
  19981218.389    -7628125.041 7  -5918048.489 2
  20356965.631   -16667072.708 7 -12937816.269 2
  21326923.475   -16219329.801 6 -11707089.191 1
 90 10 11 13 19 44.9980000  0  4 02 06 13 09
  21338878.826     2965696.075 7   2309512.857 2
  19979772.732    -7635720.185 7  -5923966.795 2
  20350949.826   -16698685.027 7 -12962449.241 2
  21318571.318   -16263212.443 6 -11741283.456 1
 90 10 11 13 19 59.9980000  0  4 02 06 13 09
  21341866.545     2981409.074 7   2321756.733 2
  19978351.178    -7643192.181 7  -5929789.138 2
  20344960.967   -16730159.651 7 -12986974.921 2
  21310233.639   -16307029.846 6 -11775426.884 1
 90 10 11 13 20 14.9980000  0  4 02 06 13 09
  21344870.146     2997165.414 7   2334034.372 2
  19976954.795    -7650539.570 7  -5935514.390 2
  20338996.912   -16761495.342 7 -13011392.341 2
  21301907.654   -16350780.538 6 -11809518.334 1
 90 10 11 13 20 29.9980000  0  4 02 06 13 09
  21347873.381     3012962.424 7   2346343.710 2
  19975579.498    -7657764.456 7  -5941144.184 2
  20333060.631   -16792694.097 7 -13035703.055 2
  21293594.553   -16394466.798 6 -11843559.577 1
 90 10 11 13 20 44.9980000  0  4 02 06 13 09
  21350887.318     3028805.882 7   2358689.243 2
  19974228.896    -7664861.308 7  -5946674.209 2
  20327150.467   -16823750.552 7 -13059902.889 2
  21285294.607   -16438082.545 6 -11877545.868 1
 90 10 11 13 20 59.9980000  0  4 02 06 13 09
  21353912.225     3044690.146 7   2371066.566 2
  19972902.990    -7671835.486 7  -5952108.640 2
  20321267.748   -16854670.279 7 -13083996.177 2
  21277006.967   -16481633.063 6 -11911481.341 1
 90 10 11 13 21 14.9980000  0  4 02 06 13 09
  21356942.186     3060615.684 7   2383476.053 2
  19971599.521    -7678686.267 7  -5957446.924 2
  20315410.428   -16885452.721 7 -13107982.496 2
  21268732.311   -16525117.612 6 -11945365.394 2
 90 10 11 13 21 29.9980000  0  4 02 06 13 09
  21359979.693     3076584.935 7   2395919.600 2
  19970317.670    -7685411.187 7  -5962687.133 2
  20309577.787   -16916095.460 7 -13131859.952 2
  21260470.717   -16568533.695 6 -11979196.114 1
 90 10 11 13 21 44.9980000  0  4 02 06 13 09
  21363029.029     3092595.209 7   2408395.111 2
  19969062.272    -7692012.746 7  -5967831.224 2
  20303773.147   -16946600.833 7 -13155630.375 2
  21252222.022   -16611883.299 6 -12012975.021 1
 90 10 11 13 21 59.9980000  0  4 02 06 13 09
  21366086.389     3108648.820 7   2420904.387 2
  19967829.232    -7698488.192 7  -5972877.040 2
  20297994.725   -16976966.555 7 -13179291.974 2
  21243984.826   -16655163.720 6 -12046700.022 1
 90 10 11 13 22 14.9980000  0  4 02 06 13 09
  21369147.139     3124746.058 7   2433447.656 2
  19966622.232    -7704837.487 7  -5977824.552 2
  20292241.904   -17007192.484 7 -13202844.646 2
  21235761.842   -16698374.769 6 -12080370.962 1
 90 10 11 13 22 29.9980000  0  4 02 06 13 09
  21372224.420     3140886.481 7   2446024.586 2
  19965437.607    -7711060.652 7  -5982673.784 2
  20286517.584   -17037278.916 7 -13226288.618 2
  21227554.709   -16741516.449 6 -12113987.850 1
 90 10 11 13 22 44.9980000  0  4 02 06 13 09
  21375291.662     3157068.188 7   2458633.679 2
  19964278.107    -7717159.319 7  -5987426.002 2
  20280818.147   -17067227.666 7 -13249625.307 2
  21219356.295   -16784590.025 6 -12147551.677 1
 90 10 11 13 22 59.9980000  0  4 02 06 13 09
  21378390.006     3173293.759 7   2471276.960 2
  19963142.756    -7723130.786 7  -5992079.101 2
  20275146.475   -17097035.858 7 -13272852.471 2
  21211173.326   -16827592.820 6 -12181060.344 1
 90 10 11 13 23 14.9980000  0  4 02 06 13 09
  21381473.529     3189561.207 7   2483952.864 2
  19962027.639    -7728976.833 7  -5996634.470 2
  20269500.584   -17126705.530 7 -13295971.690 2
  21203003.451   -16870526.551 6 -12214515.203 1
 90 10 11 13 23 29.9980000  0  4 02 06 13 09
  21384585.568     3205874.966 7   2496664.848 2
  19960942.654    -7734692.886 7  -6001088.552 2
  20263881.412   -17156232.309 7 -13318979.570 2
  21194846.920   -16913386.359 6 -12247912.452 1
 90 10 11 13 23 44.9980000  0  4 02 06 13 09
  21387697.654     3222231.964 7   2509410.529 2
  19959877.732    -7740282.006 7  -6005443.730 2
  20258287.771   -17185619.191 7 -13341878.441 2
  21186704.732   -16956175.177 6 -12281254.380 1
 90 10 11 13 23 59.9980000  0  4 02 06 13 09
  21390820.170     3238633.710 7   2522191.085 2
  19958838.764    -7745742.615 7  -6009698.764 2
  20252724.396   -17214864.674 7 -13364667.131 2
  21178575.365   -16998891.151 6 -12314539.561 1
 90 10 11 13 24 14.9980000  0  4 02 06 13 09
  21393950.154     3255079.880 7   2535006.253 2
  19957824.373    -7751074.491 7  -6013853.487 2
  20247185.842   -17243968.705 7 -13387345.601 2
  21170461.834   -17041534.151 7 -12347767.870 1
 90 10 11 13 24 29.9980000  0  4 02 06 13 09
  21397087.076     3271564.958 7   2547851.748 2
  19956834.904    -7756283.214 7  -6017912.240 2
  20241672.326   -17272936.996 7 -13409918.290 2
  21162359.967   -17084109.368 7 -12380943.366 1
 90 10 11 13 24 44.9980000  0  4 02 06 13 09
  21400232.326     3288090.367 7   2560728.663 2
  19955865.873    -7761367.059 7  -6021873.691 2
  20236185.436   -17301767.875 7 -13432383.909 2
  21154271.014   -17126614.986 7 -12414064.626 1
 90 10 11 13 24 59.9980000  0  4 02 06 13 09
  21403381.826     3304662.027 7   2573641.612 2
  19954923.115    -7766319.815 7  -6025732.994 2
  20230727.295   -17330455.275 7 -13454737.729 2
  21146197.365   -17169044.619 7 -12447126.683 2
 90 10 11 13 25 14.9980000  0  4 02 06 13 09
  21406550.631     3321276.811 7   2586588.168 2
  19954002.889    -7771144.596 7  -6029492.580 2
  20225294.811   -17359002.561 7 -13476982.369 2
  21138138.037   -17211401.597 7 -12480132.120 1
 90 10 11 13 25 29.9980000  0  4 02 06 13 09
  21409717.295     3337935.281 7   2599568.759 2
  19953109.068    -7775840.777 7  -6033151.950 2
  20219890.326   -17387409.212 7 -13499117.422 2
  21130091.373   -17253684.653 7 -12513079.961 2
 90 10 11 13 25 44.9980000  0  4 02 06 13 09
  21412893.139     3354636.523 7   2612582.683 2
  19952242.451    -7780409.082 7  -6036711.680 2
  20214510.264   -17415675.983 7 -13521143.478 2
  21122058.506   -17295894.492 7 -12545970.743 2
 90 10 11 13 25 59.9980000  0  4 02 06 13 09
  21416075.982     3371383.398 7   2625632.166 2
  19951396.045    -7784846.583 7  -6040169.486 2
  20209159.225   -17443799.947 7 -13543058.252 2
  21114040.959   -17338028.050 7 -12578802.090 1
 90 10 11 13 26 14.9980000  0  4 02 06 13 09
  21419278.553     3388172.955 7   2638714.896 2
  19950576.717    -7789155.870 7  -6043527.389 2
  20203834.037   -17471784.133 7 -13564864.112 2
  21106037.053   -17380087.755 7 -12611575.886 2
 90 10 11 13 26 29.9980000  0  4 02 06 13 09
  21422478.357     3405005.948 7   2651831.478 2
  19949782.623    -7793336.118 7  -6046784.747 2
  20198535.873   -17499627.678 7 -13586560.382 2
  21098048.256   -17422072.570 7 -12644291.328 2
 90 10 11 13 26 44.9980000  0  4 02 06 13 09
  21425689.139     3421884.028 7   2664983.200 2
  19949011.068    -7797385.469 7  -6049940.098 2
  20193263.865   -17527328.894 7 -13608145.748 2
  21090072.404   -17463980.629 7 -12676946.960 2
 90 10 11 13 26 59.9980000  0  4 02 06 13 09
  21428909.607     3438801.076 7   2678165.280 2
  19948264.342    -7801309.851 7  -6052998.074 2
  20188019.256   -17554893.780 7 -13629624.884 2
  21082111.951   -17505817.733 7 -12709547.306 2
 90 10 11 13 27 14.9980000  0  4 02 06 13 09
  21432133.076     3455760.122 7   2691380.084 2
  19947542.764    -7805106.225 7  -6055956.303 2
  20182799.100   -17582319.147 7 -13650995.300 2
  21074165.131   -17547580.227 7 -12742089.512 1
 90 10 11 13 27 29.9980000  0  4 02 06 13 09
  21435373.357     3472767.450 7   2704632.512 2
  19946846.889    -7808768.128 7  -6058809.745 2
  20177608.521   -17609598.967 7 -13672252.301 2
  21066233.709   -17589261.939 7 -12774568.778 2
 90 10 11 13 27 44.9980000  0  4 02 06 13 09
  21438617.014     3489816.191 7   2717917.210 2
  19946171.092    -7812302.053 7  -6061563.465 2
  20172443.748   -17636740.085 7 -13693401.225 2
  21058315.162   -17630869.093 7 -12806989.939 1
 90 10 11 13 27 59.9980000  0  4 02 06 13 09
  21441870.162     3506911.427 7   2731238.141 2
  19945526.451    -7815702.960 7  -6064213.541 2
  20167306.896   -17663737.230 7 -13714437.966 2
  21050411.928   -17672396.312 7 -12839348.816 1
 90 10 11 13 28 14.9980000  0  4 02 06 13 09
  21445132.326     3524055.832 7   2744597.387 2
  19944904.592    -7818968.007 7  -6066757.757 2
  20162197.318   -17690587.448 7 -13735360.215 2
  21042526.475   -17713840.583 7 -12871643.059 1
 90 10 11 13 28 29.9980000  0  4 02 06 13 09
  21448400.467     3541239.183 7   2757986.972 2
  19944308.490    -7822107.179 7  -6069203.875 2
  20157113.256   -17717301.238 7 -13756176.160 2
  21034653.920   -17755211.898 7 -12903880.449 1
 90 10 11 13 28 44.9980000  0  4 02 06 13 09
  21451680.646     3558465.474 7   2771410.023 2
  19943732.881    -7825116.365 7  -6071548.707 2
  20152056.131   -17743874.509 7 -13776882.603 2
  21026797.271   -17796505.952 7 -12936057.638 2
 90 10 11 13 28 59.9980000  0  4 02 06 13 09
  21454962.576     3575732.499 7   2784864.820 2
  19943185.842    -7827997.784 7  -6073793.987 2
  20147027.147   -17770309.537 7 -13797481.330 2
  21018952.850   -17837724.653 7 -12968176.107 2
 90 10 11 13 29 14.9980000  0  4 02 06 13 09
  21458258.498     3593048.309 7   2798357.623 2
  19942661.693    -7830743.344 7  -6075933.405 2
  20142022.506   -17796598.389 7 -13817966.154 2
  21011124.818   -17878859.822 7 -13000229.484 2
 90 10 11 13 29 29.9980000  0  4 02 06 13 09
  21461570.061     3610415.978 7   2811890.825 2
  19942167.654    -7833349.338 7  -6077964.065 2
  20137049.303   -17822737.678 7 -13838334.432 2
  21003312.451   -17919907.574 7 -13032214.746 2
 90 10 11 13 29 44.9980000  0  4 02 06 13 09
  21464880.076     3627826.506 7   2825457.444 2
  19941694.982    -7835824.963 7  -6079893.143 2
  20132102.896   -17848736.635 7 -13858593.362 2
  20995516.076   -17960876.914 7 -13064138.914 2
 90 10 11 13 29 59.9980000  0  4 02 06 13 09
  21468203.607     3645277.859 7   2839055.867 2
  19941247.850    -7838172.021 7  -6081722.043 2
  20127180.451   -17874597.199 7 -13878744.455 2
  20987734.623   -18001769.281 7 -13096003.099 2
 90 10 11 13 30 14.9980000  0  4 02 06 13 09
  21471536.334     3662779.927 7   2852693.805 2
  19940830.225    -7840380.542 7  -6083442.987 2
  20122287.576   -17900309.345 7 -13898779.897 2
  20979968.998   -18042574.927 6 -13127799.714 2
 90 10 11 13 30 29.9980000  0  4 02 06 13 09
  21474866.826     3680322.178 7   2866363.054 2
  19940432.037    -7842460.847 7  -6085064.023 2
  20117421.811   -17925883.519 7 -13918707.827 2
  20972220.475   -18083303.725 7 -13159536.444 2
 90 10 11 13 30 44.9980000  0  4 02 06 13 09
  21478214.357     3697905.002 7   2880063.914 2
  19940064.201    -7844412.435 7  -6086584.761 2
  20112580.787   -17951319.494 7 -13938528.073 2
  20964483.061   -18123954.940 7 -13191212.717 2
 90 10 11 13 30 59.9980000  0  4 02 06 13 09
  21481570.592     3715531.604 7   2893798.889 2
  19939715.529    -7846232.127 7  -6088002.717 2
  20107767.897   -17976614.062 7 -13958238.125 2
  20956763.662   -18164525.185 7 -13222825.896 2
 90 10 11 13 31 14.9980000  0  4 02 06 13 09
  21484933.373     3733204.880 7   2907570.244 2
  19939394.350    -7847916.597 7  -6089315.310 2
  20102982.115   -18001764.278 7 -13977835.701 2
  20949059.365   -18205011.073 7 -13254373.351 2
 90 10 11 13 31 29.9980000  0  4 02 06 13 09
  21488305.850     3750921.344 7   2921375.241 2
  19939102.076    -7849469.375 7  -6090525.286 2
  20098223.061   -18026773.398 7 -13997323.326 2
  20941370.826   -18245415.909 7 -13285857.649 2
 90 10 11 13 31 44.9980000  0  4 02 06 13 09
  21491683.154     3768682.043 7   2935214.713 2
  19938827.803    -7850889.279 7  -6091631.716 2
  20093490.631   -18051640.699 7 -14016700.451 2
  20933697.779   -18285738.412 7 -13317277.779 2
 90 10 11 13 31 59.9980000  0  4 02 06 13 09
  21495072.811     3786483.519 7   2949085.952 2
  19938584.037    -7852179.727 7  -6092637.274 2
  20088784.576   -18076369.614 7 -14035969.738 2
  20926039.607   -18325981.696 7 -13348636.187 2
 90 10 11 13 32 14.9980000  0  4 02 06 13 09
  21498469.271     3804331.171 7   2962993.174 2
  19938365.115    -7853334.844 7  -6093537.387 2
  20084107.506   -18100954.622 7 -14055126.891 2
  20918397.779   -18366139.678 7 -13379928.125 2
 90 10 11 13 32 29.9980000  0  4 02 06 13 09
  21501873.201     3822225.811 7   2976937.010 2
  19938169.772    -7854353.941 7  -6094331.512 2
  20079455.225   -18125394.809 7 -14074171.200 2
  20910772.740   -18406211.482 7 -13411152.913 2
 90 10 11 13 32 44.9980000  0  4 02 06 13 09
  21505284.857     3840159.328 7   2990911.142 2
  19938000.600    -7855245.185 7  -6095026.014 2
  20074831.600   -18149698.490 7 -14093109.131 2
  20903162.209   -18446204.881 7 -13442316.608 2
 90 10 11 13 32 59.9980000  0  4 02 06 13 09
  21508705.951     3858137.980 7   3004920.434 2
  19937858.014    -7856001.952 7  -6095615.726 2
  20070233.522   -18173859.141 7 -14111935.621 2
  20895566.662   -18486113.503 7 -13473414.243 2
 90 10 11 13 33 14.9980000  0  4 02 06 13 09
  21512133.592     3876159.483 7   3018963.125 2
  19937741.803    -7856626.204 7  -6096102.179 2
  20065662.740   -18197879.038 7 -14130652.432 2
  20887988.147   -18525938.879 7 -13504447.012 2
 90 10 11 13 33 29.9980000  0  4 02 06 13 09
  21515574.686     3894226.879 7   3033041.576 2
  19937644.396    -7857115.103 7  -6096483.153 2
  20061117.732   -18221755.362 7 -14149257.363 2
  20880426.561   -18565677.984 7 -13535412.550 2
 90 10 11 13 33 44.9980000  0  4 02 06 13 09
  21519024.646     3912340.702 7   3047156.199 2
  19937579.943    -7857467.941 7  -6096758.105 2
  20056603.756   -18245487.854 7 -14167750.218 2
  20872881.029   -18605329.825 7 -13566310.093 2
 90 10 11 13 33 59.9980000  0  4 02 06 13 09
  21522474.428     3930499.404 7   3061305.797 2
  19937534.170    -7857686.095 7
  20052114.061   -18269077.842 7 -14186132.032 2
  20865352.404   -18644895.701 7 -13597140.653 2
 90 10 11 13 34 14.9980000  0  4 02 06 13 09
  21525943.654     3948706.619 7   3075493.199 2
  19937522.451    -7857765.947 7
  20047651.975   -18292521.581 7 -14204399.882 2
  20857840.170   -18684371.653 7 -13627901.140 2
 90 10 11 13 34 29.9980000  0  4 02 06 13 09
  21529412.342     3966954.796 7   3089712.509 2
  19937530.053    -7857714.786 7
  20043218.982   -18315826.465 7 -14222559.539 2
  20850343.748   -18723764.811 7 -13658597.116 2
 90 10 11 13 34 44.9980000  0  4 02 06 13 09
  21532894.873     3985248.920 7   3103967.632 2
  19937564.326    -7857527.495 7
  20038809.678   -18338987.809 7 -14240607.352 2
  20842865.920   -18763070.100 7 -13689224.617 2
 90 10 11 13 34 59.9980000  0  4 02 06 13 09
  21536390.326     4003593.146 7   3118261.791 2
  19937629.217    -7857200.035 7
  20034432.936   -18362001.583 7 -14258540.167 2
  20835401.350   -18802282.829 7 -13719779.995 2
 90 10 11 13 35 14.9980000  0  4 02 06 13 09
  21539887.373     4021977.467 7   3132587.190 2
  19937715.201    -7856742.253 7        -0.25912
  20030077.857   -18384877.707 7 -14276365.719 2
  20827956.826   -18841412.905 7 -13750270.976 2
 90 10 11 13 35 29.9980000  0  5 02 12 06 13 09
  21543393.850     4040410.949 7   3146950.904 2
  24344268.451          -0.05313
  19937827.943    -7856144.590 7       465.428 2
  20025753.607   -18407606.932 7 -14294076.813 2
  20820528.537   -18880450.324 7 -13780689.754 2
 90 10 11 13 35 44.9980000  0  5 02 12 06 13 09
  21546906.834     4058887.140 7   3161347.891 2
  24333884.459      -54565.832 3
  19937969.490    -7855413.423 7      1035.149 2
  20021454.795   -18430195.761 7 -14311678.506 2
  20813115.686   -18919401.783 7 -13811041.547 2
 90 10 11 13 35 59.9980000  0  5 02 12 06 13 09
  21550430.928     4077405.372 7   3175777.647 2
  24323499.342     -109139.265 3        -0.48111
  19938129.576    -7854549.628 7      1708.220 2
  20017181.553   -18452645.131 7 -14329171.525 2
  20805719.029   -18958267.539 7 -13841326.564 2
 90 10 11 13 36 14.9980000  0  5 02 12 06 13 09
  21553965.850     4095967.181 7   3190241.348 2
  24313116.271     -163718.865 4    -42530.049 1
  19938323.529    -7853551.725 7      2485.779 2
  20012936.826   -18474953.409 7 -14346554.606 2
  20798340.209   -18997045.857 7 -13871543.445 2
 90 10 11 13 36 29.9980000  0  5 02 12 06 13 09
  21557506.553     4114577.023 7   3204742.478 2
  24302726.842     -218299.537 4    -85060.442 1
  19938537.522    -7852414.674 7      3371.767 2
  20008719.654   -18497116.124 7 -14363824.261 2
  20790977.147   -19035731.495 7 -13901688.111 2
 90 10 11 13 36 44.9980000  0  5 02 12 06 13 09
  21561057.568     4133232.665 7   3219279.292 2
  24292341.764     -272883.466 4   -127593.374 1
  19938781.584    -7851140.781 7      4364.386 2
  20004530.342   -18519135.610 7 -14380982.308 2
  20783632.990   -19074326.895 7 -13931762.458 2
 90 10 11 13 36 59.9980000  0  5 02 12 06 13 09
  21564610.311     4151928.803 6   3233847.665 2
  24281950.146     -327475.785 4   -170132.849 1
  19939049.654    -7849735.354 7      5459.497 2
  20000365.482   -18541017.181 7 -14398032.889 2
  20776306.264   -19112836.784 7 -13961770.175 2
 90 10 11 13 37 14.9980000  0  5 02 12 06 13 09
  21568183.131     4170670.789 7   3248451.772 2
  24271563.545     -382070.917 4   -212674.486 1
  19939343.334    -7848192.855 7      6661.420 2
  19996229.186   -18562755.447 7 -14414971.804 2
  20768996.045   -19151255.374 7 -13991706.750 2
 90 10 11 13 37 29.9980000  0  5 02 12 06 13 09
  21571757.459     4189460.760 7   3263093.262 2
  24261172.920     -436666.579 4   -255216.557 1
  19939663.881    -7846511.017 7      7971.924 2
  19992120.311   -18584348.167 7 -14431797.306 2
  20761701.678   -19189580.314 7 -14021570.351 2
 90 10 11 13 37 44.9980000  0  5 02 12 06 13 09
  21575339.881     4208295.544 7   3277769.668 2
  24250784.420     -491265.923 5   -297761.537 1
  19940009.475    -7844693.094 7      9388.463 2
  19988037.889   -18605798.953 7 -14448512.210 2
  20754425.576   -19227814.760 7 -14051363.434 2
 90 10 11 13 37 59.9980000  0  5 02 12 06 13 09
  21578929.748     4227173.116 6   3292479.424 2
  24240392.420     -545870.635 5   -340310.677 1
  19940379.521    -7842740.933 7     10909.605 2
  19983982.506   -18627109.779 7 -14465118.057 2
  20747167.795   -19265960.148 7 -14081087.124 2
 90 10 11 13 38 14.9980000  0  5 02 12 06 13 09
  21582534.443     4246102.638 6   3307229.651 2
  24230002.350     -600471.057 5   -382856.466 1
  19940778.795    -7840645.071 7     12542.718 2
  19979956.318   -18648271.172 7 -14481607.462 2
  20739926.912   -19304006.718 7 -14110733.814 2
 90 10 11 13 38 29.9980000  0  5 02 12 06 13 09
  21586146.506     4265077.013 6   3322014.831 2
  24219611.443     -655074.308 5   -425404.443 1
  19941205.717    -7838412.784 7     14282.132 2
  19975956.897   -18669290.539 7 -14497986.195 2
  20732704.896   -19341961.587 7 -14140309.052 2
 90 10 11 13 38 44.9980000  0  5 02 12 06 13 09
  21589765.193     4284094.569 7   3336833.661 2
  24209222.951     -709681.801 5   -467955.723 1
  19941653.967    -7836045.352 7     16126.862 2
  19971983.389   -18690169.451 7 -14514255.487 2
  20725499.404   -19379825.986 7 -14169813.793 2
 90 10 11 13 38 59.9980000  0  5 02 12 06 13 09
  21593396.146     4303152.488 7   3351683.941 1
  24198828.396     -764296.131 5   -510512.414 1
  19942129.818    -7833545.587 7     18074.704 2
  19968036.240   -18710910.888 7 -14530417.653 2
  20718312.139   -19417602.439 7 -14199249.992 2
 90 10 11 13 39 14.9980000  0  5 02 12 06 13 09
  21597028.022     4322253.365 7   3366567.700 2
  24188437.139     -818914.414 5
  19942634.881    -7830910.861 7     20127.715 2
  19964115.537   -18731512.201 7 -14546470.630 2
  20711139.201   -19455287.912 7 -14228615.311 2
 90 10 11 13 39 29.9980000  0  5 02 12 06 13 09
  21600667.811     4341397.982 6   3381485.543 2
  24178038.795     -873535.852 5
  19943159.443    -7828140.539 7     22286.388 2
  19960223.396   -18751972.777 7 -14562413.946 2
  20703985.139   -19492881.607 7 -14257909.109 2
 90 10 11 13 39 44.9980000  0  5 02 12 06 13 09
  21604323.889     4360588.151 7   3396438.873 2
  24167648.850     -928158.330 5
  19943713.381    -7825232.376 7     24552.468 2
  19956356.061   -18772290.909 7 -14578246.268 2
  20696851.443   -19530381.271 7 -14287129.635 2
 90 10 11 13 39 59.9980000  0  5 02 12 06 13 09
  21607981.920     4379828.072 6   3411430.983 2
  24157255.959     -982777.480 5
  19944292.428    -7822182.290 7     26929.132 2
  19952517.139   -18792462.096 7 -14593964.084 2
  20689732.561   -19567782.286 7 -14316273.292 2
 90 10 11 13 40 14.9980000  0  5 02 12 06 13 09
  21611652.436     4399110.620 6   3426456.292 2
  24146858.998    -1037400.070 5
  19944899.178    -7818997.091 7     29411.076 2
  19948705.967   -18812493.491 7 -14609572.969 2
  20682633.873   -19605091.277 7 -14345345.241 2
 90 10 11 13 40 29.9980000  0  5 02 12 06 13 09
  21615329.584     4418433.621 6   3441513.137 1
  24136462.311    -1092028.174 4
  19945531.311    -7815679.016 7     31996.560 2
  19944919.639   -18832387.438 7 -14625074.757 2
  20675550.014   -19642310.370 7 -14374347.142 2
 90 10 11 13 40 44.9980000  0  5 02 12 06 13 09
  21619009.576     4437800.610 6   3456604.253 1
  24126066.092    -1146658.214 4
  19946188.522    -7812224.670 7     34688.237 2
  19941160.662   -18852140.720 7 -14640466.931 2
  20668487.311   -19679435.849 7 -14403276.096 2
 90 10 11 13 40 59.9980000  0  5 02 12 06 13 09
  21622707.475     4457215.349 6   3471732.568 1
  24115668.459    -1201286.097 3
  19946872.100    -7808630.020 7     37489.237 2
  19937429.053   -18871749.449 7 -14655746.471 2
  20661440.201   -19716463.331 7 -14432128.693 2
 90 10 11 13 41 14.9980000  0  5 02 12 06 13 09
  21626410.178     4476672.190 6   3486893.695 1
  24105278.014    -1255917.044 4        -0.18811
  19947579.943    -7804900.276 7     40395.506 2
  19933724.811   -18891219.233 7 -14670917.743 2
  20654411.936   -19753398.182 7 -14460909.108 2
 90 10 11 13 41 29.9980000  0  5 02 12 06 13 09
  21630122.154     4496175.999 6   3502091.419 2
  24094878.623    -1310546.157 3    -42568.374 1
  19948319.396    -7801030.796 7     43410.666 2
  19930046.420   -18910545.267 7 -14685977.002 1
  20647402.404   -19790235.138 7 -14489613.241 2
 90 10 11 13 41 44.9980000  0  5 02 12 06 13 09
  21633839.990     4515724.496 6   3517323.966 2
  24084482.396    -1365175.682 3    -85136.828 1
  19949078.365    -7797023.908 7     46532.891 2
  19926395.771   -18929730.223 7 -14700926.327 2
  20640410.732   -19826976.383 7 -14518242.799 2
 90 10 11 13 41 59.9980000  0  5 02 12 06 13 09
  21637566.342     4535315.825 6   3532589.894 2
  24074086.865    -1419807.079 3   -127706.746 1
  19949869.740    -7792881.354 7     49760.835 2
  19922772.420   -18948775.898 7 -14715767.117 2
  20633437.311   -19863623.547 7 -14546799.044 2
 90 10 11 13 42 14.9980000  0  5 02 12 06 13 09
  21641306.209     4554949.339 6   3547888.685 2
  24063692.623    -1474440.905 3   -170278.591 1
  19950680.389    -7788603.766 7     53093.997 2
  19919173.084   -18967683.072 7 -14730499.992 2
  20626481.279   -19900176.740 7 -14575282.072 2
 90 10 11 13 42 29.9980000  0  5 02 12 06 13 09
  21645052.623     4574626.615 6   3563221.574 2
  24053296.107    -1529075.422 3   -212850.947 1
  19951523.209    -7784189.529 7     56533.637 3
  19915602.092   -18986450.269 7 -14745123.791 2
  20619543.584   -19936634.406 7 -14603690.655 2
 90 10 11 13 42 44.9980000  0  5 02 12 06 13 09
  21648804.857     4594354.883 6   3578594.206 2
  24042896.240    -1583703.253 3   -255418.099 1
  19952390.311    -7779631.502 7     60085.326 2
  19912058.967   -19005070.189 7 -14759632.830 2
  20612625.115   -19972988.884 7 -14632018.838 2
 90 10 11 13 42 59.9980000  0  5 02 12 06 13 09
  21652568.412     4614125.556 6   3593999.865 2
  24032507.014    -1638332.387 3   -297986.252 1
  19953282.850    -7774937.758 7     63742.759 2
  19908542.061   -19023551.280 7 -14774033.692 2
  20605724.584   -20009248.224 7 -14660272.878 2
 90 10 11 13 43 14.9980000  0  5 02 12 06 13 09
  21656335.061     4633938.005 6   3609438.090 2
  24022107.014    -1692963.458 3   -340555.943 1
  19954203.850    -7770108.966 7     67505.429 2
  19905052.420   -19041894.450 7 -14788327.082 2
  20598842.498   -20045412.655 7 -14688452.966 2
 90 10 11 13 43 29.9980000  0  5 02 12 06 13 09
  21660119.131     4653800.104 6   3624915.002 2
  24011713.951    -1747588.439 3   -383120.866 1
  19955149.107    -7765137.382 7     71379.357 2
  19901588.600   -19060091.959 7 -14802506.973 1
  20591981.482   -20081474.272 7 -14716552.944 2
 90 10 11 13 43 44.9980000  0  5 02 12 06 13 09
  21663906.873     4673710.204 6   3640429.322 2
  24001320.615    -1802208.524 3   -425681.998 1
  19956121.498    -7760024.267 7     75363.574 2
  19898154.225   -19078145.496 7 -14816574.677 2
  20585137.272   -20117434.157 7 -14744573.637 2
 90 10 11 13 43 59.9980000  0  5 02 12 06 13 09
  21667705.201     4693659.979 6   3655974.551 2
  23990926.076    -1856831.865 3   -468245.634 1
  19957121.787    -7754778.037 7     79451.519 2
  19894743.912   -19096063.357 7 -14830536.660 2
  20578313.568   -20153300.284 7 -14772521.281 2
 90 10 11 13 44 14.9980000  0  5 02 12 06 13 09
  21671511.420     4713657.440 6   3671556.938 2
  23980534.131    -1911450.233 3   -510805.415 1
  19958144.725    -7749390.588 7     83649.507 2
  19891361.428   -19113837.473 7 -14844386.625 1
  20571508.607   -20189064.465 7 -14800389.488 2
 90 10 11 13 44 29.9980000  0  5 02 12 06 13 09
  21675322.779     4733699.938 6   3687174.408 1
  23970140.498    -1966065.952 4   -553363.120 1
  19959197.482    -7743864.494 7     87955.529 2
  19888005.732   -19131470.762 7 -14858126.867 2
  20564720.693   -20224728.927 7 -14828179.990 2
 90 10 11 13 44 44.9980000  0  5 02 12 06 13 09
  21679143.186     4753789.250 6   3702828.373 2
  23959749.201    -2020677.241 4   -595917.369 1
  19960275.021    -7738198.054 7     92370.908 2
  19884677.045   -19148961.486 7 -14871756.017 2
  20557953.451   -20260291.694 7 -14855891.253 2
 90 10 11 13 44 59.9980000  0  5 02 12 06 13 09
  21682974.982     4773921.053 6   3718515.437 1
  23949349.701    -2075288.179 4   -638471.354 1
  19961381.381    -7732395.369 7     96892.451 2
  19881375.982   -19166314.012 7 -14885277.478 1
  20551205.076   -20295756.908 7 -14883526.498 2
 90 10 11 13 45 14.9980000  0  5 02 12 06 13 09
  21686816.100     4794098.649 6   3734238.191 2
  23938963.904    -2129895.122 4   -681022.238 1
  19962507.326    -7726453.147 7    101522.727 2
  19878100.068   -19183524.749 7 -14898688.453 2
  20544475.982   -20331120.529 7 -14911082.585 2
 90 10 11 13 45 29.9980000  0  5 02 12 06 13 09
  21690668.568     4814325.852 6   3749999.585 2
  23928573.451    -2184494.140 4   -723566.949 1
  19963668.818    -7720367.564 7    106264.710 2
  19874852.264   -19200590.362 7 -14911986.342 1
  20537765.787   -20366378.815 7 -14938556.589 2
 90 10 11 13 45 44.9980000  0  5 02 12 06 13 09
  21694524.920     4834600.178 6   3765797.709 1
  23918186.639    -2239087.550 4   -766107.279 1
  19964852.857    -7714141.078 7    111116.495 2
  19871634.436   -19217513.407 7 -14925173.140 2
  20531076.600   -20401533.720 7 -14965950.039 2
 90 10 11 13 45 59.9980000  0  5 02 12 06 13 09
  21698388.201     4854918.796 6   3781630.354 2
  23907797.529    -2293677.920 4   -808645.279 1
  19966063.529    -7707776.377 7    116075.968 2
  19868439.631   -19234296.891 7 -14938251.199 2
  20524405.264   -20436587.974 7 -14993265.058 2
 90 10 11 13 46 14.9980000  0  5 02 12 06 13 09
  21702267.201     4875276.495 6   3797493.441 1
  23897403.303    -2348270.174 4   -851184.703 1
  19967303.732    -7701278.790 7    121138.991 2
  19865270.975   -19250946.229 7 -14951224.720 1
  20517753.209   -20471546.457 7 -15020505.458 2
 90 10 11 13 46 29.9980000  0  5 02 12 06 13 09
  21706145.662     4895679.641 6   3813391.953 1
  23887020.834    -2402857.709 4   -893720.436 1
  19968565.779    -7694641.661 7    126310.742 2
  19862128.412   -19267455.069 7 -14964088.767 1
  20511119.818   -20506402.277 7 -15047665.840 2
 90 10 11 13 46 44.9980000  0  5 02 12 06 13 09
  21710038.271     4916129.717 6   3829327.022 1
  23876632.592    -2457438.765 5   -936251.133 1
  19969854.037    -7687863.507 7    131592.388 2
  19859015.545   -19283821.827 7 -14976842.097 2
  20504505.475   -20541153.498 7 -15074744.738 2
 90 10 11 13 46 59.9980000  0  5 02 12 06 13 09
  21713937.248     4936624.445 6   3845296.893 1
  23866248.240    -2512015.532 5   -978778.492 1
  19971172.006    -7680946.636 7    136982.122 2
  19855926.998   -19300049.095 7 -14989486.730 2
  20497913.506   -20575802.499 7 -15101743.973 2
 90 10 11 13 47 14.9980000  0  5 02 12 06 13 09
  21717847.162     4957163.385 6   3861301.206 1
  23855866.365    -2566588.148 5  -1021302.612 1
  19972514.076    -7673891.512 7    142479.598 2
  19852865.592   -19316137.164 7 -15002022.906 1
  20491339.576   -20610349.207 7 -15128663.505 2
 90 10 11 13 47 29.9980000  0  5 02 12 06 13 09
  21721763.201     4977749.176 6   3877342.041 1
  23845481.529    -2621153.792 5  -1063821.320 1
  19973883.092    -7666695.218 7    148087.071 2
  19849830.701   -19332083.657 7 -15014448.757 1
  20484785.389   -20644790.683 7 -15155501.034 2
 90 10 11 13 47 44.9980000  0  5 02 12 06 13 09
  21725690.631     4998380.477 6   3893418.322 1
  23835099.514    -2675713.397 5  -1106335.297 1
  19975276.647    -7659359.240 7    153803.389 2
  19846823.201   -19347889.725 7 -15026765.189 1
  20478250.889   -20679127.707 7 -15182257.174 2
 90 10 11 13 47 59.9980000  0  5 02 12 06 13 09
  21729628.061     5019055.493 6   3909528.666 1
  23824716.209    -2730268.771 5  -1148845.989 1
  19976700.264    -7651885.404 7    159627.131 2
  19843840.772   -19363557.529 7 -15038973.880 1
  20471737.068   -20713362.277 7 -15208933.475 2
 90 10 11 13 48 14.9980000  0  5 02 12 06 13 09
  21733562.193     5039773.295 6   3925672.359 1
  23814331.607    -2784820.626 4  -1191353.944 1
  19978149.693    -7644274.627 7    165557.569 2
  19840886.459   -19379088.041 7 -15051075.600 1
  20465242.037   -20747494.962 7 -15235530.394 2
 90 10 11 13 48 29.9980000  0  5 02 12 06 13 09
  21737518.896     5060537.372 6   3941852.101 1
  23803953.818    -2839364.993 5  -1233856.026 1
  19979622.037    -7636523.206 7    171597.605 2
  19837957.928   -19394477.845 7 -15063067.671 1
  20458767.654   -20781521.437 7 -15262044.548 2
 90 10 11 13 48 44.9980000  0  5 02 12 06 13 09
  21741475.771     5081347.699 6   3958067.888 1
  23793581.498    -2893901.556 5  -1276352.087 1
  19981126.404    -7628630.909 7    177747.409 2
  19835056.084   -19409726.965 7 -15074950.116 1
  20452311.475   -20815441.716 7 -15288475.955 2
 90 10 11 13 48 59.9980000  0  5 02 12 06 13 09
  21745448.631     5102202.457 6   3974318.290 1
  23783201.865    -2948432.215 5  -1318843.534 1
  19982651.248    -7620599.933 7    184005.282 2
  19832181.732   -19424837.387 7 -15086724.486 1
  20445876.670   -20849257.220 7 -15314825.712 2
 90 10 11 13 49 14.9980000  0  5 02 12 06 13 09
  21749427.092     5123103.824 6   3990605.021 1
  23772828.904    -3002954.569 5  -1361328.476 1
  19984208.061    -7612427.763 7    190373.186 2
  19829331.061   -19439807.021 7 -15098389.149 1
  20439462.522   -20882965.739 7 -15341092.113 2
 90 10 11 13 49 29.9980000  0  5 02 12 06 13 09
  21753410.061     5144051.362 6   4006927.726 1
  23762454.740    -3057468.710 5  -1403807.062 1
  19985789.053    -7604115.096 7    196850.563 2
  19826509.287   -19454636.704 7 -15109944.763 1
  20433070.232   -20916567.124 7 -15367275.021 2
 90 10 11 13 49 44.9980000  0  5 02 12 06 13 09
  21757405.568     5165042.224 6   4023284.190 1
  23752081.834    -3111977.204 5  -1446281.221 1
  19987399.826    -7595664.597 7    203435.335 2
  19823713.654   -19469328.961 7 -15121393.294 1
  20426694.756   -20950064.050 7 -15393376.544 2
 90 10 11 13 49 59.9980000  0  5 02 12 06 13 09
  21761408.154     5186078.220 6   4039675.813 1
  23741708.271    -3166478.000 5  -1488749.400 1
  19989033.514    -7587074.317 7    210129.018 2
  19820945.771   -19483882.148 7 -15132733.453 2
  20420340.045   -20983454.288 7 -15419394.925 2
 90 10 11 13 50 14.9980000  0  5 02 12 06 13 09
  21765419.834     5207154.707 6   4056098.996 1
  23731341.811    -3220975.549 5  -1531214.999 1
  19990693.756    -7578348.984 7    216927.946 2
  19818201.131   -19498301.246 7 -15143969.130 1
  20414005.740   -21016742.106 7 -15445333.505 2
 90 10 11 13 50 29.9980000  0  5 02 12 06 13 09
  21769436.607     5228273.804 6   4072555.371 1
  23720970.146    -3275467.449 5  -1573676.253 1
  19992382.365    -7569486.454 7    223833.778 2
  19815482.498   -19512584.169 7 -15155098.695 1
  20407691.389   -21049925.211 7 -15471190.488 2
 90 10 11 13 50 44.9980000  0  5 02 12 06 13 09
  21773464.318     5249443.080 6   4089050.858 1
  23710601.396    -3329945.933 5  -1616127.025 1
  19994095.654    -7560479.178 7    230852.408 2
  19812793.100   -19526723.533 7 -15166116.398 2
  20401397.123   -21082995.657 7 -15496959.687 2
 90 10 11 13 50 59.9980000  0  5 02 12 06 13 09
  21777502.795     5270652.975 6   4105577.976 1
  23700238.436    -3384420.223 4  -1658574.530 1
  19995834.092    -7551336.449 7    237976.572 2
  19810127.607   -19540728.909 7 -15177029.696 1
  20395123.826   -21115962.682 7 -15522648.299 2
 90 10 11 13 51 14.9980000  0  5 02 12 06 13 09
  21781545.998     5291909.606 6   4122141.534 1
  23689870.232    -3438884.095 4  -1701013.942 1
  19997604.037    -7542052.417 7    245210.837 2
  19807488.912   -19554594.272 7 -15187833.889 1
  20388872.139   -21148819.876 7 -15548251.327 2
 90 10 11 13 51 29.9980000  0  5 02 12 06 13 09
  21785596.311     5313207.024 6   4138736.860 1
  23679507.779    -3493343.357 4  -1743449.761 1
  19999394.912    -7532633.035 7    252550.582 2
  19804874.748   -19568325.925 7 -15198533.906 1
  20382638.584   -21181572.926 7 -15573773.204 2
 90 10 11 13 51 44.9980000  0  5 02 12 06 13 09
  21789661.193     5334551.654 6   4155368.986 1
  23669147.404    -3547791.425 4  -1785876.828 1
  20001212.787    -7523071.818 7    260000.859 2
  19802289.482   -19581917.510 7 -15209124.769 1
  20376427.459   -21214215.391 7 -15599208.914 2
 90 10 11 13 51 59.9980000  0  5 02 12 06 13 09
  21793733.225     5355941.660 6   4172036.460 1
  23658789.334    -3602229.637 5  -1828296.227 1
  20003058.334    -7513370.495 7    267560.303 2
  19799728.365   -19595370.791 7 -15219607.864 1
  20370236.482   -21246748.477 7 -15624559.393 2
 90 10 11 13 52 14.9980000  0  5 02 12 06 13 09
  21797810.482     5377375.617 6   4188738.191 1
  23648430.842    -3656659.217 5  -1870708.929 1
  20004931.248    -7503530.549 7    275227.752 2
  19797196.006   -19608687.265 7 -15229984.352 1
  20364066.397   -21279173.165 7 -15649825.406 2
 90 10 11 13 52 29.9980000  0  5 02 12 06 13 09
  21801901.631     5398851.967 6   4205472.937 1
  23638075.412    -3711081.770 4  -1913116.101 1
  20006828.795    -7493553.718 7    283001.867 2
  19794686.818   -19621868.849 7 -15240255.732 1
  20357917.115   -21311491.208 7 -15675008.314 2
 90 10 11 13 52 44.9980000  0  5 02 12 06 13 09
  21805989.748     5420370.512 6   4222240.592 1
  23627716.631    -3765496.870 4  -1955517.485 1
  20008754.256    -7483439.817 7    290882.790 2
  19792204.420   -19634915.690 7 -15250422.122 1
  20351788.115   -21343702.173 7 -15700107.786 2
 90 10 11 13 52 59.9980000  0  5 02 12 06 13 09
  21810096.006     5441936.531 6   4239045.211 1
  23617366.287    -3819899.082 4  -1997908.827 1
  20010707.303    -7473183.587 7    298874.623 2
  19789747.545   -19647822.505 7 -15260479.402 1
  20345678.803   -21375800.278 7 -15725119.323 2
 90 10 11 13 53 14.9980000  0  5 02 12 06 13 09
  21814210.615     5463546.713 6   4255884.263 1
  23607013.803    -3874291.589 5  -2040292.638 1
  20012683.482    -7462788.576 7    306974.585 2
  19787318.709   -19660592.963 7 -15270430.427 1
  20339592.240   -21407788.827 7 -15750045.480 2
 90 10 11 13 53 29.9980000  0  5 02 12 06 13 09
  21818329.631     5485202.459 6   4272758.808 1
  23596668.107    -3928672.667 5  -2082667.516 1
  20014687.576    -7452253.242 7    315183.903 2
  19784914.342   -19673225.939 7 -15280274.325 1
  20333525.592   -21439665.991 7 -15774884.852 2
 90 10 11 13 53 44.9980000  0  5 02 12 06 13 09
  21822461.811     5506908.622 6   4289672.641 1
  23586323.271    -3983037.091 5  -2125029.414 1
  20016721.256    -7441572.664 7    323506.386 2
  19782536.967   -19685716.517 7 -15290007.263 1
  20327482.139   -21471426.623 7 -15799633.420 2
 90 10 11 13 53 59.9980000  0  5 02 12 06 13 09
  21826597.670     5528655.899 6   4306618.508 1
  23575979.771    -4037394.023 5  -2167385.474 1
  20018781.803    -7430756.226 7    331934.746 2
  19780185.482   -19698074.071 7 -15299636.546 1
  20321458.959   -21503079.697 7 -15824298.179 2
 90 10 11 13 54 14.9980000  0  5 02 12 06 13 09
  21830747.342     5550447.523 6   4323598.926 1
  23565638.443    -4091739.969 5  -2209732.987 1
  20020864.615    -7419800.519 7    340471.628 2
  19777860.100   -19710295.488 7 -15309159.748 1
  20315456.600   -21534621.677 7 -15848876.363 2
 90 10 11 13 54 29.9980000  0  5 02 12 06 13 09
  21834900.748     5572289.212 6   4340618.368 1
  23555296.350    -4146069.061 5  -2252067.357 1
  20022975.264    -7408700.012 7    349121.333 2
  19775560.522   -19722375.226 7 -15318572.546 2
  20309478.529   -21566046.632 7 -15873363.368 2
 90 10 11 13 54 44.9980000  0  5 02 12 06 13 09
  21839066.553     5594174.235 6   4357671.572 1
  23544961.107    -4200387.602 5  -2294393.536 1
  20025114.326    -7397461.311 7    357878.726 2
  19773288.998   -19734320.022 7 -15327880.204 1
  20303516.998   -21597360.808 7 -15897764.045 2
 90 10 11 13 54 59.9980000  0  5 02 12 06 13 09
  21843241.162     5616107.119 6   4374762.074 1
  23534630.029    -4254690.929 5  -2336707.828 1
  20027283.857    -7386079.841 7    366747.365 2
  19771041.686   -19746125.694 7 -15337079.450 1
  20297581.787   -21628559.470 7 -15922074.715 2
 90 10 11 13 55 14.9980000  0  5 02 12 06 13 09
  21847422.381     5638083.405 6   4391886.394 1
  23524299.521    -4308983.378 5  -2379013.622 1
  20029472.967    -7374560.202 7    375723.676 2
  19768821.170   -19757796.729 7 -15346173.785 2
  20291664.303   -21659646.722 7 -15946298.571 2
 90 10 11 13 55 29.9980000  0  5 02 12 06 13 09
  21851612.709     5660104.214 6   4409045.404 1
  23513970.287    -4363263.554 5  -2421309.885 1
  20031691.818    -7362901.478 7    384808.364 2
  19766626.115   -19769332.310 7 -15355162.570 1
  20285772.318   -21690621.266 7 -15970434.603 2
 90 10 11 13 55 44.9980000  0  5 02 12 06 13 09
  21855810.451     5682171.614 6   4426240.710 1
  23503640.576    -4417529.035 5  -2463594.733 1
  20033938.295    -7351100.988 7    394003.508 2
  19764456.389   -19780730.296 7 -15364044.132 1
  20279899.467   -21721480.765 7 -15994480.983 2
 90 10 11 13 55 59.9980000  0  5 02 12 06 13 09
  21860020.975     5704282.522 6   4443469.927 1
  23493319.459    -4471782.714 5  -2505870.329 1
  20036209.467    -7339162.593 7    403306.119 2
  19762313.889   -19791994.119 7 -15372821.162 1
  20274047.670   -21752227.896 7 -16018439.809 2
 90 10 11 13 56 14.9980000  0  5 02 12 06 13 09
  21864236.396     5726439.709 6   4460735.208 1
  23483000.654    -4526021.606 5  -2548134.410 1
  20038510.662    -7327083.111 7    412718.658 2
  19760195.771   -19803121.162 7 -15381491.606 1
  20268219.951   -21782859.687 7 -16042308.763 2
 90 10 11 13 56 29.9980000  0  5 02 12 06 13 09
  21868461.818     5748641.635 6   4478035.350 1
  23472677.553    -4580247.008 5  -2590387.997 1
  20040836.771    -7314864.115 7    422239.916 2
  19758103.779   -19814112.980 7 -15390056.678 2
  20262412.115   -21813377.431 7 -16066088.851 2
 90 10 11 13 56 44.9980000  0  5 02 12 06 13 09
  21872691.787     5770884.539 6   4495367.417 1
  23462362.326    -4634462.292 5  -2632633.695 1
  20043185.295    -7302509.485 7    431866.859 2
  19756036.990   -19824973.266 7 -15398519.259 1
  20256624.600   -21843784.319 7 -16089782.552 2
 90 10 11 13 56 59.9980000  0  5 02 12 06 13 09
  21876936.623     5793171.716 6   4512733.994 1
  23452045.514    -4688663.769 5  -2674868.627 1
  20045562.646    -7290015.655 7    441602.274 2
  19753996.639   -19835698.888 7 -15406876.905 2
  20250859.959   -21874076.786 7 -16113387.096 2
 90 10 11 13 57 14.9980000  0  5 02 12 06 13 09
  21881185.818     5815503.626 6   4530135.417 1
  23441736.521    -4742850.665 5  -2717092.198 1
  20047966.959    -7277382.326 7    451446.388 2
  19751980.990   -19846289.604 7 -15415129.436 1
  20245118.998   -21904254.085 7 -16136901.898 2
 90 10 11 13 57 29.9980000  0  5 02 12 06 13 09
  21885442.240     5837880.076 6   4547571.550 1
  23431427.279    -4797023.329 5  -2759304.687 1
  20050396.771    -7264609.882 7    461398.908 2
  19749991.576   -19856746.063 7 -15423277.351 1
  20239398.607   -21934316.333 7 -16160327.047 2
 90 10 11 13 57 44.9980000  0  5 02 12 06 13 09
  21889713.014     5860301.516 6   4565042.731 1
  23421118.967    -4851181.032 5  -2801505.521 1
  20052854.967    -7251697.753 7    471460.266 2
  19748027.717   -19867067.813 7 -15431320.291 1
  20233699.568   -21964262.814 7 -16183661.994 2
 90 10 11 13 57 59.9980000  0  5 02 12 06 13 09
  21893985.678     5882766.267 6   4582547.676 1
  23410818.522    -4905324.983 5  -2843695.670 1
  20055339.326    -7238647.551 7    481629.219 2
  19746087.967   -19877256.761 7 -15439259.756 1
  20228021.834   -21994094.629 7 -16206907.587 2
 90 10 11 13 58 14.9980000  0  5 02 12 06 13 09
  21898269.396     5905270.154 6   4600083.111 1
  23400517.686    -4959459.121 5  -2885878.119 1
  20057844.076    -7225463.646 7    491902.348 2
  19744173.920   -19887317.207 7 -15447099.085 1
  20222367.592   -22023815.670 7 -16230066.867 2
 90 10 11 13 58 29.9980000  0  5 02 12 06 13 09
  21902561.607     5927821.178 6   4617655.272 1
  23390221.506    -5013574.942 5  -2928046.313 1
  20060381.154    -7212137.795 7    502286.080 2
  19742285.443   -19897240.973 7 -15454831.915 2
  20216732.850   -22053417.661 7 -16253133.379 2
 90 10 11 13 58 44.9980000  0  5 02 12 06 13 09
  21906860.490     5950417.665 6   4635262.858 1
  23379923.756    -5067674.120 5  -2970201.542 1
  20062944.467    -7198671.695 7    512779.105 2
  19740423.201   -19907030.170 7 -15462459.886 1
  20211122.084   -22082901.930 7 -16276108.159 2
 90 10 11 13 58 59.9980000  0  5 02 12 06 13 09
  21911168.592     5973057.010 6   4652903.838 1
  23369633.045    -5121759.081 5  -3012345.691 1
  20065532.764    -7185068.304 7    523379.116 2
  19738585.522   -19916687.750 7 -15469985.295 1
  20205534.803   -22112271.022 7 -16298993.193 2
 90 10 11 13 59 14.9980000  0  5 02 12 06 13 09
  21915483.521     5995741.892 6   4670580.305 1
  23359339.857    -5175826.954 5  -3054476.525 1
  20068151.092    -7171324.868 7    534088.246 2
  19736772.107   -19926211.246 7 -15477406.223 1
  20199969.053   -22141522.074 7 -16321786.244 2
 90 10 11 13 59 29.9980000  0  5 02 12 06 13 09
  21919808.115     6018466.372 6   4688287.632 1
  23349057.162    -5229883.294 5  -3096598.356 1
  20070792.514    -7157447.383 7    544901.827 2
  19734984.896   -19935606.524 7 -15484727.241 1
  20194423.607   -22170660.474 7 -16344491.520 2
 90 10 11 13 59 44.9980000  0  5 02 12 06 13 09
  21924144.115     6041233.332 6   4706028.049 1
  23338771.170    -5283924.899 5  -3138708.733 1
  20073457.951    -7143432.843 7    555822.203 2
  19733222.045   -19944870.512 7 -15491945.953 1
  20188900.318   -22199683.156 7 -16367106.619 2
 90 10 11 13 59 59.9980000  0  5 02 12 06 13 09
  21928479.225     6064041.922 6   4723800.912 1
  23328493.107    -5337952.401 5  -3180808.095 1
  20076151.678    -7129282.060 7    566848.743 2
  19731484.467   -19954004.495 7 -15499063.371 1
  20183398.943   -22228590.565 7 -16389631.899 2
 90 10 11 14  0 14.9980000  0  5 02 12 06 13 09
  21932828.912     6086897.995 6   4741610.776 1
  23318213.475    -5391959.756 5  -3222891.789 1
  20078871.779    -7114989.449 7    577985.807 2
  19729772.811   -19963002.950 7 -15506075.174 1
  20177920.607   -22257376.691 7 -16412062.671 2
 90 10 11 14  0 29.9980000  0  5 02 12 06 13 09
  21937187.920     6109803.137 6   4759458.876 1
  23307940.412    -5445945.151 5  -3264958.342 1
  20081616.264    -7100553.506 7    589234.564 2
  19728086.412   -19971864.441 7 -15512980.257 1
  20172466.826   -22286039.616 7 -16434397.443 2
 90 10 11 14  0 44.9980000  0  5 02 12 06 13 09
  21941554.779     6132751.694 6   4777340.808 1
  23297672.084    -5499913.922 5  -3307011.931 1
  20084384.857    -7085979.873 7    600590.602 3
  19726424.123   -19980594.742 7 -15519783.114 1
  20167035.631   -22314584.745 7 -16456640.427 2
 90 10 11 14  0 59.9980000  0  5 02 12 06 13 09
  21945929.522     6155740.036 6   4795253.725 1
  23287402.678    -5553869.215 5  -3349055.058 1
  20087189.756    -7071271.979 7    612051.257 3
  19724786.771   -19989197.415 7 -15526486.524 1
  20161625.201   -22343015.282 7 -16478794.115 2
 90 10 11 14  1 14.9980000  0  5 02 12 06 13 09
  21950313.857     6178775.087 6   4813203.055 1
  23277144.404    -5607803.986 5  -3391082.186 1
  20090015.232    -7056423.004 7    623621.847 3
  19723175.264   -19997665.818 7 -15533085.304 1
  20156238.631   -22371324.072 7 -16500852.936 2
 90 10 11 14  1 29.9980000  0  5 02 12 06 13 09
  21954707.529     6201851.308 6   4831184.461 1
  23266876.279    -5661723.491 5  -3433097.403 1
  20092867.537    -7041438.443 7    635298.085 2
  19721587.857   -20006005.826 7 -15539584.034 2
  20150874.396   -22399516.273 7 -16522820.910 2
 90 10 11 14  1 44.9980000  0  5 02 12 06 13 09
  21959104.303     6224967.311 6   4849196.867 1
  23256619.373    -5715628.761 5  -3475101.545 1
  20095742.053    -7026319.858 7    647078.762 2
  19720025.287   -20014218.852 7 -15545983.815 1
  20145530.568   -22427593.177 7 -16544699.045 2
 90 10 11 14  1 59.9980000  0  5 02 12 06 13 09
  21963511.412     6248124.589 6   4867241.429 1
  23246365.490    -5769518.208 5  -3517093.358 1
  20098646.326    -7011065.963 7    658964.871 2
  19718487.693   -20022303.494 7 -15552283.560 1
  20140209.834   -22455552.901 7 -16566485.868 2
 90 10 11 14  2 14.9980000  0  5 02 12 06 13 09
  21967925.506     6271323.273 6   4885318.255 1
  23236117.311    -5823391.346 5  -3559072.423 1
  20101572.147    -6995676.438 7    670956.669 2
  19716973.756   -20030260.055 7 -15558483.500 1
  20134912.990   -22483394.978 7 -16588181.016 2
 90 10 11 14  2 29.9980000  0  5 02 12 06 13 09
  21972352.873     6294570.922 6   4903433.241 1
  23225868.147    -5877240.351 5  -3601032.725 1
  20104531.928    -6980143.789 7    683059.981 3
  19715485.521   -20038081.012 7 -15564577.780 1
  20129637.529   -22511111.556 7 -16609778.380 2
 90 10 11 14  2 44.9980000  0  5 02 12 06 13 09
  21976780.373     6317859.858 6   4921580.394 1
  23215621.967    -5931072.799 5  -3642980.108 1
  20107513.131    -6964475.851 7    695268.710 3
  19714020.350   -20045774.202 7 -15570572.500 1
  20124385.607   -22538710.319 7 -16631283.931 2
 90 10 11 14  2 59.9980000  0  5 02 12 06 13 09
  21981221.654     6341187.654 6   4939757.836 1
  23205385.240    -5984890.698 5  -3684916.159 1
  20110518.678    -6948675.118 7    707580.935 3
  19712580.467   -20053342.330 7 -15576469.757 1
  20119155.576   -22566193.050 7 -16652699.075 2
 90 10 11 14  3 14.9980000  0  5 02 12 06 13 09
  21985670.389     6364557.414 6   4957967.971 1
  23195147.029    -6038690.712 5  -3726838.291 1
  20113550.186    -6932738.442 7    719999.089 2
  19711165.404   -20060782.449 7 -15582267.279 1
  20113948.561   -22593556.531 7 -16674021.294 2
 90 10 11 14  3 29.9980000  0  5 02 12 06 13 09
  21990123.982     6387965.674 6   4976208.113 1
  23184913.826    -6092475.783 5  -3768748.765 1
  20116608.467    -6916669.251 7    732520.500 3
  19709773.100   -20068098.069 7 -15587967.784 1
  20108764.623   -22620803.933 7 -16695253.062 2
 90 10 11 14  3 44.9980000  0  5 02 12 06 13 09
  21994588.436     6411420.176 6   4994484.272 1
  23174679.850    -6146238.151 5  -3810641.530 1
  20119697.006    -6900460.018 7    745151.038 3
  19708405.740   -20075281.693 7 -15593565.441 1
  20103603.209   -22647927.104 7 -16716388.027 2
 90 10 11 14  3 59.9980000  0  5 02 12 06 13 09
  21999055.279     6434912.690 6   5012790.071 1
  23164452.217    -6199985.682 5  -3852522.758 1
  20122805.850    -6884118.945 7    757884.303 3
  19707061.771   -20082341.712 7 -15599066.776 1
  20098463.537   -22674933.965 7 -16737432.357 2
 90 10 11 14  4 14.9980000  0  5 02 12 06 13 09
  22003534.646     6458450.468 6   5031131.126 1
  23154229.350    -6253710.756 5  -3894386.490 1
  20125936.857    -6867638.739 7    770725.978 3
  19705743.623   -20089270.976 7 -15604466.230 1
  20093348.717   -22701817.059 7 -16758380.245 2
 90 10 11 14  4 29.9980000  0  5 02 12 06 13 09
  22008025.631     6482033.121 6   5049507.136 1
  23144010.686    -6307413.618 5  -3936232.901 1
  20129101.865    -6851020.021 7    783675.582 3
  19704450.100   -20096070.184 7 -15609764.343 1
  20088256.607   -22728576.725 7 -16779231.959 2
 90 10 11 14  4 44.9980000  0  5 02 12 06 13 09
  22012518.029     6505659.092 6   5067916.927 1
  23133795.787    -6361095.642 5  -3978063.079 1
  20132291.756    -6834264.330 7    796731.911 3
  19703180.412   -20102740.989 7 -15614962.396 1
  20083187.584   -22755213.930 7 -16799988.244 2
 90 10 11 14  4 59.9980000  0  5 02 12 06 13 09
  22017026.022     6529330.091 6   5086361.798 1
  23123585.631    -6414754.719 5  -4019875.359 1
  20135502.865    -6817370.004 7    809896.275 2
  19701936.084   -20109281.743 7 -15620059.111 1
  20078141.248   -22781726.878 7 -16820647.710 2
 90 10 11 14  5 14.9980000  0  5 02 12 06 13 09
  22021536.943     6553042.631 6   5104839.027 1
  23113376.936    -6468393.954 5  -4061672.196 1
  20138744.561    -6800340.524 7    823165.946 3
  19700714.920   -20115696.013 7 -15625057.268 1
  20073118.303   -22808118.529 7 -16841212.659 2
 90 10 11 14  5 29.9980000  0  5 02 12 06 13 09
  22026058.904     6576797.168 6   5123348.995 1
  23103169.912    -6522012.723 5  -4103453.104 1
  20142014.022    -6783175.453 7    836541.277 3
  19699517.873   -20121983.912 7 -15629956.956 1
  20068120.717   -22834388.322 7 -16861682.651 2
 90 10 11 14  5 44.9980000  0  5 02 12 06 13 09
  22030587.686     6600593.172 6   5141891.257 1
  23092971.537    -6575611.279 5  -4145218.228 1
  20145300.857    -6765875.457 7    850021.758 3
  19698346.834   -20128146.114 7 -15634758.700 1
  20063144.959   -22860536.406 7 -16882057.809 2
 90 10 11 14  5 59.9980000  0  5 02 12 06 13 09
  22035121.100     6624429.290 6   5160464.797 1
  23082778.053    -6629190.737 5  -4186968.491 1
  20148622.357    -6748442.028 7    863606.206 3
  19697197.232   -20134184.066 7 -15639463.619 1
  20058191.740   -22886563.987 7 -16902339.065 2
 90 10 11 14  6 14.9980000  0  5 02 12 06 13 09
  22039662.490     6648305.398 6   5179069.481 1
  23072588.045    -6682750.967 5  -4228703.758 1
  20151965.232    -6730875.396 7    877294.444 3
  19696071.826   -20140098.124 7 -15644072.006 1
  20053261.631   -22912470.843 7 -16922526.249 2
 90 10 11 14  6 29.9980000  0  5 02 12 06 13 09
  22044216.193     6672225.092 6   5197708.132 1
  23062399.240    -6736288.267 5  -4270421.152 1
  20155334.350    -6713172.110 7    891089.175 3
  19694970.943   -20145885.279 7 -15648581.500 1
  20048355.920   -22938253.356 7 -16942616.546 2
 90 10 11 14  6 44.9980000  0  5 02 12 06 13 09
  22048775.334     6696181.225 6   5216375.173 1
  23052212.709    -6789809.283 5  -4312125.874 1
  20158728.006    -6695339.235 7    904984.897 3
  19693891.842   -20151552.479 7 -15652997.522 1
  20043472.654   -22963918.312 7 -16962615.242 2
 90 10 11 14  6 59.9980000  0  5 02 12 06 13 09
  22053343.350     6720180.499 6   5235075.833 1
  23042034.928    -6843306.957 5  -4353812.406 1
  20162145.529    -6677370.131 7    918986.748 3
  19692838.404   -20157093.064 7 -15657314.889 1
  20038610.396   -22989458.561 7 -16982516.757 2
 90 10 11 14  7 14.9980000  0  5 02 12 06 13 09
  22057915.725     6744219.740 6   5253807.643 1
  23031853.381    -6896784.149 5  -4395482.981 1
  20165591.732    -6659268.030 7    933092.224 3
  19691807.686   -20162510.257 7 -15661536.105 1
  20033774.240   -23014876.913 7 -17002323.292 2
 90 10 11 14  7 29.9980000  0  5 02 12 06 13 09
  22062499.576     6768303.324 6   5272574.004 1
  23021685.881    -6950236.097 5  -4437133.865 1
  20169061.764    -6641028.457 7    947304.827 3
  19690800.053   -20167800.067 7 -15665658.060 1
  20028962.232   -23040168.596 7 -17022031.124 2
 90 10 11 14  7 44.9980000  0  5 02 12 06 13 09
  22067090.225     6792424.739 6   5291369.838 1
  23011516.756    -7003669.259 5  -4478770.128 1
  20172559.889    -6622658.154 7    961619.301 3
  19689816.068   -20172969.328 7 -15669686.084 1
  20024171.639   -23065340.197 7 -17041645.382 2
 90 10 11 14  7 59.9980000  0  5 02 12 06 13 09
  22071688.748     6816590.973 6   5310200.606 1
  23001353.600    -7057076.416 5  -4520386.123 1
  20176083.107    -6604150.427 7    976040.859 3
  19688857.248   -20178011.568 7 -15673615.129 1
  20019406.037   -23090384.624 7 -17061160.547 2
 90 10 11 14  8 14.9980000  0  5 02 12 06 13 09
  22076298.990     6840797.975 6   5329063.130 1
  22991193.701    -7110461.341 5  -4561984.778 1
  20179625.990    -6585509.277 7    990566.382 3
  19687921.873   -20182930.685 7 -15677448.236 1
  20014663.904   -23115305.451 7 -17080579.397 2
 90 10 11 14  8 29.9980000  0  5 02 12 06 13 09
  22080910.896     6865047.544 6   5347958.815 1
  22981040.381    -7163821.892 5  -4603564.463 1
  20183200.943    -6566732.988 7   1005197.212 3
  19687008.779   -20187725.172 7 -15681184.225 1
  20009946.897   -23140100.444 7 -17099900.195 2
 90 10 11 14  8 44.9980000  0  5 02 12 06 13 09
  22085534.475     6889339.790 6   5366887.777 1
  22970891.053    -7217157.596 5  -4645124.786 1
  20186799.357    -6547821.470 7   1019933.427 3
  19686121.037   -20192395.098 7 -15684823.163 1
  20005251.943   -23164769.437 7 -17119122.810 2
 90 10 11 14  8 59.9980000  0  5 02 12 06 13 09
  22090160.975     6913673.036 6   5385848.672 1
  22960748.670    -7270469.917 5  -4686666.878 1
  20190423.545    -6528776.491 7   1034773.624 3
  19685254.771   -20196942.292 7 -15688366.452 1
  20000580.521   -23189313.786 7 -17138248.304 2
 90 10 11 14  9 14.9980000  0  5 02 12 06 13 09
  22094799.412     6938048.116 6   5404842.184 1
  22950604.553    -7323757.641 5  -4728189.811 1
  20194071.764    -6509597.177 7   1049718.497 3
  19684413.201   -20201365.736 7 -15691813.324 1
  19995934.686   -23213732.168 7 -17157275.641 2
 90 10 11 14  9 29.9980000  0  5 02 12 06 13 09
  22099447.357     6962465.477 6   5423868.611 1
  22940469.607    -7377020.033 5  -4769693.025 1
  20197746.529    -6490283.289 7   1064768.231 3
  19683595.396   -20205665.570 7 -15695163.869 1
  19991312.037   -23238024.118 7 -17176204.457 2
 90 10 11 14  9 44.9980000  0  5 02 12 06 13 09
  22104102.451     6986925.655 6   5442928.428 1
  22930340.217    -7430256.234 5  -4811175.791 1
  20201450.061    -6470834.247 7   1079923.282 3
  19682801.139   -20209841.372 7 -15698417.770 1
  19986711.850   -23262188.648 7 -17195033.989 2
 90 10 11 14  9 59.9980000  0  5 02 12 06 13 09
  22108762.936     7011427.481 6   5462020.671 1
  22920214.639    -7483467.276 5  -4852638.965 1
  20205178.240    -6451251.373 7   1095182.606 3
  19682029.326   -20213894.576 7 -15701576.134 1
  19982137.850   -23286226.707 7 -17213764.969 2
 90 10 11 14 10 14.9980000  0  5 02 12 06 13 09
  22113433.975     7035973.851 6   5481147.638 1
  22910096.686    -7536649.912 5  -4894080.023 1
  20208929.490    -6431531.814 7   1110548.441 3
  19681282.959   -20217822.560 7 -15704636.931 1
  19977588.115   -23310135.025 7 -17232394.860 2
 90 10 11 14 10 29.9980000  0  5 02 12 06 13 09
  22118116.389     7060567.737 6   5500311.625 1
  22899982.732    -7589801.002 5  -4935496.497 1
  20212707.748    -6411672.805 7   1126022.949 3
  19680557.818   -20221622.664 7 -15707598.076 1
  19973064.037   -23333910.700 7 -17250921.385 2
 90 10 11 14 10 44.9980000  0  5 02 12 06 13 09
  22122803.420     7085202.745 6   5519507.668 1
  22889871.498    -7642926.594 5  -4976893.083 1
  20216515.561    -6391680.777 7   1141601.115 3
  19679859.373   -20225301.345 7 -15710464.606 1
  19968563.857   -23357559.704 7 -17269349.206 2
 90 10 11 14 10 59.9980000  0  5 02 12 06 13 09
  22127499.561     7109875.954 6   5538733.456 1
  22879765.209    -7696029.387 5  -5018271.923 1
  20220339.100    -6371558.987 7   1157280.388 3
  19679180.529   -20228861.986 7 -15713239.156 1
  19964086.701   -23381084.858 7 -17287680.519 2
 90 10 11 14 11 14.9980000  0  5 02 12 06 13 09
  22132200.943     7134592.311 6   5557992.889 1
  22869664.225    -7749103.864 5  -5059628.698 1
  20224195.553    -6351302.300 7   1173064.770 3
  19678528.248   -20232299.415 7 -15715917.701 1
  19959634.967   -23404480.787 7 -17305911.141 2
 90 10 11 14 11 29.9980000  0  5 02 12 06 13 09
  22136914.334     7159356.135 6   5577289.308 1
  22859573.146    -7802145.698 5  -5100960.014 1
  20228077.764    -6330906.545 7   1188957.530 3
  19677896.725   -20235609.769 7 -15718497.221 1
  19955209.279   -23427742.947 7 -17324037.528 2
 90 10 11 14 11 44.9980000  0  5 02 12 06 13 09
  22141635.928     7184166.665 6   5596622.107 1
  22849487.100    -7855155.211 6  -5142266.162 1
  20231985.506    -6310372.550 7   1204958.000 3
  19677291.350   -20238794.130 7 -15720978.562 1
  19950807.701   -23450871.646 7 -17342059.915 2
 90 10 11 14 11 59.9980000  0  5 02 12 06 13 09
  22146368.045     7209017.760 6   5615986.513 1
  22839403.264    -7908138.220 6  -5183551.660 1
  20235917.553    -6289706.543 7   1221061.339 3
  19676709.498   -20241858.521 7 -15723366.432 1
  19946430.686   -23473872.903 7 -17359982.997 2
 90 10 11 14 12 14.9980000  0  5 02 12 06 13 09
  22151102.045     7233911.809 6   5635384.403 1
  22829324.201    -7961092.219 6  -5224814.551 1
  20239873.857    -6268906.417 7   1237269.177 3
  19676148.287   -20244800.980 7 -15725659.286 1
  19942078.967   -23496744.217 7 -17377804.818 2
 90 10 11 14 12 29.9980000  0  5 02 12 06 13 09
  22155849.717     7258849.943 6   5654816.648 1
  22819254.521    -8014015.481 5  -5266053.471 1
  20243860.811    -6247970.873 7   1253582.524 3
  19675611.451   -20247620.464 7 -15727856.309 1
  19937750.795   -23519483.791 7 -17395523.998 2
 90 10 11 14 12 44.9980000  0  5 02 12 06 13 09
  22160601.326     7283828.933 6   5674280.719 1
  22809189.084    -8066910.758 5  -5307270.612 1
  20247866.545    -6226903.206 7   1269998.841 3
  19675097.342   -20250320.226 7 -15729960.047 1
  19933448.803   -23542094.902 7 -17413143.074 2
 90 10 11 14 12 59.9980000  0  5 02 12 06 13 09
  22165363.912     7308852.015 6   5693779.143 1
  22799131.225    -8119774.829 6  -5348463.425 1
  20251903.975    -6205700.392 7   1286520.464 3
  19674606.725   -20252897.376 7 -15731968.245 1
  19929172.404   -23564574.119 7 -17430659.370 2
 90 10 11 14 13 14.9980000  0  5 02 12 06 13 09
  22170133.693     7333918.087 6   5713311.081 1
  22789074.920    -8172608.505 6  -5389632.541 1
  20255967.240    -6184363.669 7   1303146.434 3
  19674139.021   -20255353.409 7 -15733882.063 1
  19924919.693   -23586922.172 7 -17448073.465 1
 90 10 11 14 13 29.9980000  0  5 02 12 06 13 09
  22174912.170     7359034.540 6   5732882.261 1
  22779027.201    -8225404.070 6  -5430771.978 1
  20260048.514    -6162885.728 7   1319882.448 3
  19673696.217   -20257681.262 7 -15735696.001 1
  19920692.920   -23609131.373 7 -17465379.365 2
 90 10 11 14 13 44.9980000  0  5 02 12 06 13 09
  22179702.615     7384195.319 6   5752487.984 1
  22768989.271    -8278167.100 6  -5471886.060 1
  20264164.623    -6141272.776 7   1336723.667 3
  19673277.943   -20259887.050 7 -15737414.818 1
  19916491.982   -23631207.480 7 -17482581.552 2
 90 10 11 14 13 59.9980000  0  5 02 12 06 13 09
  22184495.654     7409399.464 6   5772127.503 1
  22758953.248    -8330898.502 6  -5512975.479 1
  20268301.647    -6119525.806 7   1353669.315 3
  19672881.514   -20261971.906 7 -15739039.409 1
  19912315.459   -23653151.411 7 -17499680.754 2
 90 10 11 14 14 14.9980000  0  5 02 12 06 13 09
  22189302.342     7434646.505 6   5791800.446 1
  22748924.881    -8383598.408 6  -5554040.368 1
  20272467.045    -6097645.518 7   1370718.844 3
  19672507.998   -20263936.554 7 -15740570.328 1
  19908164.482   -23674963.401 7 -17516677.136 2
 90 10 11 14 14 29.9980000  0  5 02 12 06 13 09
  22194114.225     7459936.003 6   5811506.471 1
  22738903.951    -8436267.055 6  -5595080.922 1
  20276650.514    -6075632.480 7   1387871.814 3
  19672156.295   -20265781.747 7 -15742008.162 1
  19904039.264   -23696643.469 7 -17533570.724 2
 90 10 11 14 14 44.9980000  0  5 02 12 06 13 09
  22198936.826     7485273.806 6   5831250.139 1
  22728889.639    -8488898.259 6  -5636092.270 1
  20280869.607    -6053480.924 7   1405132.718 3
  19671829.412   -20267502.008 7 -15743348.648 1
  19899939.834   -23718185.615 7 -17550356.842 2
 90 10 11 14 14 59.9980000  0  5 02 12 06 13 09
  22203765.522     7510656.874 6   5851029.074 1
  22718880.529    -8541494.700 6  -5677076.544 1
  20285110.998    -6031193.986 7   1422499.098 3
  19671524.178   -20269100.448 7 -15744594.212 1
  19895866.834   -23739592.661 7 -17567037.687 2
 90 10 11 14 15 14.9980000  0  5 02 12 06 13 09
  22208603.936     7536079.546 6   5870838.874 1
  22708874.272    -8594061.551 6  -5718037.761 1
  20289376.193    -6008777.214 7   1439966.649 3
  19671241.811   -20270582.839 7 -15745749.348 1
  19891817.373   -23760869.763 7 -17583617.268 2
 90 10 11 14 15 29.9980000  0  5 02 12 06 13 09
  22213451.709     7561551.691 6   5890687.200 1
  22698880.982    -8646588.959 6  -5758968.231 1
  20293670.467    -5986221.190 7   1457542.712 3
  19670983.982   -20271939.569 7 -15746806.565 1
  19887796.396   -23782007.046 7 -17600087.907 2
 90 10 11 14 15 44.9980000  0  5 02 12 06 13 09
  22218306.342     7587068.587 6   5910570.432 1
  22688893.951    -8699081.298 6  -5799871.391 1
  20297986.850    -5963530.721 7   1475223.553 3
  19670748.053   -20273175.807 7 -15747769.895 1
  19883798.998   -23803009.237 7 -17616453.274 2
 90 10 11 14 15 59.9980000  0  5 02 12 06 13 09
  22223169.514     7612628.744 6   5930487.357 1
  22678907.490    -8751539.550 6  -5840747.972 1
  20302331.186    -5940707.248 7   1493008.044 3
  19670536.381   -20274293.004 7 -15748640.467 1
  19879826.998   -23823877.200 7 -17632714.048 2
 90 10 11 14 16 14.9980000  0  5 02 12 06 13 09
  22228043.623     7638230.776 6   5950436.920 1
  22668931.826    -8803964.911 6  -5881598.938 1
  20306695.498    -5917752.339 7   1510894.932 3
  19670345.881   -20275292.771 7 -15749419.533 1
  19875882.084   -23844612.016 7 -17648871.073 2
 90 10 11 14 16 29.9980000  0  5 02 12 06 13 09
  22232923.654     7663876.674 6   5970420.631 1
  22658963.756    -8856354.994 6  -5922422.406 1
  20311090.389    -5894664.119 7   1528885.697 3
  19670179.545   -20276173.312 7 -15750105.698 1
  19871961.084   -23865211.667 7 -17664922.774 2
 90 10 11 14 16 44.9980000  0  5 02 12 06 13 09
  22237810.990     7689569.895 6   5990441.245 1
  22649001.873    -8908706.030 6  -5963215.448 1
  20315511.123    -5871439.263 7   1546982.932 3
  19670035.131   -20276931.453 7 -15750696.481 1
  19868068.811   -23885672.422 7 -17680866.246 1
 90 10 11 14 16 59.9980000  0  5 02 12 06 13 09
  22242713.139     7715311.032 6   6010499.222 1
  22639048.443    -8961017.172 6  -6003977.418 1
  20319956.553    -5848077.311 7   1565187.005 3
  19669913.123   -20277566.860 7 -15751191.638 1
  19864201.068   -23905993.392 7 -17696700.792 2
 90 10 11 14 17 14.9980000  0  5 02 12 06 13 09
  22247616.193     7741093.437 6   6030589.302 1
  22629097.764    -9013294.857 6  -6044713.295 1
  20324429.998    -5824585.012 7   1583492.653 3
  19669816.529   -20278086.428 7 -15751596.522 1
  19860359.686   -23926181.087 7 -17712431.487 2
 90 10 11 14 17 29.9980000  0  5 02 12 06 13 09
  22252533.623     7766923.072 6   6050716.221 1
  22619157.850    -9065532.794 6  -6085418.207 1
  20328924.389    -5800956.723 7   1601904.259 3
  19669741.959   -20278484.353 7 -15751906.619 1
  19856544.514   -23946229.313 7 -17728053.508 2
 90 10 11 14 17 44.9980000  0  5 02 12 06 13 09
  22257456.561     7792797.634 6   6070878.122 1
  22609224.131    -9117732.822 6  -6126093.593 1
  20333441.537    -5777194.577 7   1620420.169 3
  19669684.256   -20278763.117 7 -15752123.869 1
  19852757.303   -23966139.882 7 -17743568.262 2
 90 10 11 14 17 59.9980000  0  5 02 12 06 13 09
  22262388.514     7818715.392 6   6091073.698 1
  22599300.967    -9169896.479 6  -6166740.627 1
  20337996.490    -5753300.561 7   1639038.810 3
  19669653.553   -20278925.105 7
  19848993.709   -23985914.604 7 -17758977.167 1
 90 10 11 14 18 14.9980000  0  5 02 12 06 13 09
  22267328.787     7844678.225 6   6111304.380 1
  22589381.490    -9222021.377 6  -6207357.468 1
  20342563.061    -5729272.718 7   1657761.752 3
  19669646.553   -20278968.272 7
  19845255.967   -24005551.075 7 -17774278.335 2
 90 10 11 14 18 29.9980000  0  5 02 12 06 13 09
  22272279.428     7870683.132 6   6131567.899 1
  22579465.732    -9274110.198 6  -6247946.192 1
  20347160.482    -5705114.191 7   1676586.536 3
  19669661.686   -20278895.932 7
  19841546.842   -24025051.939 7 -17789473.843 2
 90 10 11 14 18 44.9980000  0  5 02 12 06 13 09
  22277236.889     7896732.950 6   6151866.332 1
  22569564.217    -9326159.967 6  -6288504.479 1
  20351785.467    -5680822.484 7   1695515.096 3
  19669697.326   -20278705.349 7
  19837860.990   -24044414.443 7 -17804561.535 2
 90 10 11 14 18 59.9980000  0  5 02 12 06 13 09
  22282201.615     7922830.513 6   6172202.043 1
  22559667.061    -9378167.676 6  -6329029.985 1
  20356434.514    -5656394.914 7   1714549.509 3
  19669754.443   -20278394.144 7
  19834203.232   -24063635.434 7 -17819538.960 2
 90 10 11 14 19 14.9980000  0  5 02 12 06 13 09
  22287178.779     7948974.973 6   6192574.240 1
  22549776.920    -9430133.811 6  -6369523.119 1
  20361106.365    -5631832.553 7   1733688.967 3
  19669836.936   -20277963.498 7        -0.45711
  19830572.365   -24082715.702 7 -17834406.731 2
 90 10 11 14 19 29.9980000  0  5 02 12 06 13 09
  22292159.529     7975161.070 6   6212978.913 1
  22539897.561    -9482063.025 6  -6409987.459 1
  20365805.084    -5607140.496 7   1752929.473 3
  19669939.951   -20277418.724 7       424.014 1
  19826968.396   -24101659.958 7 -17849168.511 2
 90 10 11 14 19 44.9980000  0  5 02 12 06 13 09
  22297152.678     8001389.254 6   6233416.379 1
  22530021.639    -9533954.551 6  -6450422.447 1
  20370530.107    -5582318.474 7   1772271.250 3
  19670069.303   -20276759.422 7       937.720 1
  19823389.600   -24120467.673 7 -17863823.902 2
 90 10 11 14 19 59.9980000  0  5 02 12 06 13 09
  22302151.162     8027662.634 6   6253889.045 1
  22520151.506    -9585805.360 6  -6490825.701 1
  20375277.076    -5557363.777 7   1791716.424 3
  19670216.021   -20275983.057 7      1542.651 1
  19819835.951   -24139135.408 7 -17878370.210 2
 90 10 11 14 20 14.9980000  0  5 02 12 06 13 09
  22307157.701     8053982.283 6   6274397.784 1
  22510296.756    -9637613.670 6  -6531195.844 1
  20380053.553    -5532275.135 7   1811265.968 3
  19670384.771   -20275088.616 7      2239.593 1
  19816310.318   -24157661.904 7 -17892806.466 1
 90 10 11 14 20 29.9980000  0  5 02 12 06 13 09
  22312174.631     8080346.800 6   6294941.463 1
  22500443.232    -9689380.813 6  -6571533.905 1
  20384854.529    -5507054.355 7   1830918.481 3
  19670578.756   -20274077.834 7      3027.183 1
  19812812.029   -24176048.589 7 -17907133.781 2
 90 10 11 14 20 44.9980000  0  5 02 12 06 13 09
  22317203.522     8106758.917 6   6315522.264 1
  22490602.115    -9741103.625 6  -6611837.417 1
  20389677.779    -5481698.806 7   1850675.994 3
  19670792.795   -20272948.161 7      3907.421 1
  19809340.654   -24194292.214 7 -17921349.615 2
 90 10 11 14 20 59.9980000  0  5 02 12 06 13 09
  22322235.896     8133213.605 6   6336136.209 1
  22480767.701    -9792787.004 6  -6652110.203 1
  20394527.068    -5456213.798 7   1870534.382 3
  19671029.639   -20271705.106 7      4876.009 2
  19805894.771   -24212397.894 7 -17935457.959 2
 90 10 11 14 21 14.9980000  0  5 02 12 06 13 09
  22327277.311     8159714.934 6   6356786.510 1
  22470940.264    -9844426.310 6  -6692348.648 1
  20399403.350    -5430595.157 7   1890496.893 3
  19671287.537   -20270344.700 7      5936.034 1
  19802477.857   -24230360.976 7 -17949455.188 2
 90 10 11 14 21 29.9980000  0  5 02 12 06 13 09
  22332331.850     8186261.739 6   6377472.250 1
  22461121.756    -9896022.313 6  -6732553.352 1
  20404303.201    -5404844.014 7   1910562.657 3
  19671569.225   -20268868.201 7      7086.530 1
  19799085.420   -24248182.321 7 -17963341.978 2
 90 10 11 14 21 44.9980000  0  5 02 12 06 13 09
  22337391.975     8212856.745 6   6398195.522 1
  22451312.326    -9947572.222 6  -6772722.131 1
  20409226.998    -5378958.050 7   1930733.487 3
  19671872.639   -20267273.094 7      8329.441 1
  19795721.678   -24265859.368 7 -17977116.326 1
 90 10 11 14 21 59.9980000  0  5 02 12 06 13 09
  22342463.053     8239496.110 6   6418953.389 1
  22441509.498    -9999079.488 6  -6812857.696 1
  20414179.076    -5352941.355 7   1951006.185 3
  19672198.561   -20265563.567 7      9661.510 1
  19792384.326   -24283395.583 7 -17990780.935 2
 90 10 11 14 22 14.9980000  0  5 02 12 06 13 09
  22347541.436     8266180.774 6   6439746.543 1
  22431717.529   -10050542.844 6  -6852959.032 1
  20419155.240    -5326792.955 7   1971381.513 3
  19672545.857   -20263738.886 7     11083.309 2
  19789074.186   -24300789.664 7 -18004334.793 2
 90 10 11 14 22 29.9980000  0  5 02 12 06 13 09
  22352625.725     8292912.080 6   6460576.035 1
  22421933.623   -10101960.809 6  -6893025.007 1
  20424155.178    -5300511.831 7   1991860.263 3
  19672914.146   -20261798.280 7     12595.442 1
  19785792.897   -24318040.442 7 -18017776.985 1
 90 10 11 14 22 44.9980000  0  5 02 12 06 13 09
  22357721.709     8319695.449 6   6481446.102 1
  22412159.639   -10153327.508 6  -6933051.035 1
  20429183.357    -5274092.800 7   2012446.468 3
  19673307.865   -20259736.491 7     14202.000 1
  19782536.998   -24335142.224 7 -18031103.076 1
 90 10 11 14 22 59.9980000  0  5 02 12 06 13 09
  22362829.529     8346528.008 6   6502354.496 1
  22402393.623   -10204645.338 6  -6973038.977 1
  20434240.264    -5247538.648 7   2033137.958 3
  19673722.467   -20257556.338 7     15900.792 1
  19779311.787   -24352097.351 7 -18044314.894 1
 90 10 11 14 23 14.9980000  0  5 02 12 06 13 09
  22367947.279     8373405.668 6   6523298.028 1
  22392636.600   -10255918.102 6  -7012991.808 1
  20439315.748    -5220853.657 7   2053931.391 3
  19674159.279   -20255262.159 7     17688.435 1
  19776112.834   -24368909.708 7 -18057415.458 2
 90 10 11 14 23 29.9980000  0  5 02 12 06 13 09
  22373067.646     8400330.785 6
  22382889.904   -10307143.046 6  -7052907.383 1
  20444418.568    -5194035.605 7
  19674617.201   -20252851.976 7     19566.470 1
  19772939.732   -24385576.936 7 -18070402.937 2
 90 10 11 14 23 44.9980000  0  5 02 12 06 13 09
  22378202.928     8427303.188 6
  22373149.607   -10358320.133 6  -7092785.664 1
  20449544.162    -5167084.831 7
  19675098.498   -20250326.054 7     21534.693 1
  19769796.006   -24402098.680 7 -18083277.052 2
 90 10 11 14 23 59.9980000  0  5 02 12 06 13 09
  22383344.201     8454316.190 6   6586344.381 1
  22363418.076   -10409455.661 6  -7132631.554 1
  20454698.248    -5140008.133 7   2116927.708 3
  19675598.076   -20247691.525 7     23587.540 1
  19766680.021   -24418481.504 7 -18096042.914 2
 90 10 11 14 24 14.9980000  0  5 02 12 06 13 09
  22388494.303     8481380.416 6   6607433.330 1
  22353698.021   -10460538.748 6  -7172436.580 1
  20459879.998    -5112795.081 7   2138132.627 3
  19676123.943   -20244937.972 7     25733.136 2
  19763589.334   -24434714.908 7 -18108692.353 1
 90 10 11 14 24 29.9980000  0  5 02 12 06 13 09
  22393649.404     8508491.077 6   6628558.424 1
  22343986.318   -10511573.879 6  -7212204.240 1
  20465079.240    -5085450.591 7   2159439.967 3
  19676669.248   -20242070.439 7     27967.548 1
  19760528.865   -24450803.061 7 -18121228.596 2
 90 10 11 14 24 44.9980000  0  5 02 12 06 13 09
  22398814.022     8535648.954 6   6649720.311 1
  22334285.881   -10562560.143 6  -7251933.813 1
  20470311.865    -5057974.269 7   2180850.043 2
  19677235.873   -20239088.433 7     30291.161 1
  19757494.467   -24466745.323 7 -18133651.167 1
 90 10 11 14 24 59.9980000  0  5 02 12 06 13 09
  22403994.709     8562852.234 6   6670917.563 1
  22324591.795   -10613498.809 6  -7291626.312 1
  20475563.412    -5030367.949 7   2202361.409 3
  19677825.615   -20235993.822 7     32702.519 2
  19754488.701   -24482543.160 7 -18145961.198 2
 90 10 11 14 25 14.9980000  0  5 02 12 06 13 09
  22409181.318     8590101.494 6   6692150.676 1
  22314905.709   -10664388.860 6  -7331280.914 1
  20480838.545    -5002631.174 7   2223974.424 3
  19678435.928   -20232786.406 7     35201.778 1
  19751508.912   -24498195.611 7 -18158157.938 2
 90 10 11 14 25 29.9980000  0  5 02 12 06 13 09
  22414373.896     8617400.901 6   6713422.854 1
  22305233.748   -10715225.808 6  -7370894.150 1
  20486146.896    -4974759.853 7   2245692.275 2
  19679068.334   -20229462.204 7     37792.035 1
  19748559.240   -24513698.516 7 -18170238.150 2
 90 10 11 14 25 44.9980000  0  5 02 12 06 13 09
  22419577.287     8644740.389 6   6734726.253 1
  22295565.857   -10766019.539 6  -7410473.707 1
  20491471.264    -4946764.480 7   2267506.783 3
  19679721.123   -20226031.614 7     40465.194 1
  19745635.404   -24529061.550 7 -18182209.373 2
 90 10 11 14 25 59.9980000  0  5 02 12 06 13 09
  22424787.982     8672129.746 6   6756068.506 1
  22285912.857   -10816759.830 6  -7450011.625 1
  20496824.193    -4918635.237 7   2289425.591 2
  19680396.068   -20222485.228 7     43228.585 2
  19742741.959   -24544275.085 7 -18194064.101 2
 90 10 11 14 26 14.9980000  0  5 02 12 06 13 09
  22430012.623     8699565.663 6   6777447.053 1
  22276267.443   -10867449.727 6  -7489510.271 1
  20502203.350    -4890375.671 7   2311445.982 3
  19681092.693   -20218826.560 7     46079.470 1
  19739874.475   -24559341.862 7 -18205804.474 2
 90 10 11 14 26 29.9980000  0  5 02 12 06 13 09
  22435235.014     8727043.523 6   6798858.273 1
  22266629.006   -10918093.328 6  -7528972.843 1
  20507604.178    -4861990.375 7   2333564.340 2
  19681808.826   -20215060.287 7     49014.200 1
  19737035.186   -24574266.285 7 -18217433.923 2
 90 10 11 14 26 44.9980000  0  5 02 12 06 13 09
  22440477.068     8754573.142 6   6820309.825 1
  22257003.217   -10968680.600 6  -7568391.522 1
  20513032.514    -4833469.933 7   2355788.009 2
  19682548.584   -20211176.823 7     52040.247 1
  19734222.482   -24589038.513 7 -18228944.772 2
 90 10 11 14 26 59.9980000  0  5 02 12 06 13 09
  22445727.787     8782146.485 6   6841795.451 1
  22247385.646   -11019219.428 6  -7607772.452 1
  20518485.576    -4804822.582 7   2378110.563 2
  19683308.311   -20207184.505 7     55151.116 1
  19731438.482   -24603666.385 7 -18240343.142 2
 90 10 11 14 27 14.9980000  0  5 02 12 06 13 09
  22450979.568     8809764.636 6   6863315.988 1
  22237778.553   -11069708.337 6  -7647114.488 1
  20523960.467    -4776047.373 7   2400532.744 3
  19684089.162   -20203082.684 7     58347.315 1
  19728683.545   -24618148.731 7 -18251628.114 2
 90 10 11 14 27 29.9980000  0  5 02 12 06 13 09
  22456245.975     8837430.113 6   6884873.407 1
  22228180.881   -11120144.477 6  -7686415.404 1
  20529457.889    -4747142.012 7   2423056.348 2
  19684890.662   -20198869.227 7     61630.496 1
  19725955.318   -24632482.638 7 -18262797.419 2
 90 10 11 14 27 44.9980000  0  5 02 12 06 13 09
  22461522.545     8865145.522 6   6906469.726 1
  22218592.248   -11170524.769 6  -7725672.797 1
  20534985.764    -4718103.838 7   2445683.441 2
  19685713.826   -20194541.696 7     65002.574 2
  19723256.787   -24646665.410 7 -18273848.955 2
 90 10 11 14 27 59.9980000  0  5 02 12 06 13 09
  22466804.740     8892908.729 6   6928103.304 1
  22209018.115   -11220851.136 6  -7764888.175 1
  20540534.107    -4688935.375 7   2468412.053 2
  19686559.295   -20190102.371 7     68461.759 1
  19720587.709   -24660698.957 7 -18284784.207 2
 90 10 11 14 28 14.9980000  0  5 02 12 06 13 09
  22472096.264     8920724.391 6   6949777.736 1
  22199448.865   -11271118.196 6  -7804057.342 1
  20546114.232    -4659631.831 7   2491245.930 2
  19687426.084   -20185546.710 7     72011.594 1
  19717945.053   -24674578.184 7 -18295599.210 2
 90 10 11 14 28 29.9980000  0  5 02 12 06 13 09
  22477396.350     8948581.513 6   6971484.483 1
  22189893.287   -11321336.691 6  -7843188.659 1
  20551713.381    -4630204.468 7   2514176.279 2
  19688312.725   -20180885.934 7     75643.338 1
  19715331.982   -24688314.012 7 -18306302.485 2
 90 10 11 14 28 44.9980000  0  5 02 12 06 13 09
  22482709.490     8976485.006 6   6993227.369 1
  22180349.357   -11371501.509 6  -7882278.152 1
  20557338.834    -4600648.742 7   2537206.651 2
  19689220.920   -20176115.356 7     79360.643 2
  19712745.529   -24701901.394 7 -18316890.078 2
 90 10 11 14 28 59.9980000  0  5 02 12 06 13 09
  22488029.248     9004441.542 6   7015011.562 1
  22170814.037   -11421605.795 6  -7921320.481 1
  20562990.850    -4570958.233 7   2560342.042 2
  19690150.170   -20171228.833 7     83168.295 1
  19710190.248   -24715333.598 7 -18327356.759 2
 90 10 11 14 29 14.9980000  0  5 02 12 06 13 09
  22493356.436     9032447.679 6   7036834.420 1
  22161292.053   -11471652.539 6  -7960317.965 1
  20568662.818    -4541136.383 7   2583579.782 2
  19691100.303   -20166230.159 7     87063.338 1
  19707663.279   -24728613.867 7 -18337705.047 2
 90 10 11 14 29 29.9980000  0  5 02 12 06 13 09
  22498693.561     9060498.123 6   7058691.821 1
  22151777.061   -11521646.761 6  -7999274.532 1
  20574364.311    -4511188.736 7   2606915.552 2
  19692073.482   -20161124.746 7     91041.548 1
  19705164.381   -24741746.881 7 -18347938.591 2
 90 10 11 14 29 44.9980000  0  5 02 12 06 13 09
  22504042.568     9088596.796 6   7080586.777 1
  22142274.639   -11571584.163 6  -8038186.812 1
  20580085.467    -4481111.533 7   2630352.274 2
  19693064.686   -20155908.839 7     95105.861 1
  19702694.553   -24754729.197 7 -18358054.712 2
 90 10 11 14 29 59.9980000  0  5 02 12 06 13 09
  22509399.826     9116740.206 6   7102516.600 1
  22132781.084   -11621468.028 6  -8077057.385 1
  20585829.475    -4450908.563 7   2653886.985 2
  19694078.975   -20150586.415 7     99253.178 1
  19700251.271   -24767563.785 7 -18368055.713 1
 90 10 11 14 30 14.9980000  0  5 02 12 06 13 09
  22514762.803     9144928.710 6   7124481.569 1
  22123299.303   -11671297.624 6  -8115885.672 1
  20591602.178    -4420579.537 7   2677519.934 2
  19695111.795   -20145157.180 7    103483.716 1
  19697835.678   -24780250.057 7 -18377941.152 2
 90 10 11 14 30 29.9970000  0  5 02 12 06 13 09
  22520134.915     9173166.277 6   7146484.770 1
  22113828.470   -11721063.331 6  -8154664.173 1
  20597399.189    -4390120.798 7   2701253.959 2
  19696165.985   -20139615.811 7    107801.642 1
  19695453.087   -24792781.229 7 -18387705.724 1
 90 10 11 14 30 44.9970000  0  5 02 12 06 13 09
  22525517.228     9201454.233 6   7168527.208 1
  22104369.985   -11770773.999 6  -8193399.785 1
  20603219.454    -4359530.999 7   2725090.096 2
  19697241.821   -20133964.577 7    112205.165 1
  19693096.017   -24805161.238 7 -18397352.510 1
 90 10 11 14 30 59.9970000  0  5 02 12 06 13 09
  22530910.993     9229785.829 6   7190603.676 1
  22094921.274   -11820430.706 6  -8232093.345 1
  20609064.673    -4328817.163 7   2749022.884 2
  19698337.235   -20128208.778 7    116690.177 1
  19690769.454   -24817393.949 7 -18406884.515 2
 90 10 11 14 31 14.9970000  0  5 02 12 06 13 09
  22536312.954     9258164.520 6   7212716.856 1
  22085481.048   -11870029.575 6  -8270741.844 1
  20614933.899    -4297975.970 7   2773054.908 2
  19699452.079   -20122345.202 7    121259.167 1
  19688469.423   -24829475.559 7 -18416298.784 1
 90 10 11 14 31 29.9970000  0  5 02 12 06 13 09
  22541718.743     9286591.712 6   7234867.801 1
  22076055.173   -11919569.019 6  -8309344.033 1
  20620827.478    -4267006.236 7   2797187.098 2
  19700588.376   -20116372.871 7    125912.905 1
  19686201.056   -24841404.657 7 -18425594.207 1
 90 10 11 14 31 44.9970000  0  5 02 12 06 13 09
  22547137.040     9315062.798 6   7257052.953 1
  22066638.267   -11969053.260 6  -8347903.196 1
  20626745.524    -4235912.819 7   2821415.660 2
  19701746.181   -20110296.424 7    130647.764 1
  19683957.548   -24853185.518 7 -18434774.129 1
 90 10 11 14 31 59.9970000  0  5 02 12 06 13 09
  22552566.517     9343584.462 5   7279277.514 1
  22057235.188   -12018475.343 6  -8386413.937 1
  20632684.188    -4204689.219 7   2845745.669 2
  19702922.938   -20104109.621 7    135468.623 1
  19681745.993   -24864811.395 7 -18443833.281 2
 90 10 11 14 32 14.9970000  0  5 02 12 06 13 09
  22558002.720     9372150.184 6   7301536.409 1
  22047840.181   -12067841.162 6  -8424880.838 1
  20638650.845    -4173341.920 7   2870172.068 2
  19704120.478   -20097819.020 7    140370.360 1
  19679561.587   -24876288.489 7 -18452776.494 2
 90 10 11 14 32 29.9970000  0  5 02 12 06 13 09
  22563447.493     9400764.472 6   7323833.154 1
  22038457.196   -12117146.191 6  -8463300.359 1
  20644642.603    -4141866.987 7   2894697.920 2
  19705336.157   -20091420.624 7    145356.096 2
  19677407.665   -24887612.300 7 -18461600.272 1
 90 10 11 14 32 44.9970000  0  5 02 12 06 13 09
  22568898.728     9429427.570 5   7346167.903 1
  22029087.649   -12166389.849 6  -8501672.063 1
  20650655.923    -4110264.242 7   2919323.373 2
  19706576.149   -20084914.427 7    150425.833 1
  19675280.181   -24898782.485 7 -18470304.340 1
 90 10 11 14 32 59.9970000  0  5 02 12 06 13 09
  22574363.017     9458133.861 6   7368536.335 1
  22019727.009   -12215577.239 6  -8539999.922 1
  20656694.634    -4078539.390 7   2944043.973 2
  19707831.767   -20078306.305 7    155574.990 1
  19673184.376   -24909804.386 7 -18478892.860 1
 90 10 11 14 33 14.9970000  0  5 02 12 06 13 09
  22579834.767     9486890.758 6   7390944.214 1
  22010378.407   -12264700.543 6  -8578277.844 1
  20662754.282    -4046685.370 7   2968865.218 2
  19709111.696   -20071589.081 7    160809.158 1
  19671115.853   -24920670.417 7 -18487359.925 2
 90 10 11 14 33 29.9970000  0  5 02 12 06 13 09
  22585318.228     9515692.194 6   7413386.756 1
  22001041.681   -12313765.482 6  -8616510.294 1
  20668837.134    -4014708.277 7   2993782.356 2
  19710408.993   -20064769.116 7    166123.388 1
  19669077.938   -24931386.370 7 -18495710.052 1
 90 10 11 14 33 44.9970000  0  5 02 12 06 13 09
  22590806.189     9544543.349 5   7435868.064 1
  21991715.579   -12362766.515 6  -8654692.936 1
  20674948.407    -3982603.133 7   3018799.301 2
  19711726.524   -20057841.128 7    171521.787 1
  19667067.524   -24941946.846 7 -18503939.023 2
 90 10 11 14 33 59.9970000  0  5 02 12 06 13 09
  22596307.915     9573442.040 5   7458386.430 1
  21982404.540   -12411705.504 6  -8692827.234 1
  20681078.626    -3950372.491 7   3043914.040 2
  19713066.806   -20050807.707 7    177002.342 1
  19665086.892   -24952353.960 7 -18512048.493 1
 90 10 11 14 34 14.9970000  0  5 02 12 06 13 09
  22601815.017     9602389.495 5   7480942.750 1
  21973103.368   -12460580.936 6  -8730912.018 1
  20687234.774    -3918015.270 7   3069127.396 2
  19714425.063   -20043668.127 7    182565.622 1
  19663136.681   -24962606.427 7 -18520037.459 1
 90 10 11 14 34 29.9970000  0  5 02 12 06 13 09
  22607331.884     9631388.604 5   7503539.335 1
  21963815.462   -12509389.713 6  -8768944.842 1
  20693420.071    -3885528.856 7   3094441.413 2
  19715803.470   -20036419.662 7    188213.746 1
  19661215.759   -24972701.310 7 -18527903.631 1
 90 10 11 14 34 44.9970000  0  5 02 12 06 13 09
  22612860.704     9660431.664 5   7526170.165 1
  21954540.399   -12558139.032 6  -8806931.349 1
  20699628.704    -3852920.981 7   3119850.070 2
  19717203.189   -20029070.441 7    193940.386 1
  19659322.306   -24982645.973 7 -18535652.750 1
 90 10 11 14 34 59.9970000  0  5 02 12 06 13 09
  22618397.517     9689523.286 5   7548838.842 1
  21945275.907   -12606823.832 6  -8844867.587 1
  20705852.806    -3820187.272 7   3145356.797 2
  19718620.485   -20021616.026 7    199748.988 2
  19657458.962   -24992435.592 7 -18543281.053 1
 90 10 11 14 35 14.9970000  0  5 02 12 06 13 09
  22623940.696     9718662.968 5   7571544.958 1
  21936022.821   -12655444.338 6  -8882753.723 1
  20712106.345    -3787328.442 7   3170961.016 2
  19720059.790   -20014056.978 7    205639.126 1
  19655625.384   -25002070.528 7 -18550788.829 1
 90 10 11 14 35 29.9970000  0  5 02 12 06 13 09
  22629496.274     9747849.659 5   7594287.710 1
  21926782.282   -12704001.157 6  -8920590.222 1
  20718384.118    -3754345.668 7   3196661.812 2
  19721517.235   -20006394.569 7    211609.807 1
  19653821.642   -25011551.651 7 -18558176.746 1
 90 10 11 14 35 44.9970000  0  5 02 12 06 13 09
  22635058.079     9777084.609 5   7617068.066 1
  21917553.345   -12752492.844 6  -8958375.985 1
  20724684.470    -3721238.102 7   3222459.842 2
  19722995.399   -19998628.232 7    217661.466 1
  19652048.196   -25020877.524 7 -18565443.694 1
 90 10 11 14 35 59.9970000  0  5 02 12 06 13 09
  22640632.165     9806367.666 5   7639885.905 1
  21908339.454   -12800919.125 6  -8996110.768 1
  20731006.462    -3688006.008 7   3248354.913 2
  19724493.642   -19990758.132 7    223793.980 1
  19650303.587   -25030048.287 7 -18572589.775 1
 90 10 11 14 36 14.9970000  0  5 02 12 06 13 09
  22646212.751     9835697.546 5   7662740.243 1
  21899136.126   -12849280.983 6  -9033795.364 1
  20737355.220    -3654650.852 7   3274345.864 2
  19726010.181   -19982785.935 7    230006.052 2
  19648586.462   -25039064.941 7 -18579615.769 1
 90 10 11 14 36 29.9970000  0  5 02 12 06 13 09
  22651806.446     9865079.635 5   7685635.244 1
  21889946.720   -12897572.688 6  -9071425.288 1
  20743726.657    -3621167.542 7   3300436.683 2
  19727546.978   -19974706.617 7    236301.597 1
  19646901.243   -25047922.117 7 -18586517.501 1
 90 10 11 14 36 44.9970000  0  5 02 12 06 13 09
  22657408.587     9894511.013 5   7708568.663 1
  21880769.353   -12945796.788 6  -9109002.531 1
  20750119.610    -3587559.216 7   3326624.921 2
  19729104.243   -19966522.996 7    242678.416 1
  19645246.142   -25056622.436 7 -18593296.998 1
 90 10 11 14 36 59.9970000  0  5 02 12 06 13 09
  22663016.079     9923994.018 5   7731542.309 1
  21871604.712   -12993950.529 6  -9146524.957 1
  20756542.306    -3553823.580 7   3352912.353 2
  19730683.009   -19958232.937 7    249138.170 1
  19643620.095   -25065163.403 7 -18599952.324 1
 90 10 11 14 37 14.9970000  0  5 02 12 06 13 09
  22668632.384     9953517.185 5   7754547.255 1
  21862455.274   -13042045.027 6  -9184001.210 1
  20762984.399    -3519972.411 7   3379289.807 2
  19732278.384   -19949848.701 7    255671.311 1
  19642023.524   -25073556.368 7 -18606492.329 1
 90 10 11 14 37 29.9970000  0  5 02 12 06 13 09
  22674259.290     9983087.829 5   7777589.203 1
  21853315.938   -13090072.767 6  -9221425.452 1
  20769449.368    -3485998.615 7   3405762.811 2
  19733893.235   -19941363.123 7    262283.420 1
  19640456.368   -25081793.926 7 -18612911.238 1
 90 10 11 14 37 44.9970000  0  5 02 12 06 13 09
  22679896.798    10012710.279 5   7800671.496 1
  21844191.579   -13138029.041 6  -9258794.003 1
  20775938.782    -3451898.129 7   3432334.539 2
  19735528.446   -19932771.925 7    268977.826 1
  19638918.189   -25089871.462 7 -18619205.449 1
 90 10 11 14 37 59.9970000  0  5 02 12 06 13 09
  22685546.493    10042380.714 5   7823791.188 1
  21835076.220   -13185917.141 6  -9296109.435 1
  20782450.657    -3417674.804 7   3459001.998 2
  19737180.337   -19924079.116 7    275751.411 1
  19637410.985   -25097792.633 7 -18625377.823 1
 90 10 11 14 38 14.9970000  0  5 02 12 06 13 09
  22691198.782    10072095.505 5   7846945.452 1
  21825977.321   -13233740.335 6  -9333374.277 1
  20788990.087    -3383332.510 7   3485762.162 2
  19738854.978   -19915288.906 7    282600.901 1
  19635933.235   -25105561.009 7 -18631431.138 1
 90 10 11 14 38 29.9970000  0  5 02 12 06 13 09
  22696864.454    10101859.517 5   7870138.051 1
  21816889.728   -13281493.506 6  -9370584.565 1
  20795545.829    -3348866.733 7   3512618.544 2
  19740546.579   -19906396.661 7    289529.886 1
  19634483.704   -25113171.774 7 -18637361.633 1
 90 10 11 14 38 44.9970000  0  5 02 12 06 13 09
  22702537.735    10131671.921 5   7893368.360 1
  21807817.079   -13329177.241 6  -9407740.749 1
  20802128.735    -3314278.634 7   3539570.233 2
  19742258.446   -19897403.517 7    296537.499 1
  19633065.915   -25120625.425 7 -18643169.708 1
 90 10 11 14 38 59.9970000  0  5 02 12 06 13 09
  22708219.470    10161534.649 5   7916637.892 1
  21798755.540   -13376789.196 6  -9444840.999 1
  20808733.360    -3279566.441 7   3566618.616 2
  19743989.095   -19888307.533 7    303625.248 1
  19631679.009   -25127919.896 7 -18648853.738 1
 90 10 11 14 39 14.9970000  0  5 02 12 06 13 09
  22713909.509    10191445.681 5   7939945.055 1
  21789708.423   -13424330.993 6  -9481886.574 1
  20815360.095    -3244732.181 6   3593762.118 2
  19745740.126   -19879111.003 7    310791.343 1
  19630320.587   -25135057.143 7 -18654415.261 1
 90 10 11 14 39 29.9970000  0  5 02 12 06 13 09
  22719610.423    10221405.332 5   7963290.112 1
  21780674.884   -13471802.057 6  -9518877.041 1
  20822013.712    -3209776.134 7   3621000.522 2
  19747508.384   -19869814.200 7    318035.572 1
  19628991.876   -25142036.876 7 -18659854.041 1
 90 10 11 14 39 44.9970000  0  5 02 12 06 13 09
  22725320.743    10251413.807 5   7986673.193 1
  21771655.212   -13519201.616 6  -9555811.778 1
  20828686.681    -3174698.174 6   3648333.930 2
  19749297.657   -19860417.043 7    325358.002 1
  19627693.493   -25148858.454 7 -18665169.594 1
 90 10 11 14 39 59.9970000  0  5 02 12 06 13 09
  22731041.657    10281472.929 5   8010095.757 1
  21762651.907   -13566527.503 6  -9592689.121 1
  20835389.399    -3139496.559 7   3675763.687 2
  19751103.314   -19850917.758 7    332760.009 1
  19626426.571   -25155520.108 7 -18670360.521 1
 90 10 11 14 40 14.9970000  0  5 02 12 06 13 09
  22736773.712    10311581.885 5   8033557.138 1
  21753658.048   -13613780.074 6  -9629509.332 1
  20842108.009    -3104172.288 7   3703289.030 2
  19752931.407   -19841317.698 7    340240.545 1
  19625189.478   -25162022.332 7 -18675427.224 1
 90 10 11 14 40 29.9970000  0  5 02 12 06 13 09
  22742508.438    10341737.857 5   8057055.153 1
  21744679.024   -13660961.700 6  -9666274.254 1
  20848856.907    -3068728.425 7   3730907.552 2
  19754776.212   -19831619.820 7    347797.299 2
  19623982.423   -25168367.577 7 -18680371.596 1
 90 10 11 14 40 44.9970000  0  5 02 12 06 13 09
  22748259.517    10371941.711 5   8080590.466 1
  21735714.548   -13708071.311 6  -9702983.068 1
  20855621.259    -3033164.237 7   3758619.839 2
  19756641.337   -19821823.688 7    355430.615 2
  19622804.673   -25174555.144 7 -18685193.114 1
 90 10 11 14 40 59.9970000  0  5 02 12 06 13 09
  22754013.907    10402195.103 5   8104164.368 1
  21726765.243   -13755107.005 6  -9739634.286 1
  20862411.978    -2997478.570 7   3786426.787 2
  19758522.649   -19811927.891 7    363141.600 1
  19621657.376   -25180583.476 7 -18689890.547 1
 90 10 11 14 41 14.9970000  0  5 02 12 06 13 09
  22759780.103    10432496.144 5   8127775.404 1
  21717827.243   -13802070.508 6  -9776229.240 1
  20869226.696    -2961673.668 7   3814326.634 2
  19760425.564   -19801934.646 7    370928.512 1
  19620540.157   -25186454.229 7 -18694465.189 1
 90 10 11 14 41 29.9970000  0  5 02 12 06 13 09
  22765557.212    10462847.667 5   8151425.784 1
  21708905.087   -13848958.268 6  -9812765.185 1
  20876063.688    -2925746.573 7   3842321.696 2
  19762345.970   -19791841.367 7    378793.375 1
  19619452.774   -25192164.383 7 -18698914.694 1
 90 10 11 14 41 44.9970000  0  5 02 12 06 13 09
  22771342.610    10493247.176 5   8175113.560 1
  21699994.704   -13895772.538 6  -9849243.866 1
  20882920.009    -2889700.121 6   3870409.768 2
  19764286.814   -19781650.841 7    386734.014 1
  19618397.806   -25197716.235 7 -18703240.844 1
 90 10 11 14 41 59.9970000  0  5 02 12 06 13 09
  22777136.751    10523696.056 5   8198839.789 1
  21691103.399   -13942511.417 6  -9885663.796 1
  20889801.657    -2853533.110 6   3898591.773 2
  19766244.329   -19771361.510 7    394751.640 2
  19617371.837   -25203108.173 7 -18707442.385 1
 90 10 11 14 42 14.9970000  0  5 02 12 06 13 09
  22782942.368    10554192.710 5   8222603.245 1
  21682222.751   -13989176.162 6  -9922025.953 1
  20896710.337    -2817247.232 6   3926866.402 2
  19768219.634   -19760975.482 7    402844.620 1
  19616375.563   -25208341.741 7 -18711520.519 1
 90 10 11 14 42 29.9970000  0  5 02 12 06 13 09
  22788750.876    10584736.984 5   8246403.829 1
  21673357.134   -14035766.636 6  -9958330.246 1
  20903636.274    -2780843.090 6   3955233.181 2
  19770215.532   -19750493.346 7    411012.487 2
  19615409.548   -25213416.970 7 -18715475.276 1
 90 10 11 14 42 44.9970000  0  5 02 12 06 13 09
  22794574.899    10615329.952 5   8270242.355 1
  21664506.712   -14082281.577 6  -9994575.673 1
  20910586.603    -2744319.893 6   3983692.747 2
  19772226.876   -19739914.356 7    419255.823 2
  19614473.478   -25218332.946 7 -18719305.941 1
 90 10 11 14 42 59.9970000  0  5 02 12 06 13 09
  22800407.056    10645974.703 5   8294121.227 1
  21655668.189   -14128717.433 6 -10030759.484 1
  20917560.188    -2707674.760 6   4012247.326 2
  19774259.743   -19729235.433 7    427577.033 1
  19613570.532   -25223086.207 7 -18723009.815 1
 90 10 11 14 43 14.9970000  0  5 02 12 06 13 09
  22806247.681    10676665.721 5   8318036.163 1
  21646845.579   -14175079.311 6 -10066885.647 1
  20924556.345    -2670913.432 6   4040892.434 2
  19776309.110   -19718462.517 7    435971.482 2
  19612695.212   -25227682.211 7 -18726591.147 1
 90 10 11 14 43 29.9970000  0  5 02 12 06 13 09
  22812097.157    10707409.782 5   8341992.421 1
  21638038.712   -14221359.897 6 -10102948.460 1
  20931575.243    -2634029.286 6   4069633.241 2
  19778379.157   -19707589.189 7    444444.178 2
  19611851.915   -25232114.136 7 -18730044.627 1
 90 10 11 14 43 44.9970000  0  5 02 12 06 13 09
  22817957.134    10738201.871 5   8365986.111 1
  21629245.360   -14267563.891 6 -10138951.602 1
  20938614.860    -2597027.567 6   4098465.662 2
  19780467.017   -19696620.312 7    452991.320 1
  19611038.642   -25236386.745 7 -18733373.963 1
 90 10 11 14 43 59.9970000  0  5 02 12 06 13 09
  22823826.501    10769044.033 5   8390018.830 1
  21620469.157   -14313688.979 6 -10174893.249 1
  20945679.228    -2559906.479 6   4127391.099 2
  19782572.259   -19685554.305 7    461614.150 2
  19610256.579   -25240497.861 7 -18736577.466 1
 90 10 11 14 44 14.9970000  0  5 02 12 06 13 09
  22829706.087    10799937.638 5   8414091.596 1
  21611707.189   -14359733.453 6 -10210772.083 1
  20952768.837    -2522664.906 7   4156410.427 2
  19784698.188   -19674390.335 7    470313.315 2
  19609504.001   -25244446.115 7 -18739654.057 1
 90 10 11 14 44 29.9970000  0  5 02 12 06 13 09
  22835591.993    10830877.946 5   8438200.816 1
  21602959.204   -14405701.712 6 -10246591.531 1
  20959878.798    -2485307.809 7   4185519.771 2
  19786839.181   -19663133.096 7    479085.161 1
  19608783.368   -25248236.162 7 -18742607.373 1
 90 10 11 14 44 44.9970000  0  5 02 12 06 13 09
  22841491.431    10861868.102 5   8462348.825 1
  21594229.579   -14451590.141 6 -10282348.776 1
  20967005.876    -2447832.239 6   4214721.428 2
  19788999.853   -19651779.796 7    487931.850 2
  19608093.618   -25251864.591 7 -18745434.755 1
 90 10 11 14 44 59.9970000  0  5 02 12 06 13 09
  22847398.189    10892907.077 5   8486534.917 1
  21585510.884   -14497399.600 6 -10318044.478 1
  20974161.220    -2410239.621 6   4244014.300 2
  19791177.501   -19640331.881 7    496852.272 2
  19607433.493   -25255332.536 7 -18748137.080 1
 90 10 11 14 45 14.9970000  0  5 02 12 06 13 09
  22853312.923    10923993.416 5   8510757.901 1
  21576809.126   -14543131.290 6 -10353679.585 1
  20981336.407    -2372531.785 6   4273396.946 2
  19793374.274   -19628791.257 7    505844.933 2
  19606803.689   -25258641.556 7 -18750715.569 1
 90 10 11 14 45 29.9970000  0  5 02 12 06 13 09
  22859237.134    10955131.761 5   8535021.390 1
  21568122.243   -14588779.856 6 -10389249.914 1
  20988541.845    -2334704.035 7   4302873.035 2
  19795587.868   -19617153.066 7    514913.621 2
  19606205.931   -25261786.434 7 -18753166.159 1
 90 10 11 14 45 44.9970000  0  5 02 12 06 13 09
  22865173.821    10986316.745 5   8559321.252 1
  21559452.360   -14634350.408 6 -10424759.463 1
  20995753.259    -2296761.872 6   4332438.276 2
  19797821.376   -19605423.142 7    524053.790 2
  19605636.899   -25264772.410 7 -18755492.925 1
 90 10 11 14 45 59.9970000  0  5 02 12 06 13 09
  22871113.735    11017547.962 5   8583657.106 1
  21550793.587   -14679842.884 6 -10460208.170 1
  21002997.220    -2258706.046 6   4362092.085 2
  19800070.087   -19593602.123 7    533264.943 2
  19605099.298   -25267599.811 7 -18757696.129 1
 90 10 11 14 46 14.9970000  0  5 02 12 06 13 09
  22877067.337    11048824.717 5   8608028.471 1
  21542150.884   -14725257.676 6 -10495596.340 1
  21010263.626    -2220537.613 7   4391833.630 2
  19802337.384   -19581691.031 7    542546.281 2
  19604590.064   -25270269.538 7 -18759776.473 1
 90 10 11 14 46 29.9970000  0  5 02 12 06 13 09
  22883027.493    11080146.677 5   8632435.059 1
  21533523.142   -14770594.892 6 -10530924.063 1
  21017547.165    -2182257.084 6   4421662.522 2
  19804619.978   -19569690.469 7    551897.335 1
  19604114.173   -25272781.619 7 -18761733.970 1
 90 10 11 14 46 44.9970000  0  5 02 12 06 13 09
  22888999.329    11111519.361 5   8656881.173 1
  21524911.595   -14815848.553 6 -10566186.682 1
  21024852.673    -2143859.318 6   4451582.768 2
  19806923.321   -19557595.258 7    561322.139 1
  19603665.657   -25275130.548 7 -18763564.342 1
 90 10 11 14 46 59.9970000  0  5 02 12 06 13 09
  22894979.126    11142943.994 5   8681367.732 1
  21516317.212   -14861016.972 6 -10601382.873 1
  21032181.907    -2105343.278 6   4481595.169 2
  19809241.235   -19545404.732 7    570821.219 1
  19603248.931   -25277315.033 7 -18765266.566 1
 90 10 11 14 47 14.9970000  0  5 02 12 06 13 09
  22900964.884    11174397.641 5   8705876.933 1
  21507733.087   -14906122.882 6 -10636530.353 1
  21039532.946    -2066732.209 7   4511681.623 2
  19811575.470   -19533141.938 7    580376.610 2
  19602863.017   -25279357.940 7 -18766858.481 1
 90 10 11 14 47 29.9970000  0  5 02 12 06 13 09
  22906956.829    11205896.820 5   8730421.587 1
  21499164.681   -14951149.148 6 -10671615.774 1
  21046899.907    -2028009.658 7   4541854.943 2
  19813925.274   -19520790.200 7    590001.307 2
  19602502.446   -25281242.508 7 -18768327.008 1
 90 10 11 14 47 44.9970000  0  5 02 12 06 13 09
  22912963.188    11237449.962 5   8755008.282 1
  21490615.228   -14996086.934 6 -10706632.251 1
  21054289.751    -1989167.430 6   4572121.520 2
  19816295.501   -19508341.630 7    599701.458 2
  19602175.735   -25282960.203 7 -18769665.502 1
 90 10 11 14 47 59.9970000  0  5 02 12 06 13 09
  22918976.634    11269049.044 5   8779630.798 1
  21482077.915   -15040943.918 6 -10741585.764 1
  21061702.751    -1950213.687 6   4602474.982 2
  19818680.681   -19495804.341 7    609470.742 2
  19601879.829   -25284518.837 7 -18770880.059 1
 90 10 11 14 48 14.9970000  0  5 02 12 06 13 09
  22925000.071    11300700.503 5   8804294.139 1
  21473559.196   -15085713.165 7 -10776470.911 1
  21069135.931    -1911142.210 6   4632920.193 2
  19821084.196   -19483172.180 7    619313.952 2
  19601613.798   -25285911.941 7 -18771965.624 1
 90 10 11 14 48 29.9970000  0  5 02 12 06 13 09
  22931031.923    11332400.389 5   8828995.236 1
  21465055.509   -15130398.689 7 -10811290.818 1
  21076596.431    -1871957.561 6   4663453.587 2
  19823505.618   -19470449.521 7    629227.679 2
  19601380.368   -25287143.543 7 -18772925.347 1
 90 10 11 14 48 44.9970000  0  5 02 12 06 13 09
  22937074.876    11364150.046 5   8853735.076 1
  21456568.024   -15174998.697 7 -10846044.092 1
  21084069.095    -1832658.508 6   4694076.130 2
  19825943.853   -19457635.248 7    639212.795 2
  19601176.368   -25288212.171 7 -18773758.080 1
 90 10 11 14 48 59.9970000  0  5 02 12 06 13 09
  22943125.939    11395947.997 5   8878512.544 1
  21448096.056   -15219514.232 6 -10880731.538 1
  21091573.642    -1793246.833 6   4724786.431 2
  19828399.767   -19444731.088 7    649267.951 2
  19601002.774   -25289119.243 7 -18774464.928 1
 90 10 11 14 49 14.9970000  0  5 02 12 06 13 09
  22949184.931    11427795.413 5   8903328.553 1
  21439642.970   -15263943.573 7 -10915351.827 1
  21099094.392    -1753721.275 6   4755585.476 2
  19830872.563   -19431736.122 7    659393.863 2
  19600861.720   -25289863.377 7 -18775044.807 1
 90 10 11 14 49 29.9970000  0  5 02 12 06 13 09
  22955255.993    11459695.145 5   8928185.346 1
  21431204.470   -15308283.758 7 -10949902.639 1
  21106638.548    -1714079.586 6   4786475.012 2
  19833363.001   -19418648.067 7    669592.315 2
  19600753.165   -25290441.868 7 -18775495.613 1
 90 10 11 14 49 44.9970000  0  5 02 12 06 13 09
  22961333.345    11491642.385 5   8953079.156 1
  21422784.970   -15352539.069 7 -10984387.315 2
  21114199.665    -1674326.766 6   4817451.149 2
  19835870.571   -19405471.705 7    679859.576 2
  19600670.884   -25290859.179 7 -18775820.822 1
 90 10 11 14 49 59.9970000  0  5 02 12 06 13 09
  22967421.923    11523637.652 5   8978010.379 1
  21414378.259   -15396708.535 7 -11018805.103 1
  21121786.392    -1634462.520 6   4848514.103 2
  19838395.321   -19392206.620 7    690195.976 2
  19600626.204   -25291114.781 7
 90 10 11 14 50 14.9970000  0  5 02 12 06 13 09
  22973519.915    11555685.934 5   9002982.917 1
  21405989.376   -15440786.884 6 -11053151.882 1
  21129397.353    -1594482.167 6   4879667.528 2
  19840937.071   -19378848.423 7    700604.926 2
  19600608.329   -25291203.837 7
 90 10 11 14 50 29.9970000  0  5 02 12 06 13 09
  22979631.501    11587786.136 5   9027995.912 1
  21397620.970   -15484774.806 7 -11087428.204 1
  21137023.720    -1554386.988 6   4910910.424 1
  19843496.923   -19365398.267 7    711085.531 2
  19600622.735   -25291127.208 7
 90 10 11 14 50 44.9970000  0  5 02 12 06 13 09
  22985748.532    11619939.548 5   9053050.368 1
  21389267.118   -15528670.690 7 -11121632.805 1
  21144680.204    -1514176.004 6   4942243.560 2
  19846072.438   -19351855.112 7    721638.600 2
  19600667.243   -25290883.374 7
 90 10 11 14 50 59.9970000  0  5 02 12 06 13 09
  22991873.923    11652137.722 5   9078139.702 1
  21380930.892   -15572482.681 7 -11155772.040 1
  21152351.673    -1473857.905 6   4973660.163 1
  19848665.189   -19338227.945 7    732257.141 2
  19600743.634   -25290480.938 7
 90 10 11 14 51 14.9970000  0  5 02 12 06 13 09
  22998012.845    11684381.967 5   9103264.945 1
  21372608.868   -15616208.988 7 -11189844.507 1
  21160044.353    -1433431.593 6   5005161.073 2
  19851275.696   -19324515.465 7    742942.149 2
  19600849.603   -25289918.511 7        -0.04011
 90 10 11 14 51 29.9970000  0  5 02 12 06 13 09
  23004158.517    11716675.298 5   9128428.422 1
  21364305.165   -15659846.267 7 -11223847.593 1
  21167757.087    -1392894.378 6   5036748.423 1
  19853902.118   -19310715.158 7    753695.601 2
  19600990.345   -25289192.956 7       565.294 1
 90 10 11 14 51 44.9970000  0  5 02 12 06 13 09
  23010311.704    11749019.684 5   9153631.680 1
  21356016.665   -15703392.149 7 -11257779.468 2
  21175490.235    -1352244.478 6   5068423.568 2
  19856547.063   -19296825.190 7    764518.913 2
  19601159.821   -25288302.159 7      1259.386 1
 90 10 11 14 51 59.9970000  0  5 02 12 06 13 09
  23016478.501    11781413.905 5   9178873.760 1
  21347749.728   -15746847.333 7 -11291640.664 1
  21183252.063    -1311483.176 6   5100185.530 2
  19859205.181   -19282846.747 7    775411.170 2
  19601360.431   -25287247.157 7      2081.435 1
 90 10 11 14 52 14.9970000  0  5 02 12 06 13 09
  23022651.001    11813856.525 5   9204153.563 1
  21339497.720   -15790212.934 7 -11325432.053 1
  21191027.993    -1270612.336 6   5132032.839 1
  19861882.462   -19268781.840 7    786370.806 2
  19601591.681   -25286029.509 7      3030.219 2
 90 10 11 14 52 29.9970000  0  5 02 12 06 13 09
  23028836.978    11846350.125 5   9229473.097 1
  21331261.376   -15833486.214 7 -11359151.514 1
  21198824.196    -1229629.947 6   5163967.074 2
  19864576.228   -19254628.412 7    797399.410 2
  19601855.524   -25284646.786 7      4107.629 1
 90 10 11 14 52 44.9970000  0  5 02 12 06 13 09
  23035028.884    11878889.291 5   9254828.138 1
  21323044.024   -15876672.218 7 -11392802.960 1
  21206648.001    -1188541.423 6   5195984.005 2
  19867284.642   -19240392.018 7    808492.668 2
  19602149.118   -25283104.036 7      5309.741 1
 90 10 11 14 52 59.9970000  0  5 02 12 06 13 09
  23041230.071    11911475.618 5   9280219.945 1
  21314842.446   -15919768.803 7 -11426384.730 1
  21214486.173    -1147345.292 6   5228084.785 1
  19870010.228   -19226071.111 7    819651.780 2
  19602473.610   -25281399.685 7      6637.774 1
 90 10 11 14 53 14.9970000  0  5 02 12 06 13 09
  23047437.306    11944109.575 5   9305648.844 1
  21306660.314   -15962775.320 7 -11459896.317 1
  21222345.063    -1106041.677 6   5260269.321 2
  19872750.931   -19211665.608 7    830876.810 2
  19602828.399   -25279533.306 7      8092.060 1
 90 10 11 14 53 29.9970000  0  5 02 12 06 13 09
  23053656.548    11976793.891 5   9331116.992 1
  21298493.368   -16005688.477 7 -11493335.161 1
  21230225.071    -1064627.818 6   5292539.755 1
  19875508.157   -19197173.036 7    842169.690 2
  19603215.485   -25277501.934 7      9674.916 1
 90 10 11 14 53 44.9970000  0  5 02 12 06 13 09
  23059887.196    12009527.741 5   9356623.711 1
  21290345.376   -16048508.659 7 -11526701.551 1
  21238128.001    -1023104.845 6   5324895.213 1
  19878282.892   -19182594.434 7    853529.603 2
  19603633.134   -25275306.430 7     11385.664 1
 90 10 11 14 53 59.9970000  0  5 02 12 06 13 09
  23066124.095    12042306.059 5   9382165.114 1
  21282213.509   -16091240.596 7 -11559999.185 2
  21246051.204     -981478.214 6   5357331.438 1
  19881071.228   -19167935.036 7    864952.485 2
  19604079.923   -25272951.852 7     13220.365 1
 90 10 11 14 54 14.9970000  0  5 02 12 06 13 09
  23072370.017    12075132.246 5   9407743.807 1
  21274099.501   -16133880.409 7 -11593225.029 1
  21253991.314     -939744.502 6   5389851.109 1
  19883877.806   -19153191.674 7    876440.781 2
  19604560.532   -25270434.426 7     15181.959 1
 90 10 11 14 54 29.9970000  0  5 02 12 06 13 09
  23078626.243    12108001.579 5   9433356.112 1
  21266001.689   -16176432.438 7 -11626382.474 2
  21261951.985     -897908.864 6   5422450.217 1
  19886699.337   -19138369.291 7    887990.650 2
  19605069.774   -25267758.998 7     17266.673 1
 90 10 11 14 54 44.9970000  0  5 02 12 06 13 09
  23084891.517    12140919.644 5   9459006.395 1
  21257921.712   -16218890.911 7 -11659467.021 2
  21269933.626     -855966.108 6   5455132.774 1
  19889535.938   -19123462.968 7    899605.930 2
  19605610.634   -25264920.034 7     19478.818 1
 90 10 11 14 54 59.9970000  0  5 02 12 06 13 09
  23091163.704    12173887.548 5   9484695.505 1
  21249861.798   -16261254.462 7 -11692477.594 1
  21277934.313     -813915.429 6   5487899.441 1
  19892388.978   -19108471.752 7    911287.362 2
  19606181.392   -25261916.596 7     21819.129 1
 90 10 11 14 55 14.9970000  0  5 02 12 06 13 09
  23097447.673    12206906.281 5   9510424.221 1
  21241817.642   -16303521.151 7 -11725412.695 1
  21285958.126     -771755.710 6   5520751.064 1
  19895257.579   -19093394.579 7    923035.771 2
  19606785.087   -25258746.971 7     24288.932 1
 90 10 11 14 55 29.9970000  0  5 02 12 06 13 09
  23103739.196    12239970.400 5   9536188.274 1
  21233793.001   -16345696.413 7 -11758276.555 1
  21294000.103     -729492.894 6   5553683.018 1
  19898141.204   -19078237.500 7    934846.442 2
  19607418.188   -25255417.060 7     26883.636 1
 90 10 11 14 55 44.9970000  0  5 02 12 06 13 09
  23110042.712    12273083.959 5   9561990.895 1
  21225783.056   -16387775.893 7 -11791065.777 1
  21302062.696     -687123.238 6   5586698.218 1
  19901042.212   -19062996.638 7    946722.407 2
  19608083.470   -25251922.744 7     29606.446 1
